[[{"header":{"parameterUnit":"m.s-1","parameterCategory":1,"la1":30.6,"la2":29.2853,"lo1":-89.7004,"lo2":-87.6739,"dy":0.0162,"dx":0.0183,"nx":112,"ny":82,"refTime":"2024-03-13T18:00:00:Z","depth":0,"parameterNumber":2,"parameterNumberName":"U-component_of_WINDS"},"data":[0.0,0.0,0.0,0.0,0.0,0.0,0.0,0.0,0.0,0.0,0.0,0.0,0.0,0.0,0.0,0.0,0.0,0.0,0.0,0.0,0.0,0.0,0.0,0.0,0.0,0.0,0.0,0.0,0.0,0.0,0.0,0.0,0.0,0.0,0.0,0.0,0.0,0.0,0.0,0.0,0.0,0.0,0.0,0.0,0.0,0.0,0.0,0.0,0.0,0.0,0.0,0.0,0.0,0.0,0.0,0.0,0.0,0.0,0.0,0.0,0.0,0.0,0.0,0.0,0.0,0.0,0.0,0.0,0.0,0.0,0.0,0.0,0.0,0.0,0.0,0.0,0.0,0.0,0.0,0.0,0.0,0.0,0.0,0.0,0.0,0.0,0.0,0.0,0.0,0.0,6.3397,6.3666,6.5013,6.5897,6.5897,6.5897,6.5166,6.3435,0.0,0.0,0.0,0.0,0.0,0.0,0.0,0.0,0.0,0.0,0.0,0.0,0.0,0.0,0.0,0.0,0.0,0.0,0.0,0.0,0.0,0.0,0.0,0.0,0.0,0.0,0.0,0.0,0.0,0.0,0.0,0.0,0.0,0.0,0.0,0.0,0.0,0.0,0.0,0.0,0.0,0.0,0.0,0.0,0.0,0.0,0.0,0.0,0.0,0.0,0.0,0.0,0.0,0.0,0.0,0.0,0.0,0.0,0.0,0.0,0.0,0.0,0.0,0.0,0.0,0.0,0.0,0.0,0.0,0.0,0.0,0.0,0.0,0.0,0.0,0.0,0.0,0.0,0.0,0.0,0.0,0.0,0.0,0.0,0.0,0.0,0.0,0.0,0.0,0.0,0.0,0.0,0.0,0.0,0.0,0.0,0.0,0.0,0.0,0.0,0.0,0.0,0.0,0.0,6.3858,6.5359,6.5743,6.5897,6.5897,6.5897,6.5166,6.3435,0.0,0.0,0.0,0.0,0.0,0.0,0.0,0.0,0.0,0.0,0.0,0.0,0.0,0.0,0.0,0.0,0.0,0.0,0.0,0.0,0.0,0.0,0.0,0.0,0.0,0.0,0.0,0.0,0.0,0.0,0.0,0.0,0.0,0.0,0.0,0.0,0.0,0.0,0.0,0.0,0.0,0.0,0.0,0.0,0.0,0.0,0.0,0.0,0.0,0.0,0.0,0.0,0.0,0.0,0.0,0.0,0.0,0.0,0.0,0.0,0.0,0.0,0.0,0.0,0.0,0.0,0.0,0.0,0.0,0.0,0.0,0.0,0.0,0.0,0.0,0.0,0.0,0.0,0.0,0.0,0.0,0.0,0.0,0.0,0.0,0.0,0.0,0.0,0.0,0.0,0.0,0.0,0.0,0.0,0.0,0.0,0.0,0.0,0.0,0.0,0.0,0.0,0.0,6.3099,6.3974,6.5705,6.5897,6.5897,6.5897,6.5897,6.5166,6.3435,6.332,0.0,0.0,0.0,0.0,0.0,0.0,0.0,0.0,0.0,0.0,0.0,0.0,0.0,0.0,0.0,0.0,0.0,0.0,0.0,0.0,0.0,0.0,0.0,0.0,0.0,0.0,0.0,0.0,0.0,0.0,0.0,0.0,0.0,0.0,0.0,0.0,0.0,0.0,0.0,0.0,0.0,0.0,0.0,0.0,0.0,0.0,0.0,0.0,0.0,0.0,0.0,0.0,0.0,0.0,0.0,0.0,0.0,0.0,0.0,0.0,0.0,0.0,0.0,0.0,0.0,0.0,0.0,0.0,0.0,0.0,0.0,0.0,0.0,0.0,0.0,0.0,0.0,0.0,0.0,0.0,0.0,0.0,0.0,0.0,0.0,0.0,0.0,0.0,0.0,0.0,0.0,0.0,0.0,0.0,0.0,0.0,0.0,0.0,0.0,0.0,0.0,0.0,6.3738,6.4446,6.5769,6.5923,6.5923,6.5897,6.5897,6.5166,6.3435,6.332,0.0,0.0,0.0,0.0,0.0,0.0,0.0,0.0,0.0,0.0,0.0,0.0,0.0,0.0,0.0,0.0,0.0,0.0,0.0,0.0,0.0,0.0,0.0,0.0,0.0,0.0,0.0,0.0,0.0,0.0,0.0,0.0,0.0,0.0,0.0,0.0,0.0,0.0,0.0,0.0,0.0,0.0,0.0,0.0,0.0,0.0,0.0,0.0,0.0,0.0,0.0,0.0,0.0,0.0,0.0,0.0,0.0,0.0,0.0,0.0,0.0,0.0,0.0,0.0,0.0,0.0,0.0,0.0,0.0,0.0,0.0,0.0,0.0,0.0,0.0,0.0,0.0,0.0,0.0,0.0,0.0,0.0,0.0,0.0,0.0,0.0,0.0,0.0,0.0,0.0,0.0,0.0,0.0,0.0,0.0,0.0,0.0,0.0,0.0,0.0,0.0,0.0,6.4833,6.5851,6.5958,6.5996,6.5972,6.5897,6.5897,6.5166,6.3435,6.332,0.0,0.0,0.0,0.0,0.0,0.0,0.0,0.0,0.0,0.0,0.0,0.0,0.0,0.0,0.0,0.0,0.0,0.0,0.0,0.0,0.0,0.0,0.0,0.0,0.0,0.0,0.0,0.0,0.0,0.0,0.0,0.0,0.0,0.0,0.0,0.0,0.0,0.0,0.0,0.0,0.0,0.0,0.0,0.0,0.0,0.0,0.0,0.0,0.0,0.0,0.0,0.0,0.0,0.0,0.0,0.0,0.0,0.0,0.0,0.0,0.0,0.0,0.0,0.0,0.0,0.0,0.0,0.0,0.0,0.0,0.0,0.0,0.0,0.0,0.0,0.0,0.0,0.0,0.0,0.0,0.0,0.0,0.0,0.0,0.0,0.0,0.0,0.0,0.0,0.0,0.0,0.0,0.0,0.0,0.0,0.0,0.0,0.0,0.0,0.0,0.0,0.0,6.453,6.5434,6.5951,6.5982,6.5996,6.5972,6.5923,6.5166,6.3435,0.0,0.0,0.0,0.0,0.0,0.0,0.0,0.0,0.0,0.0,0.0,0.0,0.0,0.0,0.0,0.0,0.0,0.0,0.0,0.0,0.0,0.0,0.0,0.0,0.0,0.0,0.0,0.0,0.0,0.0,0.0,0.0,0.0,0.0,0.0,0.0,0.0,0.0,0.0,0.0,0.0,0.0,0.0,0.0,0.0,0.0,0.0,0.0,0.0,0.0,0.0,0.0,0.0,0.0,0.0,0.0,0.0,0.0,0.0,0.0,0.0,0.0,0.0,0.0,0.0,0.0,0.0,0.0,0.0,0.0,0.0,0.0,0.0,0.0,0.0,0.0,0.0,0.0,0.0,0.0,0.0,0.0,0.0,0.0,0.0,0.0,0.0,0.0,0.0,0.0,0.0,0.0,0.0,0.0,0.0,0.0,0.0,0.0,0.0,0.0,0.0,0.0,6.3534,6.4595,6.544,6.5958,6.6052,6.6005,6.5982,6.5972,6.5191,6.3421,0.0,0.0,0.0,0.0,0.0,0.0,0.0,0.0,0.0,0.0,0.0,0.0,0.0,0.0,0.0,0.0,0.0,0.0,0.0,0.0,0.0,0.0,0.0,0.0,0.0,0.0,0.0,0.0,0.0,0.0,0.0,0.0,0.0,0.0,0.0,0.0,0.0,0.0,0.0,0.0,0.0,0.0,0.0,0.0,0.0,0.0,0.0,0.0,0.0,0.0,0.0,0.0,0.0,0.0,0.0,0.0,0.0,0.0,0.0,0.0,0.0,0.0,0.0,0.0,0.0,0.0,0.0,0.0,0.0,0.0,0.0,0.0,0.0,0.0,0.0,0.0,0.0,0.0,0.0,0.0,0.0,0.0,0.0,0.0,0.0,0.0,0.0,0.0,0.0,0.0,0.0,0.0,0.0,0.0,0.0,0.0,0.0,0.0,0.0,0.0,0.0,0.0,6.371,6.5141,6.6165,6.6102,6.6102,6.608,6.6013,6.6005,6.5264,0.0,0.0,0.0,0.0,0.0,0.0,0.0,0.0,0.0,0.0,0.0,0.0,0.0,0.0,0.0,0.0,0.0,0.0,0.0,0.0,0.0,0.0,0.0,0.0,0.0,0.0,0.0,0.0,0.0,0.0,0.0,0.0,0.0,0.0,0.0,0.0,0.0,0.0,0.0,0.0,0.0,0.0,0.0,0.0,0.0,0.0,0.0,0.0,0.0,0.0,0.0,0.0,0.0,0.0,0.0,0.0,0.0,0.0,0.0,0.0,0.0,0.0,0.0,0.0,0.0,0.0,0.0,0.0,0.0,0.0,0.0,0.0,0.0,0.0,0.0,0.0,0.0,0.0,0.0,0.0,0.0,0.0,0.0,0.0,0.0,0.0,0.0,0.0,0.0,0.0,0.0,0.0,0.0,0.0,0.0,0.0,0.0,0.0,0.0,0.0,0.0,0.0,0.0,6.371,6.5141,6.6185,6.6165,6.6123,6.6102,6.608,6.6029,6.5264,6.3492,0.0,0.0,0.0,0.0,0.0,0.0,0.0,0.0,0.0,0.0,0.0,0.0,0.0,0.0,0.0,0.0,0.0,0.0,0.0,0.0,0.0,0.0,0.0,0.0,0.0,0.0,0.0,0.0,0.0,0.0,0.0,0.0,0.0,0.0,0.0,0.0,0.0,0.0,0.0,0.0,0.0,0.0,0.0,0.0,0.0,0.0,0.0,0.0,0.0,0.0,0.0,0.0,0.0,0.0,0.0,0.0,0.0,0.0,0.0,0.0,0.0,0.0,0.0,0.0,0.0,0.0,0.0,0.0,0.0,0.0,0.0,0.0,0.0,0.0,0.0,0.0,0.0,0.0,0.0,0.0,0.0,0.0,0.0,0.0,0.0,0.0,0.0,0.0,0.0,0.0,0.0,0.0,0.0,0.0,0.0,0.0,0.0,0.0,0.0,0.0,0.0,0.0,6.371,6.5141,6.6185,6.6185,6.6165,6.6144,6.6144,6.6097,6.545,6.4039,0.0,0.0,0.0,0.0,0.0,0.0,0.0,0.0,0.0,0.0,0.0,0.0,0.0,0.0,0.0,0.0,0.0,0.0,0.0,0.0,0.0,0.0,0.0,0.0,0.0,0.0,0.0,0.0,0.0,0.0,0.0,0.0,0.0,0.0,0.0,0.0,0.0,0.0,0.0,0.0,0.0,0.0,0.0,0.0,0.0,0.0,0.0,0.0,0.0,0.0,0.0,0.0,0.0,0.0,0.0,0.0,0.0,0.0,0.0,0.0,0.0,0.0,0.0,0.0,0.0,0.0,0.0,0.0,0.0,0.0,0.0,0.0,0.0,0.0,0.0,0.0,0.0,0.0,0.0,0.0,0.0,0.0,0.0,0.0,0.0,0.0,0.0,0.0,0.0,0.0,0.0,0.0,0.0,0.0,0.0,0.0,0.0,0.0,0.0,0.0,0.0,0.0,6.371,6.5141,6.6185,6.6185,6.6185,6.6185,6.6185,6.6123,6.5732,6.4878,0.0,0.0,0.0,0.0,0.0,0.0,0.0,0.0,0.0,0.0,0.0,0.0,0.0,0.0,0.0,0.0,0.0,0.0,0.0,0.0,0.0,0.0,0.0,0.0,0.0,0.0,0.0,0.0,0.0,0.0,0.0,0.0,0.0,0.0,0.0,0.0,0.0,0.0,0.0,0.0,0.0,0.0,0.0,0.0,0.0,0.0,0.0,0.0,0.0,0.0,0.0,0.0,0.0,0.0,0.0,0.0,0.0,0.0,0.0,0.0,6.3265,6.224,0.0,0.0,0.0,0.0,0.0,0.0,0.0,0.0,0.0,0.0,0.0,0.0,0.0,0.0,0.0,0.0,0.0,0.0,0.0,0.0,0.0,0.0,0.0,0.0,0.0,0.0,0.0,0.0,0.0,0.0,0.0,0.0,0.0,0.0,0.0,0.0,0.0,0.0,0.0,0.0,6.371,6.5141,6.6185,6.6185,6.6185,6.6185,6.6185,6.6123,6.5754,6.4921,6.4646,0.0,0.0,0.0,0.0,0.0,0.0,0.0,0.0,0.0,0.0,0.0,0.0,0.0,0.0,0.0,0.0,0.0,0.0,0.0,0.0,0.0,0.0,0.0,0.0,0.0,0.0,0.0,0.0,0.0,0.0,0.0,0.0,0.0,0.0,0.0,0.0,0.0,0.0,0.0,0.0,0.0,0.0,0.0,0.0,0.0,0.0,0.0,0.0,0.0,0.0,0.0,0.0,0.0,0.0,0.0,0.0,0.0,0.0,0.0,6.392,6.3303,0.0,0.0,0.0,0.0,0.0,0.0,0.0,0.0,0.0,0.0,0.0,0.0,0.0,0.0,0.0,0.0,0.0,0.0,0.0,0.0,0.0,0.0,0.0,0.0,0.0,0.0,0.0,0.0,0.0,0.0,0.0,0.0,0.0,0.0,0.0,0.0,0.0,0.0,0.0,0.0,6.371,6.5141,6.6185,6.6185,6.6185,6.6185,6.6185,6.6165,6.5968,6.5522,6.5076,0.0,0.0,0.0,0.0,0.0,0.0,0.0,0.0,0.0,0.0,0.0,0.0,0.0,0.0,0.0,0.0,0.0,0.0,0.0,0.0,0.0,0.0,0.0,0.0,0.0,0.0,0.0,0.0,0.0,0.0,0.0,0.0,0.0,0.0,0.0,0.0,0.0,0.0,0.0,0.0,0.0,0.0,0.0,0.0,0.0,0.0,0.0,0.0,0.0,0.0,0.0,0.0,0.0,6.2885,6.3351,6.4045,6.4207,6.4666,6.5319,6.4598,6.4619,6.4966,6.3478,0.0,0.0,0.0,0.0,0.0,0.0,0.0,0.0,0.0,0.0,0.0,0.0,0.0,0.0,0.0,0.0,0.0,0.0,0.0,0.0,0.0,0.0,6.193,6.3362,6.4251,6.4599,6.4058,0.0,0.0,0.0,0.0,0.0,0.0,0.0,0.0,0.0,0.0,0.0,6.3903,6.5257,6.6185,6.6185,6.6185,6.6185,6.6185,6.6185,6.6165,6.6123,6.5505,6.4711,0.0,0.0,0.0,0.0,0.0,0.0,0.0,0.0,0.0,0.0,0.0,0.0,0.0,0.0,0.0,0.0,0.0,0.0,0.0,0.0,0.0,0.0,0.0,0.0,0.0,0.0,0.0,0.0,0.0,0.0,0.0,0.0,5.9744,5.9934,0.0,0.0,0.0,0.0,0.0,0.0,0.0,0.0,0.0,0.0,0.0,0.0,0.0,5.9996,5.9996,6.1694,6.2627,6.2878,6.3593,6.404,6.4293,6.5042,6.5445,6.5601,6.6018,0.0,6.5082,6.4793,0.0,0.0,0.0,0.0,0.0,0.0,0.0,0.0,0.0,0.0,0.0,0.0,0.0,0.0,0.0,0.0,0.0,0.0,0.0,0.0,0.0,0.0,6.34,6.3632,6.3787,6.4058,6.4677,6.4213,6.3671,6.3555,6.3516,6.3245,0.0,0.0,0.0,0.0,0.0,0.0,6.4715,6.5644,6.6185,6.6185,6.6185,6.6185,6.6185,6.6185,6.6185,6.6185,6.6088,6.5642,6.4749,6.39,0.0,0.0,0.0,0.0,0.0,0.0,0.0,0.0,0.0,0.0,0.0,0.0,0.0,0.0,0.0,0.0,0.0,0.0,0.0,0.0,0.0,0.0,0.0,0.0,0.0,0.0,0.0,0.0,0.0,5.8351,5.8776,5.9258,5.887,5.8226,0.0,0.0,0.0,0.0,0.0,0.0,0.0,0.0,0.0,5.9339,5.9916,6.0419,6.0886,6.1742,6.2413,6.2976,6.331,6.3773,6.4297,6.4714,6.4857,6.4891,6.5051,6.4895,6.4522,6.487,6.4561,6.3826,0.0,0.0,0.0,0.0,6.2085,6.1698,6.1776,6.1814,6.1582,5.9978,0.0,0.0,0.0,0.0,0.0,0.0,0.0,5.9571,6.1214,6.1949,6.2472,6.3458,6.369,6.3806,6.4174,6.4329,6.4406,6.4406,6.4019,6.34,6.2549,6.282,0.0,0.0,0.0,6.4561,6.4948,6.5682,6.6185,6.6185,6.6185,6.6185,6.6185,6.6185,6.6185,6.6185,6.6185,6.6031,6.5642,6.4286,6.3218,0.0,0.0,0.0,0.0,0.0,0.0,0.0,0.0,0.0,0.0,0.0,0.0,0.0,0.0,0.0,0.0,0.0,0.0,0.0,0.0,0.0,0.0,0.0,0.0,0.0,0.0,0.0,0.0,5.8235,5.8269,5.8622,5.8348,5.7751,0.0,0.0,0.0,0.0,0.0,0.0,5.9065,5.9086,5.9487,6.0328,6.0549,6.0923,6.1582,6.1654,6.2031,6.2656,6.2656,6.3008,6.3633,6.3867,6.3984,6.3984,6.3989,6.4014,6.4039,6.4503,6.4522,6.4251,6.3632,6.282,6.2085,6.2317,6.2008,6.1543,6.2201,6.2394,6.2221,6.1119,6.0635,6.0267,5.9261,0.0,0.0,0.0,0.0,5.9261,6.0729,6.1098,6.1427,6.2723,6.3033,6.311,6.3342,6.371,6.4213,6.487,6.4638,6.4058,6.3207,6.3594,0.0,6.3168,6.4174,6.5064,6.5257,6.5837,6.6185,6.6185,6.6185,6.6185,6.6185,6.6185,6.6185,6.6185,6.6185,6.6185,6.6185,6.4904,6.426,6.447,0.0,0.0,0.0,0.0,0.0,0.0,0.0,0.0,0.0,0.0,0.0,0.0,0.0,0.0,0.0,0.0,0.0,0.0,0.0,0.0,0.0,0.0,0.0,0.0,0.0,0.0,0.0,0.0,0.0,5.8968,5.9488,0.0,0.0,0.0,0.0,5.8831,5.888,5.9254,6.0089,6.011,6.0492,6.1315,6.1462,6.1562,6.1582,6.1654,6.1719,6.1758,6.1758,6.1797,6.1875,6.2695,6.3086,6.3086,6.3715,6.3988,6.3999,6.3845,6.3284,6.2549,6.2472,6.193,6.1273,6.2085,6.2356,6.2356,6.2375,6.2414,6.2143,6.048,5.9398,5.8874,5.9591,5.9243,0.0,0.0,5.9839,6.0014,6.0886,6.1118,6.1118,6.1195,6.1234,6.1466,6.2297,6.1872,6.2046,6.4522,6.5566,6.5837,6.5025,0.0,6.4909,6.487,6.4948,6.5257,6.6031,6.6185,6.6185,6.6185,6.6185,6.6185,6.6185,6.6185,6.6185,6.6185,6.6185,6.6185,6.6185,6.6046,6.523,6.3582,6.4232,0.0,0.0,0.0,0.0,0.0,0.0,0.0,0.0,0.0,0.0,0.0,0.0,0.0,0.0,0.0,0.0,0.0,0.0,0.0,0.0,0.0,0.0,0.0,0.0,0.0,0.0,0.0,0.0,5.9778,6.0024,0.0,5.8987,5.9374,5.9753,5.9799,6.034,6.0753,6.1062,6.1109,6.1229,6.15,6.1637,6.1641,6.1641,6.167,6.1719,6.1719,6.1719,6.1719,6.1719,6.2031,6.2148,6.2187,6.2272,6.2329,6.2297,6.2085,6.2511,6.3226,6.3245,6.2704,6.195,6.2278,6.2046,6.1582,6.1582,6.1582,6.1466,6.0867,6.046,6.0267,6.0576,6.046,6.0267,6.0576,6.0672,6.0731,6.1041,6.1118,6.1118,6.1118,6.1118,6.1195,6.1505,6.1756,6.2375,6.3884,6.4367,6.4677,6.4948,6.5412,6.5605,6.5064,6.545,6.5876,6.6147,6.6185,6.6185,6.6185,6.6185,6.6185,6.6185,6.6185,6.6185,6.6185,6.6185,6.6185,6.6185,6.6102,6.5727,6.5126,6.5341,6.3921,0.0,0.0,0.0,0.0,0.0,0.0,0.0,0.0,0.0,0.0,0.0,0.0,0.0,0.0,0.0,0.0,0.0,0.0,0.0,0.0,0.0,0.0,0.0,0.0,0.0,5.9629,6.0134,5.9793,6.0313,6.0336,5.9469,6.0205,6.0732,6.0783,6.1295,6.164,6.164,6.1612,6.1615,6.1615,6.1686,6.1719,6.1719,6.1719,6.1719,6.1719,6.1719,6.1719,6.1719,6.1719,6.1719,6.1679,6.149,6.139,6.1389,6.1195,6.1776,6.2801,6.282,6.2472,6.195,6.1969,6.1621,6.1118,6.1118,6.1118,6.1118,6.1118,6.1118,6.1118,6.1118,6.1118,6.1118,6.1118,6.1118,6.1118,6.1118,6.1118,6.1118,6.1118,6.1118,6.1118,6.1118,6.1543,6.222,6.3071,6.3748,6.4406,6.5257,6.5837,6.5915,6.5102,6.5682,6.6108,6.5837,6.6031,6.6185,6.6185,6.6185,6.6185,6.6185,6.5953,6.5915,6.6185,6.5953,6.5915,6.6185,6.581,6.5589,6.5589,6.551,6.4205,6.1627,0.0,0.0,0.0,0.0,0.0,0.0,0.0,0.0,0.0,0.0,0.0,0.0,0.0,0.0,0.0,0.0,0.0,0.0,0.0,0.0,0.0,0.0,0.0,5.9056,5.9715,5.9919,5.91,6.0417,6.1117,6.0406,6.1113,6.1616,6.1717,6.1719,6.1719,6.1719,6.1719,6.1719,6.1719,6.1719,6.1719,6.1719,6.1719,6.1758,6.1758,6.1758,6.1797,6.1797,6.1758,6.1758,6.1719,6.1484,6.14,6.1389,6.1195,6.1118,6.1118,6.1118,6.1118,6.1118,6.1118,6.1118,6.1118,6.1118,6.1118,6.1118,6.1118,6.1118,6.1118,6.1118,6.1118,6.1118,6.1118,6.1118,6.1118,6.1118,6.1118,6.1118,6.1118,6.1118,6.1118,6.1118,6.1118,6.135,6.222,6.3787,6.5198,6.6031,6.6185,6.5953,6.5141,6.5682,0.0,6.5141,6.5721,6.6185,6.6185,6.6185,6.6185,6.6185,6.5489,6.5373,6.6147,6.545,6.5373,6.6185,6.5308,6.4817,6.4817,6.4663,6.4128,6.332,0.0,0.0,0.0,0.0,0.0,0.0,0.0,0.0,0.0,0.0,0.0,0.0,0.0,0.0,0.0,0.0,0.0,0.0,0.0,0.0,0.0,5.956,6.0195,5.9968,6.0722,6.1201,6.0967,6.1358,6.1545,6.133,6.152,6.1694,6.1718,6.1719,6.1719,6.1719,6.1719,6.1719,6.1719,6.1719,6.1719,6.1719,6.2344,6.2656,6.2656,6.3281,6.3594,6.3555,6.293,6.2656,6.2617,6.1758,6.14,6.1389,6.1195,6.1118,6.1118,6.1118,6.1118,6.1118,6.1118,6.1118,6.1118,6.1118,6.1118,6.1118,6.1118,6.1118,6.1118,6.1118,6.1118,6.1118,6.1118,6.1118,6.1118,6.1118,6.1118,6.1118,6.1118,6.1118,6.1118,6.1118,6.1118,6.135,6.222,6.3303,6.4348,6.5159,6.5799,6.6147,6.6031,6.6108,6.6147,6.6031,6.6108,6.6185,6.6185,6.6185,6.6185,6.6185,6.5992,6.5953,6.6185,6.5992,6.5953,6.6185,6.5848,6.5658,6.5601,6.4345,6.3551,0.0,0.0,0.0,0.0,0.0,0.0,0.0,0.0,0.0,0.0,0.0,0.0,0.0,0.0,0.0,0.0,0.0,0.0,0.0,0.0,0.0,0.0,6.0311,6.0889,6.0886,6.1352,6.1717,6.1717,6.1718,6.1719,6.1719,6.1719,6.1719,6.1719,6.1719,6.1719,6.1719,6.2031,6.2226,6.2226,6.2617,6.2773,6.2773,6.3281,6.3359,6.3008,6.3515,6.3555,6.3203,6.2695,6.2461,6.2422,6.1705,6.1589,6.191,6.1311,6.1311,6.1621,0.0,0.0,0.0,0.0,6.1118,6.1118,6.1118,6.1118,6.1118,6.1118,6.1118,6.1118,6.1118,6.1118,6.1118,6.1118,6.1118,6.1118,6.1118,6.1118,6.1118,6.1118,6.1118,6.1118,6.1118,6.1118,6.135,6.2297,6.3168,0.0,6.4966,6.5721,6.6108,6.5915,6.6087,6.6179,6.5896,6.6108,6.6263,6.6224,6.6185,6.6185,6.6185,6.5876,0.0,0.0,0.0,6.5662,6.5621,6.5556,0.0,0.0,0.0,6.4012,6.4397,6.3233,0.0,0.0,6.2167,6.1988,0.0,0.0,0.0,0.0,0.0,0.0,0.0,0.0,0.0,0.0,0.0,0.0,0.0,0.0,0.0,0.0,6.1134,6.172,6.172,6.1697,6.1707,6.1707,6.1715,6.1718,6.1719,6.1719,6.1719,6.1719,6.1797,6.1836,6.1836,6.2578,0.0,0.0,0.0,6.4023,6.4023,6.4101,6.3789,6.3008,6.3086,6.2734,6.1992,6.1875,6.1836,6.1835,6.1538,6.1833,6.2491,6.1621,6.1698,6.2297,6.1427,6.1118,6.1118,6.1118,6.1118,6.1118,6.1118,0.0,0.0,6.1118,6.1118,6.1118,6.1118,6.1118,6.1118,6.1118,6.1118,6.1118,6.1118,6.1118,6.1118,6.1118,6.1118,6.1118,6.1118,6.1118,6.1427,6.2413,6.3284,6.4135,6.5141,6.5799,6.6031,6.5391,6.5917,6.6139,6.5364,6.5935,6.634,6.6224,6.6185,0.0,6.6185,6.5528,6.545,6.6147,6.5528,6.51,6.4955,6.4933,6.4887,6.4743,6.4743,6.5128,6.5897,6.5897,6.5728,6.5321,6.2826,6.2559,0.0,0.0,0.0,0.0,0.0,0.0,0.0,0.0,0.0,0.0,0.0,0.0,0.0,0.0,0.0,6.0358,6.1134,6.172,6.172,6.1686,6.1686,6.1686,6.169,6.1704,6.1718,6.1719,6.1719,6.1719,6.2344,6.2734,6.2734,6.289,6.3008,6.3008,6.2461,6.2187,6.2187,6.2917,6.3152,6.3008,6.3711,0.0,6.3789,6.3086,6.2734,6.2695,6.181,6.1505,6.166,6.2008,6.2259,6.2297,6.1427,6.1118,6.1118,6.1118,6.1118,6.1118,6.1118,6.1118,6.1118,6.1118,6.1118,6.1118,6.1118,6.1118,0.0,6.1118,6.1118,6.1118,6.1118,6.1118,6.1118,6.1118,6.1118,6.1118,6.1234,6.1273,6.1543,6.2491,6.3361,6.4251,6.5141,6.5915,6.6379,6.6379,6.6383,6.636,6.6336,6.6347,6.634,6.6224,6.6185,6.6185,6.6185,6.6069,6.6031,6.6185,6.6031,6.5912,6.5781,6.5781,6.5712,6.5628,6.5628,6.5743,6.5897,6.5897,6.5872,6.5781,6.5229,6.5005,0.0,0.0,0.0,0.0,0.0,0.0,0.0,0.0,0.0,0.0,0.0,5.923,5.9676,0.0,6.0544,6.0974,6.1408,6.172,6.172,6.172,6.172,6.172,6.172,6.169,6.1707,6.21,6.2334,6.2334,6.2764,6.2998,6.2998,6.2998,6.2998,6.2998,6.2998,6.2998,6.2998,6.3451,6.3451,6.2998,6.3428,6.3428,6.2998,6.2568,6.234,6.2343,6.2199,6.2375,6.2762,6.3419,6.3438,6.2994,6.2568,6.1872,6.1118,6.1118,6.1118,6.1118,6.1118,6.1118,6.1118,6.1118,6.1118,6.1118,6.1118,6.1118,6.1118,6.1118,6.1118,6.1118,6.1118,6.1118,6.1118,6.1195,6.1195,6.1234,6.1311,6.1356,6.1763,6.3175,6.3799,6.4539,6.5855,6.6361,6.6594,6.669,6.6579,6.654,6.6601,6.6501,6.634,6.6224,6.6185,6.6185,6.6185,6.6185,6.6185,6.6185,6.6185,6.6144,6.6013,6.6013,6.5982,6.5897,6.5897,6.5897,6.5897,6.5897,6.5781,6.5608,6.5808,6.5781,0.0,0.0,0.0,0.0,0.0,0.0,0.0,5.8441,5.8553,5.9417,5.9612,5.9807,6.0505,6.0661,6.0895,6.1603,6.172,6.172,6.172,6.172,6.172,6.172,6.172,6.1759,6.1954,6.2423,6.2813,6.3008,6.3008,6.3008,6.3003,6.3003,6.3008,6.3008,6.3516,6.3867,6.4062,6.4062,6.3789,6.3243,6.3243,6.2891,6.2228,6.2228,6.2209,6.2226,6.2863,6.3524,6.4251,6.4793,6.4598,6.3941,6.3961,6.2994,6.1563,6.1427,6.1234,6.1118,6.1118,6.1118,6.1118,6.1118,6.1118,6.1118,6.1118,6.1118,6.1118,6.1118,6.1118,6.1118,6.1118,6.1157,6.1157,6.1273,6.1475,6.1609,6.1686,6.1829,6.2461,6.414,6.4453,6.5,6.6601,6.6797,6.6735,6.6733,6.6681,6.66,6.6582,6.6503,6.6379,6.6224,6.6185,6.6185,6.6185,6.6185,6.6185,6.6185,6.6185,6.6144,6.6013,6.6013,6.5982,6.5897,6.5897,6.5897,6.5897,6.5897,6.5755,6.5427,6.5755,6.5872,5.7753,5.7483,5.7941,5.8749,5.8936,5.9366,0.0,6.0666,6.0349,6.1213,6.1408,6.1447,6.1525,6.1564,6.1603,6.1681,6.172,6.172,6.172,6.172,6.172,6.172,6.172,6.1993,6.2774,6.2228,6.2189,6.2925,6.3003,6.3008,6.3008,6.3008,6.3008,6.3008,6.2345,6.2345,6.3125,6.3164,6.3477,6.414,6.414,6.4101,6.4023,6.4023,6.4028,6.3998,6.3906,6.4285,6.4966,6.5005,6.4927,6.485,6.485,6.427,6.3322,6.2549,6.1756,6.1118,6.1118,6.1118,6.1118,6.1118,6.1118,6.1118,6.1118,6.1118,6.1118,6.1118,6.1118,6.1118,6.1234,6.1273,6.1311,6.135,6.1967,6.2571,6.2688,6.3358,6.4219,6.5234,6.543,6.5742,6.6719,6.6875,6.6874,6.6869,6.6756,6.6687,6.66,6.6593,6.6456,6.6224,6.6185,6.6185,6.6185,6.6185,6.6185,6.6185,6.6185,6.6144,6.6013,6.6013,6.5982,6.5897,6.5897,6.5897,6.5897,6.5897,6.5897,6.5808,6.5897,6.5728,5.9181,5.8802,5.871,5.962,5.9841,6.0041,6.0783,6.0666,6.0661,6.1525,6.172,6.172,6.172,6.172,6.172,6.172,6.172,6.172,6.172,6.172,6.1876,6.2384,6.1993,6.1837,6.2228,6.2813,6.3164,6.3008,6.3008,6.3008,6.3008,6.3008,6.3008,6.3008,6.3125,6.3399,6.375,6.375,6.3945,6.4297,6.4297,6.4297,6.4297,6.4297,6.457,6.5038,6.4903,6.5217,6.5915,6.5837,6.576,6.5721,6.5721,6.5198,6.4347,6.3497,6.2935,6.253,6.2027,6.1872,6.1794,6.1273,6.1118,6.1118,6.1118,6.1118,6.1118,6.1195,6.1234,6.135,6.1949,6.2121,6.2282,6.2867,6.3295,6.3594,6.3672,6.3984,6.4531,6.543,6.5586,6.5898,6.6758,6.6914,6.6914,6.6914,6.6797,6.6683,6.6611,6.6533,6.6417,6.6224,6.6185,6.6185,6.6185,6.6185,6.6185,6.6185,6.6185,6.6144,6.6058,6.6036,6.6005,6.5972,6.5923,6.5897,6.5897,6.5897,6.5897,6.5897,6.5897,6.5808,5.9749,5.9538,5.93,6.0193,6.0583,6.0739,6.0739,6.0739,6.0934,6.1564,6.172,6.172,6.172,6.172,6.172,6.172,6.172,6.172,6.172,6.1915,6.2189,6.2579,6.2501,6.2228,6.1759,6.2852,6.3516,6.336,6.3125,6.3086,6.336,6.336,6.336,6.336,6.3984,6.4414,6.4648,6.4648,6.4765,6.4999,6.4999,6.4999,6.4999,6.4999,6.5312,6.5936,6.5819,6.6049,6.6542,6.6456,6.6379,6.6263,6.6224,6.5876,6.5275,6.4619,6.4096,6.3613,6.2975,6.2762,6.2646,6.2027,6.1833,6.1833,6.1833,6.1833,6.1872,6.1949,6.2012,6.2224,6.2938,6.3123,6.3281,6.4062,6.4414,6.4609,6.4648,6.4844,6.5195,6.5859,6.5976,6.6172,6.6797,6.6914,6.6914,6.6914,6.6836,6.6722,6.6611,6.6456,6.6301,6.6224,6.6185,6.6185,6.6185,6.6185,6.6185,6.6185,6.6185,6.6165,6.6102,6.6036,6.599,6.5996,6.5947,6.5897,6.5897,6.5897,6.5897,6.5897,6.5897,6.5897,5.8762,5.9016,5.9217,6.0154,6.1052,6.1681,6.1681,6.1681,6.1681,6.1681,6.172,6.172,6.172,6.172,6.172,6.172,6.172,6.172,6.172,6.2423,6.2657,6.1837,6.3204,6.3555,6.1876,6.1759,6.2462,6.414,6.3477,6.336,6.4219,6.4258,6.4258,6.4258,6.4297,6.4726,6.5546,6.5546,6.5936,6.6717,6.6717,6.6717,6.6717,6.6717,6.6756,6.6756,6.6678,6.6683,6.6667,6.6542,6.6495,6.6456,6.634,6.6263,6.6263,6.6147,6.5082,6.3709,6.3747,6.371,6.3671,6.3709,6.3671,6.3593,6.3593,6.3671,6.3728,6.3728,6.3818,6.3945,6.4101,6.414,6.418,6.4258,6.4922,6.5547,6.5547,6.6211,6.6836,6.6875,6.6875,6.6875,6.6914,6.6914,6.6914,6.6914,6.6914,6.6839,6.665,6.6379,6.6185,6.6185,6.6185,6.6185,6.6185,6.6185,6.6185,6.6185,6.6185,6.6165,6.6102,6.6036,6.599,6.5996,6.5947,6.5897,6.5897,6.5897,6.5897,6.5897,6.5897,6.5897,5.8944,5.9503,6.0154,6.1052,6.1486,6.172,6.172,6.172,6.172,6.172,6.172,6.172,6.172,6.172,6.172,6.172,6.172,6.172,6.172,6.1954,6.2228,6.2535,6.2579,6.2813,6.336,6.3438,6.3438,6.3438,6.3711,6.3984,6.4297,6.4843,6.5155,6.5155,6.5663,6.6092,6.6405,6.6405,6.6522,6.6795,6.6795,6.6795,6.6795,6.6795,6.6795,6.6795,6.6795,6.6678,6.6575,6.6603,6.6503,6.6309,6.6347,6.629,6.6224,6.6224,6.5837,6.5275,6.4773,6.4571,6.4454,6.3902,6.3729,6.369,6.3729,6.3767,6.3842,6.4012,6.4083,6.4219,6.4922,6.5117,6.5273,6.5898,6.625,6.6445,6.6445,6.668,6.6914,6.6914,6.6914,6.6914,6.6914,6.6914,6.6914,6.6914,6.6797,6.6683,6.6611,6.6379,6.6185,6.6185,6.6185,6.6185,6.6185,6.6185,6.6185,6.6185,6.6185,6.6185,6.6165,6.6058,6.599,6.6029,6.5909,6.5897,6.5897,6.5897,6.5897,6.5897,6.5947,6.5947,5.9329,5.9963,6.0622,6.1486,6.172,6.172,6.172,6.172,6.172,6.172,6.1447,6.133,6.1642,6.1447,6.133,6.1642,6.172,6.172,6.172,6.1954,6.2267,6.2496,6.2579,6.2969,6.375,6.4414,6.4531,6.3984,6.4453,6.4882,6.5194,6.5702,6.6014,6.6014,6.6522,6.6795,6.6795,6.6795,6.6795,6.6795,6.6795,6.6795,6.6795,6.6795,6.6795,6.6795,6.6795,6.6717,6.6614,6.672,6.6602,6.6408,6.6451,6.6406,6.6301,6.6263,6.6224,6.6147,6.5624,6.5446,6.5319,6.4812,6.4657,6.4695,6.4734,6.4765,6.4877,6.5029,6.5117,6.5234,6.5894,6.6053,6.6211,6.6758,6.6914,6.6914,6.6914,6.6912,6.6908,6.6908,6.6912,6.6914,6.6914,6.6914,6.6914,6.6914,6.6719,6.6605,6.6611,6.6379,6.6185,6.6185,6.6185,6.6185,6.6185,6.6185,6.6185,6.6185,6.6185,6.6185,6.6185,6.6102,6.6036,6.6013,6.5958,6.5923,6.5897,6.5923,6.5947,6.5947,6.5958,6.5982,5.9841,6.0388,6.0661,6.1486,6.172,6.172,6.172,6.172,6.1681,6.1642,6.0978,6.0622,6.1408,6.0934,6.0661,6.1486,6.1681,6.172,6.172,6.2423,6.2657,6.1876,0.0,0.0,0.0,6.4648,6.5624,6.5663,6.5663,6.5975,6.6756,6.6795,6.6795,6.6795,6.6795,6.6795,6.6795,6.6795,6.6795,6.6795,6.6795,6.6795,6.6795,6.6795,6.6795,6.6795,6.6795,6.6795,6.6813,6.6789,6.6786,6.6755,6.6631,6.6555,6.6496,6.636,6.6263,6.6224,6.6301,6.6263,6.6224,6.6263,6.634,6.6399,6.64,6.6556,6.6719,6.6718,6.6797,6.6912,6.6887,6.6904,6.6914,6.6914,6.6914,6.6914,6.6914,6.6901,6.6912,6.6912,6.6906,6.6914,6.6914,6.6914,6.6914,6.6914,6.6719,6.6605,6.6611,6.6379,6.6185,6.6185,6.6185,6.6185,6.6185,6.6185,6.6185,6.6185,6.6185,6.6185,6.6185,6.6123,6.608,6.6013,6.6005,6.5972,6.5923,6.5972,6.602,6.602,6.599,6.6013,6.0232,6.0856,6.1408,6.1642,6.172,6.172,6.172,6.172,6.1525,6.0856,6.0549,6.0276,5.9846,6.0119,6.0466,6.0705,6.1291,6.172,6.172,6.1876,6.2189,6.2618,0.0,6.375,6.4843,6.5351,6.5858,6.6444,6.6483,6.6561,6.6795,6.6795,6.6795,6.6795,6.6795,6.6795,6.6795,6.6795,6.6795,6.6795,6.6795,6.6795,6.6795,6.6795,6.6795,6.6795,6.6795,6.6756,6.6722,6.6797,6.6717,6.6562,6.6657,6.6611,6.6517,6.6456,6.6417,6.6417,6.6417,6.6417,6.634,6.6379,6.6417,6.6495,6.6572,6.6667,6.6718,6.682,6.6852,6.6852,6.6878,6.6844,6.6852,6.6891,6.6891,6.6891,6.6891,6.6844,6.6834,6.6873,6.6906,6.6914,6.6914,6.6914,6.6914,6.6914,6.6719,6.6605,6.6611,6.6379,6.6185,6.6185,6.6185,6.6185,6.6185,6.6185,6.6185,6.6185,6.6185,6.6185,6.6185,6.6123,6.6102,6.608,6.6013,6.5967,6.5967,6.5967,6.599,6.599,6.6058,6.6058,6.0856,6.133,6.172,6.172,6.172,6.1603,6.1213,6.1134,6.0861,6.0002,5.9534,5.9226,5.9104,5.9495,5.9963,6.0354,6.1134,6.172,6.172,6.2032,6.2462,0.0,6.3672,0.0,6.5507,6.5936,6.6327,6.6756,6.6795,6.6795,6.6795,6.6795,6.6795,6.6795,6.6795,6.6795,6.6795,6.6795,6.6795,6.6795,6.6795,6.6795,6.6795,6.6795,6.6795,6.6795,6.6795,6.6795,6.6756,6.6795,6.6735,6.6633,6.6711,6.668,6.657,6.6543,6.6516,6.6516,6.6516,6.6516,6.6508,6.6477,6.6507,6.6588,6.668,6.6711,6.6747,6.6844,6.6834,6.6795,6.6834,6.6834,6.6795,6.6834,6.6873,6.6873,6.6873,6.6834,6.6795,6.6834,6.6895,6.691,6.6914,6.6914,6.6914,6.6914,6.6758,6.6644,6.6611,6.6379,6.6185,6.6185,6.6185,6.6185,6.6185,6.6185,6.6185,6.6185,6.6185,6.6185,6.6185,6.6165,6.6123,6.6102,6.6058,6.6036,6.6013,6.6036,6.6036,6.6058,6.6102,6.6123,6.1486,6.172,6.172,6.172,6.172,6.1486,6.0592,6.0397,6.0124,5.9143,5.8324,5.8011,5.8636,5.8948,5.9339,6.008,6.1056,6.1759,6.1876,6.254,6.3086,6.3321,6.4687,6.5624,6.5741,6.6405,6.6795,6.6795,6.6795,6.6795,6.6795,6.6795,6.6795,6.6795,6.6795,6.6795,6.6795,6.6795,6.6795,6.6795,6.6795,6.6795,6.6795,6.6795,6.6795,6.6795,6.6795,6.6795,6.6795,6.6795,6.6795,6.6795,6.6795,6.6756,6.6696,6.6655,6.6595,6.6517,6.6556,6.6624,6.6674,6.656,6.6591,6.6717,6.6717,6.6756,6.6795,6.6795,6.6795,6.6795,6.6795,6.6795,6.6795,6.6795,6.6795,6.6795,6.6795,6.6795,6.6795,6.6795,6.6834,6.6887,6.6872,6.6875,6.6914,6.6914,6.6797,6.6683,6.6611,6.6379,6.6224,6.6185,6.6185,6.6185,6.6185,6.6185,6.6185,6.6185,6.6185,6.6185,6.6185,6.6185,6.6165,6.6102,6.6102,6.608,6.6036,6.608,6.6102,6.6102,6.6165,6.6185,6.1681,6.172,6.172,6.172,6.172,6.1486,6.0588,6.0397,5.9968,5.8363,5.7894,5.7621,5.7113,5.8168,5.9143,5.93,6.0666,6.1954,6.2657,6.2891,6.3516,0.0,6.5429,6.5858,6.6522,6.6717,6.6795,6.6795,6.6795,6.6795,6.6795,6.6795,6.6795,6.6795,6.6795,6.6795,6.6795,6.6795,6.6795,6.6795,6.6795,6.6795,6.6795,6.6795,6.6795,6.6795,6.6795,6.6795,6.6795,6.6795,6.6795,6.6795,6.6795,6.6795,6.6774,6.6772,6.6712,6.6673,6.6751,6.6761,6.6787,6.6696,6.6727,6.6795,6.6795,6.6795,6.6795,6.6795,6.6795,6.6795,6.6795,6.6795,6.6795,6.6795,6.6795,6.6795,6.6795,6.6795,6.6795,6.6795,6.6795,6.6839,6.6809,6.6869,6.6914,6.6914,6.6797,6.6683,6.6611,6.6456,6.6301,6.6224,6.6185,6.6185,6.6185,6.6185,6.6185,6.6185,6.6185,6.6185,6.6185,6.6185,6.6185,6.6165,6.6165,6.6165,6.6165,6.6165,6.6165,6.6165,6.6185,6.6185,6.172,6.172,6.172,6.172,6.172,6.1369,6.0041,5.9729,5.9226,5.7543,5.7192,5.7074,5.6684,5.7582,5.8558,5.9026,6.0198,6.1486,6.2813,6.3399,6.414,6.5468,6.5975,6.6366,6.6756,6.6795,6.6795,6.6795,6.6795,6.6795,6.6795,6.6795,6.6795,6.6795,6.6795,6.6795,6.6795,6.6795,6.6795,6.6795,6.6795,6.6795,6.6795,6.6795,6.6795,6.6795,6.6795,6.6795,6.6795,6.6795,6.6795,6.6795,6.6795,6.6795,6.6805,6.6796,6.6789,6.6742,6.6806,6.6817,6.6795,6.6756,6.6756,6.6795,6.6795,6.6795,6.6795,6.6795,6.6795,6.6795,6.6795,6.6795,6.6795,6.6795,6.6795,6.6795,6.6795,6.6795,6.6795,6.6795,6.6795,6.6795,6.6795,6.6813,6.6865,6.6904,6.6833,6.6906,6.7179,6.7176,6.6902,6.6263,6.6611,6.6861,6.6882,6.7307,6.7539,6.7539,6.7114,6.6882,6.6882,6.6456,6.6185,6.6185,6.6185,6.6185,6.6185,6.6185,6.6185,6.6185,6.6185,6.6185,6.172,6.172,6.172,6.172,6.172,6.1252,5.9495,5.9104,5.8636,5.6957,5.6606,5.6606,5.6606,5.7426,5.8285,5.8987,6.0002,6.1291,6.3047,6.3867,6.4687,6.5741,6.6405,6.6795,6.6795,6.6795,6.6795,6.6795,6.6795,6.6795,6.6795,6.6795,6.6795,6.6795,6.6795,6.6795,6.6795,6.6795,6.6795,6.6795,6.6795,6.6795,6.6795,6.6795,6.6795,6.6795,6.6795,6.6795,6.6795,6.6795,6.6795,6.6795,6.6795,6.6795,6.6795,6.6795,6.6795,6.6813,6.6809,6.6793,6.6795,6.6795,6.6795,6.6795,6.6795,6.6795,6.6795,6.6795,6.6795,6.6795,6.6795,6.6795,6.6795,6.6795,6.6795,6.6795,6.6795,6.6795,6.6795,6.6795,6.6795,6.6795,6.6795,6.6795,6.6873,6.7107,6.714,6.7383,6.8008,6.8098,6.7733,6.6843,6.7364,6.7789,6.7789,6.8429,6.8816,6.8816,6.8158,6.7771,6.7771,6.7114,6.6688,6.6495,6.6495,6.6379,6.6185,6.6185,6.6185,6.6185,6.6185,6.6185,6.172,6.172,6.172,6.172,6.172,6.1252,5.9495,5.9104,5.8636,5.6957,5.6606,5.6606,5.6606,5.7894,5.9026,5.9104,6.051,6.2189,6.3945,6.4258,6.4882,6.6483,6.6756,6.6795,6.6795,6.6795,6.6795,6.6795,6.6795,6.6795,6.6795,6.6795,6.6795,6.6795,6.6795,6.6795,6.6795,6.6795,6.6795,6.6795,6.6795,6.6795,6.6795,6.6795,6.6795,6.6795,6.6795,6.6795,6.6795,6.6795,6.6795,6.6795,6.6795,6.6795,6.6795,6.6795,6.6795,6.68,6.6813,6.6809,6.6795,6.6795,6.6795,6.6795,6.6795,6.6795,6.6795,6.6795,6.6795,6.6795,6.6795,6.6795,6.6795,6.6795,6.6795,6.6795,6.6795,6.6795,6.6795,6.6795,6.6795,6.6795,6.6795,6.6795,6.7068,6.7849,6.8,6.8242,6.8906,6.8968,6.885,6.858,6.8622,6.8682,6.8657,6.8756,6.8794,6.8816,6.8738,6.87,6.87,6.8622,6.8197,6.7384,6.7384,6.6998,6.6185,6.6185,6.6185,6.6185,6.6185,6.6185,6.1564,6.172,6.172,6.172,6.172,6.1252,5.9495,5.9104,5.8636,5.6957,5.6996,5.7309,5.7309,5.8285,5.9261,5.9807,6.0471,6.1525,6.3282,6.3984,6.4726,6.5936,6.6522,6.6795,6.6795,6.6795,6.6795,6.6795,6.6795,6.6795,6.6795,6.6795,6.6795,6.6795,6.6795,6.6795,6.6795,6.6795,6.6795,6.6795,6.6795,6.6795,6.6795,6.6795,6.6795,6.6795,6.6795,6.6795,6.6795,6.6795,6.6795,6.6795,6.6795,6.6795,6.6795,6.6795,6.6795,6.6795,6.6795,6.6795,6.6795,6.6795,6.6795,6.6795,6.6795,6.6795,6.6795,6.6795,6.6795,6.6795,6.6795,6.6795,6.6795,6.6795,6.6795,6.6795,6.6795,6.6795,6.6795,6.6795,6.6795,6.6795,6.6795,6.7224,6.7693,6.8049,6.8547,6.914,6.9922,6.9915,7.0032,7.038,6.9899,6.9512,6.9529,6.9993,7.0286,7.0286,6.9821,6.9512,6.9512,6.9048,6.8661,6.8274,6.8274,6.7849,6.6998,6.6998,6.6727,6.6185,6.6185,6.6185,6.1134,6.1486,6.172,6.172,6.1525,6.0939,5.9456,5.9104,5.8675,5.727,5.7621,5.8168,5.8168,5.8909,5.969,6.0315,6.0627,6.1408,6.3125,6.3672,6.4336,6.5468,6.5858,6.617,6.6405,6.6678,6.6795,6.6795,6.6795,6.6795,6.6795,6.6795,6.6795,6.6795,6.6795,6.6795,6.6795,6.6795,6.6795,6.6795,6.6795,6.6795,6.6795,6.6795,6.6795,6.6795,6.6795,6.6795,6.6795,6.6795,6.6795,6.6795,6.6795,6.6795,6.6795,6.6795,6.6795,6.6795,6.6795,6.6795,6.6795,6.6795,6.6795,6.6795,6.6795,6.6795,6.6795,6.6795,6.6795,6.6795,6.6795,6.6795,6.6795,6.6795,6.6795,6.6795,6.6795,6.6795,6.6795,6.6795,6.699,6.7185,6.7185,6.7888,6.8557,6.8825,6.9406,7.0078,7.0859,7.0849,7.0982,7.1446,7.0827,7.038,7.038,7.0943,7.1291,7.1291,7.0711,7.0363,7.0363,6.9821,6.9435,6.9164,6.9164,6.8738,6.7887,6.7617,6.7191,6.6572,6.6301,6.6185,6.0393,6.1056,6.172,6.172,6.1056,6.0198,5.93,5.9104,5.887,5.7972,5.848,5.9104,5.9104,5.9807,6.0393,6.0393,6.1134,6.2306,6.4023,6.3555,6.3672,6.539,6.4843,6.4648,6.5546,6.6327,6.6795,6.6795,6.6795,6.6795,6.6795,6.6795,6.6795,6.6795,6.6795,6.6795,6.6795,6.6795,6.6795,6.6795,6.6795,6.6795,6.6795,6.6795,6.6795,6.6795,6.6795,6.6795,6.6795,6.6795,6.6795,6.6795,6.6795,6.6795,6.6795,6.6795,6.6795,6.6795,6.6795,6.6795,6.6795,6.6795,6.6795,6.6795,6.6795,6.6795,6.6795,6.6795,6.6795,6.6795,6.6795,6.6795,6.6795,6.6795,6.6795,6.6795,6.6795,6.6795,6.6795,6.6795,6.7498,6.8088,6.8088,6.883,6.9689,7.0543,7.0695,7.0937,7.168,7.1719,7.164,7.1485,7.1369,7.1291,7.1291,7.1291,7.1291,7.1291,7.1291,7.1291,7.1291,7.1291,7.0866,6.9976,6.9976,6.9589,6.8777,6.7926,6.7501,6.7462,6.6611,6.6185,5.9339,5.9729,5.9924,5.9924,5.9729,5.9456,5.9143,5.9104,5.9026,5.8753,5.9378,6.0002,6.0002,6.0705,6.1291,6.1291,6.2032,6.2774,6.3321,6.4219,6.4999,6.5546,6.5858,6.6131,6.6405,6.6639,6.6795,6.6795,6.6795,6.6795,6.6795,6.6795,6.6795,6.6795,6.6795,6.6795,6.6795,6.6795,6.6795,6.6795,6.6795,6.6795,6.6795,6.6795,6.6795,6.6795,6.6795,6.6795,6.6795,6.6795,6.6795,6.6795,6.6795,6.6795,6.6795,6.6795,6.6795,6.6795,6.6795,6.6795,6.6795,6.6795,6.6795,6.6795,6.6795,6.6795,6.6795,6.6795,6.6795,6.6795,6.6795,6.6795,6.6795,6.6795,6.6795,6.6795,6.6795,6.6795,6.699,6.7576,6.7888,6.8279,6.8903,6.9723,7.0387,7.066,7.1202,7.168,7.1914,7.1811,7.1672,7.1647,7.1407,7.1291,7.1291,7.1291,7.1291,7.1291,7.1291,7.1291,7.1291,7.1291,7.1175,7.0905,7.0905,7.0479,6.9628,6.9319,6.8622,6.7501,6.723,6.6766,5.8363,5.887,5.9104,5.9104,5.9104,5.9104,5.9104,5.9339,5.9573,5.9573,6.0276,6.09,6.09,6.133,6.172,6.172,6.2149,6.2735,6.3399,6.414,6.4726,6.5077,6.5858,6.6366,6.6366,6.66,6.6795,6.6795,6.6795,6.6795,6.6795,6.6795,6.6795,6.6795,6.6795,6.6795,6.6795,6.6795,6.6795,6.6795,6.6795,6.6795,6.6795,6.6795,6.6795,6.6795,6.6795,6.6795,0.0,6.6795,6.6795,6.6795,6.6795,6.6795,6.6795,6.6795,6.6795,6.6795,6.6795,6.6795,6.6795,6.6795,6.6795,6.6795,6.6795,6.6795,6.6795,6.6795,6.6795,6.6795,6.6795,6.6795,6.6795,6.6795,6.6795,6.6795,6.6795,6.7068,6.7459,6.801,6.863,6.9255,6.9801,7.0621,7.1206,7.1206,7.1662,7.1988,7.1992,7.1836,7.1714,7.1706,7.1446,7.1291,7.1291,7.1291,7.1291,7.1291,7.1291,7.1291,7.1291,7.1291,7.1291,7.1291,7.1291,7.1021,7.0479,7.017,6.9319,6.8003,6.8003,6.7539,0.0,5.8324,5.8948,5.8987,5.9026,5.9026,5.9143,5.9807,0.0,6.0471,6.1134,6.172,6.172,6.172,6.172,6.172,6.1793,6.2457,6.4062,6.3711,6.3555,6.4375,6.5194,6.5702,6.5702,6.6366,6.6795,6.6795,6.6795,6.6795,6.6795,6.6795,6.6795,6.6795,6.6795,6.6795,6.6795,6.6795,6.6795,6.6795,6.6795,6.6795,6.6795,6.6795,6.6795,6.6795,6.6795,6.6795,6.6795,6.6795,6.6795,6.6795,6.6795,6.6795,6.6795,6.6795,6.6795,6.6795,6.6795,6.6795,6.6795,6.6795,6.6795,6.6795,6.6795,6.6795,6.6795,6.6795,6.6795,6.6795,6.6795,6.6795,6.6795,6.6795,6.6834,6.6873,6.6873,6.7576,6.8205,6.8279,6.9606,7.0738,7.0777,7.1441,7.1987,7.1987,7.1987,7.2006,7.1992,7.1836,7.1714,7.1706,7.1446,7.1291,7.1291,7.1291,7.1291,7.1291,7.1291,7.1291,7.1291,7.1291,7.1291,7.1291,7.1291,7.1291,7.1291,7.0479,6.9667,6.8893,6.8893,6.8429,5.684,0.0,5.7348,5.7933,5.8128,5.8441,0.0,6.0237,0.0,0.0,0.0,6.172,6.172,6.172,6.172,6.172,6.2792,6.3761,6.4258,6.5234,6.5975,6.617,6.6405,6.6522,6.6522,6.6678,6.6795,6.6795,6.6795,6.6795,6.6795,6.6795,6.6795,6.6795,6.6795,6.6795,6.6795,6.6795,6.6795,6.6795,6.6795,6.6795,6.6795,6.6795,6.6795,6.6795,6.6795,6.6795,6.6795,6.6795,6.6795,6.6795,6.6795,6.6795,6.6795,6.6795,6.6795,6.6795,6.6795,6.6795,6.6795,6.6795,6.6795,6.6795,6.6795,6.6795,6.6795,6.6795,6.6795,6.6795,6.6795,6.6795,6.6795,6.6795,6.7303,6.7771,6.7771,6.8479,6.9299,6.9957,7.0426,7.0894,7.1597,7.187,7.1987,7.1987,7.1987,7.2006,7.1992,7.1875,7.1792,7.1784,7.1562,7.1446,7.1446,7.1369,7.1291,7.1291,7.1291,7.1291,7.1291,7.1291,7.1291,7.1291,7.1291,7.1291,7.1291,7.1098,7.0556,6.9705,6.9705,6.928,5.6606,5.6879,5.727,5.7699,5.8402,5.9222,6.0198,0.0,0.0,0.0,0.0,6.1676,6.1666,6.1972,6.2245,6.2245,6.3304,6.4302,6.4755,6.5932,6.6759,6.6811,6.6811,6.6778,6.6795,6.6795,6.6795,6.6795,6.6795,6.6795,6.6795,6.6795,6.6795,6.6795,6.6795,6.6795,6.6795,6.6795,6.6795,6.6795,6.6795,6.6795,6.6795,6.6795,6.6795,6.6795,6.6795,6.6795,6.6795,6.6795,6.6795,6.6795,6.6795,6.6795,6.6795,6.6795,6.6795,6.6795,6.6795,6.6795,6.6795,6.6795,6.6795,6.6795,6.6795,6.6795,6.6795,6.6795,6.6795,6.6795,6.6795,6.6795,6.6912,6.7303,6.7771,6.82,6.8591,6.9372,7.0152,7.0621,7.1011,7.1441,7.1909,7.1987,7.1987,7.1987,7.1987,7.1997,7.1981,7.1873,7.1783,7.1817,7.1684,7.1562,7.1485,7.1407,7.1369,7.1291,7.1291,7.1291,7.1291,7.1291,7.1291,7.1291,7.1291,7.1291,7.1291,7.1291,7.1059,7.0595,7.0595,7.0131,5.6714,5.7333,5.7952,5.8007,5.9222,6.0432,6.0544,0.0,0.0,0.0,0.0,0.0,6.1736,6.236,0.0,6.3015,6.3769,6.4598,6.5455,6.6234,6.6722,6.6767,6.6775,6.6791,6.6778,6.6784,6.6784,6.6784,6.6784,6.679,6.679,6.6795,6.6795,6.6795,6.6795,6.6795,6.6795,6.6795,6.6795,6.6795,6.6795,6.6795,6.6795,6.6795,6.6795,6.6795,6.6795,6.6795,6.6795,6.6795,6.6795,6.6795,6.6795,6.6795,6.6795,6.6795,6.6795,6.6795,6.6795,6.6795,6.6795,6.6795,6.6795,6.6795,6.6795,6.6795,6.6795,6.6795,6.6795,6.6795,6.6795,6.6912,6.7185,6.7927,6.8279,6.8708,6.945,7.027,7.0894,7.0894,7.148,7.1987,7.1987,7.1987,7.1987,7.1987,7.1987,7.1987,7.1987,7.1903,7.1835,7.1836,7.1782,7.1668,7.1551,7.1489,7.1446,7.1291,7.1291,7.1291,7.1291,7.1291,7.1291,7.1291,7.1291,7.1291,7.1291,7.1291,7.1291,7.1291,7.1291,7.0905,5.7346,5.8033,5.8608,5.885,5.9651,6.0583,6.1257,0.0,0.0,0.0,0.0,0.0,0.0,6.2658,6.3,6.3573,6.4527,6.5483,6.6295,6.6563,6.6712,6.6722,6.6722,6.6722,6.6732,6.6732,6.6732,6.6732,6.6775,6.6791,6.6791,6.6784,6.6795,6.6795,6.6795,6.6795,6.6795,6.6795,6.6795,6.6795,6.6795,6.6795,6.6795,6.6795,6.6795,6.6795,6.6795,6.6795,6.6795,6.6795,6.6795,6.6795,6.6795,6.6795,6.6795,6.6795,6.6795,6.6795,6.6795,6.6795,6.6795,6.6795,6.6795,6.6795,6.6795,6.6795,6.6795,6.6795,6.6795,6.6795,6.6795,6.7342,6.7927,6.8088,6.9215,7.0348,7.0465,7.1206,7.1792,7.1792,7.1909,7.1987,7.1987,7.1987,7.1987,7.1987,7.1987,7.1987,7.1987,7.1997,7.1975,7.1953,7.187,7.1758,7.168,7.1589,7.1446,7.1291,7.1291,7.1291,7.1291,7.1291,7.1291,7.1291,7.1291,7.1291,7.1291,7.1291,7.1291,7.1291,7.1291,7.1214,5.7594,5.8537,5.9425,5.9562,6.0176,6.0806,6.12,0.0,0.0,0.0,0.0,0.0,0.0,6.2963,6.3687,6.4829,6.5403,6.584,6.6221,6.6384,6.6461,6.6503,6.6594,6.668,6.6702,6.6732,6.675,6.675,6.6791,6.6811,6.6811,6.679,6.6795,6.6795,6.6795,6.6795,6.6795,6.6795,6.6795,6.6795,6.6795,6.6795,6.6795,6.6795,6.6795,6.6795,6.6795,6.6795,6.6795,6.6795,6.6795,6.6795,6.6795,6.6795,6.6795,6.6795,6.6795,6.6795,6.6795,6.6795,6.6795,6.6795,6.6795,6.6795,6.6795,6.6795,6.6912,6.7381,6.7146,6.6912,6.7381,6.781,6.8357,6.9294,7.0113,7.0816,7.1285,7.1714,7.1987,7.1987,7.1987,7.1987,7.1987,7.1987,7.1987,7.1987,7.1987,7.1987,7.1987,7.1987,7.2163,7.2656,7.2642,7.2752,7.3146,7.3044,7.2491,7.1369,7.1291,7.1291,7.1291,7.1291,7.1291,7.1291,7.1291,7.1291,7.1291,7.1291,7.1291,7.1291,7.1291,7.1291,5.8048,5.8972,5.9894,6.0088,6.0577,6.1026,6.0993,0.0,0.0,0.0,0.0,0.0,6.2758,6.3669,6.4619,6.5826,6.6024,6.6007,6.5997,6.6105,6.6167,6.6242,6.6384,6.6475,6.6555,6.6641,6.6673,6.6732,6.6736,6.6766,6.6766,6.6772,6.6778,6.6784,6.6784,6.679,6.6795,6.6795,6.6795,6.6795,6.6795,6.6795,6.6795,6.6795,6.6795,6.6795,6.6795,6.6795,6.6795,6.6795,6.6795,6.6795,6.6795,6.6795,6.6795,6.6795,6.6795,6.6795,6.6795,6.6795,6.6795,6.6795,6.6795,6.6834,6.7029,6.7107,6.7303,6.8166,6.7927,6.7576,6.8245,6.8552,6.9059,7.0387,7.0855,7.1206,7.187,7.1987,7.1987,7.1987,7.1987,7.1987,7.1987,7.1987,7.1987,7.1987,7.1987,7.2065,7.226,7.23,7.2627,7.3511,7.3593,7.3816,7.4361,7.4254,7.3535,7.2026,7.1523,7.1291,7.1291,7.1291,7.1291,7.1291,7.1291,7.1291,7.1291,7.1291,7.1291,7.1291,7.1291,7.1291,5.909,5.9447,5.9619,6.0373,6.077,0.0,6.1,6.1002,0.0,6.1888,0.0,0.0,0.0,6.5,6.5667,6.5951,6.5997,6.5997,6.5974,6.5997,6.5997,6.6019,6.6019,6.6105,6.6205,6.6224,6.6334,6.6524,6.6569,6.6606,6.6606,6.6652,6.6741,6.6783,6.6791,6.6805,6.6795,6.6795,6.6795,6.6795,6.6795,6.6795,6.6795,6.6795,6.6795,6.6795,6.6795,6.6795,6.6795,6.6795,6.6795,6.6795,6.6795,6.6795,6.6795,6.6795,6.6795,6.6795,6.6795,6.6795,6.6795,6.6795,6.6795,6.6951,6.7771,6.801,6.8205,6.9064,6.9255,6.9215,6.9299,6.9918,7.0543,7.066,7.1324,7.1909,7.1987,7.1987,7.1987,7.1987,7.1987,7.1987,7.1987,7.1987,7.1987,7.1987,7.1987,7.23,7.308,7.3197,7.3554,7.4418,7.4525,7.448,7.4397,7.4231,7.4038,7.3906,7.2258,7.1291,7.1291,7.1291,7.1291,7.1291,7.1291,7.1291,7.1291,7.1291,7.1291,7.1291,7.1291,7.1291,5.932,5.9865,6.0224,6.0531,0.0,0.0,0.0,0.0,6.1632,6.2565,6.2781,0.0,0.0,6.5033,6.5552,6.5635,6.5635,6.5635,6.5635,6.5705,6.5807,6.5807,6.5905,6.6041,6.6167,6.6242,6.6329,6.6528,6.6606,6.668,6.668,6.6702,6.6722,6.6741,6.6741,6.675,6.6728,6.6791,6.6805,6.6805,6.679,6.6795,6.6795,6.6795,6.6795,6.6795,6.6795,6.6795,6.6795,6.6795,6.6795,6.6795,6.6795,6.6795,6.6795,6.6795,6.6795,6.6795,6.6795,6.6795,6.6795,6.6795,6.7185,6.7654,6.801,6.8474,6.9098,6.9957,7.0191,7.023,7.0191,7.0465,7.0855,7.1363,7.1753,7.1987,7.1987,7.1987,7.1987,7.1987,7.1987,7.1987,7.1987,7.1987,7.2182,7.2729,7.2807,7.3119,7.3945,7.4056,7.4369,7.5266,7.5853,7.6165,7.6045,7.5444,7.5005,7.485,7.3109,7.2104,7.2104,7.1601,7.1291,7.1291,7.1291,7.1291,7.1291,7.1291,7.1291,7.1291,7.1291,7.1291,5.965,6.0186,6.0585,0.0,0.0,0.0,6.2166,6.2013,6.1965,6.3242,6.3729,6.4074,6.4611,6.5111,6.5413,6.5413,6.5413,6.5413,6.5413,6.5523,6.5608,6.5608,6.5743,6.5905,6.6126,6.6187,6.6295,6.6542,6.6594,6.6657,6.6657,6.6657,6.6669,6.668,6.668,6.6691,6.6712,6.6759,6.6783,6.6783,6.6784,6.6795,6.6795,6.6795,6.6795,6.6795,6.6795,6.6795,6.6795,6.6795,6.6795,6.6795,6.6795,6.6795,6.6795,6.6795,6.6795,6.6834,6.7107,6.7224,6.7264,6.7537,6.801,6.8557,6.8825,6.9333,6.9996,7.0855,7.1128,7.1128,7.1128,7.1128,7.1245,7.187,7.1987,7.1987,7.1987,7.1987,7.1987,7.1987,7.1987,7.1987,7.1987,7.2221,7.2612,7.3197,7.351,7.3978,7.4798,7.4915,7.5227,7.6125,7.679,7.7148,7.707,7.6478,7.6022,7.5799,7.4319,7.3187,7.2607,7.2026,7.1562,7.1291,7.1291,7.1291,7.1291,7.1291,7.1291,7.1291,7.1291,7.1291,6.0196,6.037,6.0599,0.0,0.0,0.0,6.3809,6.2853,6.2128,6.3847,6.484,6.5413,6.5413,6.5413,6.5413,6.5413,6.5413,6.5413,6.5413,6.5413,6.5413,6.5413,6.5413,6.5552,6.5951,6.6013,6.6126,6.6493,6.6508,6.6508,6.6508,6.6508,6.6538,6.6581,6.6581,6.6618,6.6712,6.6759,6.6783,6.6783,6.6778,6.6795,6.6795,6.6795,6.6795,6.6795,6.6795,6.6795,6.6795,6.6795,6.6795,6.6795,6.6795,6.6795,6.6795,6.6795,6.6795,6.6951,6.781,6.8127,6.8245,6.9103,6.9416,6.9572,7.0426,7.0699,7.0894,7.1753,7.1987,7.1987,7.1987,7.1987,7.1987,7.1987,7.1987,7.1987,7.1987,7.1987,7.1987,7.1987,7.2026,7.2026,7.2026,7.2729,7.3315,7.3315,7.4017,7.4831,7.5696,7.5813,7.6125,7.7023,7.71,7.7148,7.7187,7.707,7.6938,7.6816,7.5857,7.4502,7.2684,7.2607,7.2181,7.133,7.1291,7.1291,7.1291,7.1291,7.1291,7.1291,7.1291,7.1291,5.9415,5.9911,0.0,6.1402,0.0,0.0,0.0,6.3809,0.0,0.0,6.5222,6.5413,6.5413,6.5413,6.5413,6.5413,6.5413,6.5413,6.5413,6.5413,6.5413,6.5413,6.5413,6.5494,6.5756,6.582,6.5881,6.6126,6.6225,6.6299,6.6299,6.6422,6.6524,6.6538,6.6538,6.6553,6.6581,6.6645,6.668,6.6641,6.6767,6.6811,6.6795,6.6795,6.6795,6.6795,6.6795,6.6795,6.6795,6.6795,6.6795,6.6795,6.6795,6.6795,6.6873,6.7498,6.7693,6.7849,6.8713,6.902,6.9059,6.9333,6.9801,7.0348,7.0621,7.1128,7.1675,7.1948,7.1987,7.1987,7.1987,7.1987,7.1987,7.1987,7.1987,7.1987,7.1987,7.1987,7.1987,7.1987,7.2495,7.2924,7.2924,7.3588,7.433,7.4954,7.5266,7.5735,7.6594,7.6711,7.6828,7.7062,7.7117,7.7137,7.7187,7.7148,7.7094,7.6933,7.6652,7.5856,7.4425,7.3806,7.3109,7.222,7.222,7.191,7.1291,7.1291,7.1291,7.1291,7.1291,7.1291,5.9606,6.0217,0.0,6.1898,6.2395,6.2968,6.4344,0.0,0.0,0.0,6.5413,6.5413,6.5413,6.5413,6.5413,6.5413,6.5413,6.5413,6.5413,6.5413,6.5413,6.5413,6.5413,6.5465,6.569,6.5717,6.5756,6.5974,6.6084,6.6128,6.6187,6.6316,6.6422,6.6508,6.6508,6.6508,6.6508,6.6581,6.6581,6.6581,6.6722,6.6767,6.6759,6.6784,6.6795,6.6795,6.6795,6.6795,6.6795,6.6795,6.6795,6.6834,6.7185,6.7303,6.742,6.8284,6.863,6.8747,6.9606,6.9918,6.9957,7.0309,7.0777,7.1206,7.1206,7.1597,7.1987,7.1987,7.1987,7.1987,7.1987,7.1987,7.1987,7.1987,7.1987,7.1987,7.1987,7.1987,7.2104,7.2456,7.2924,7.3393,7.3705,7.4486,7.5188,7.5735,7.6086,7.6516,7.7023,7.7101,7.7101,7.7101,7.7101,7.7117,7.7178,7.7187,7.7137,7.7004,7.6982,7.6643,7.5798,7.4939,7.4077,7.3226,7.3148,7.2684,7.1833,7.1833,7.164,7.1291,7.1291,7.1291,6.0408,6.0981,6.1822,6.2777,6.3656,6.4496,6.5222,6.5413,6.5413,6.5413,6.5413,6.5413,6.5413,6.5413,6.5413,6.549,6.5452,6.5413,6.549,6.5452,6.5413,6.5413,6.5413,6.5465,6.5663,6.569,6.5769,6.5928,6.5951,6.6019,6.6148,6.6167,6.6281,6.6493,6.6508,6.6508,6.6508,6.6542,6.6569,6.6569,6.668,6.6702,6.6702,6.6759,6.6795,6.6795,6.6795,6.6795,6.6795,6.6873,6.6912,6.699,6.7888,6.82,6.8318,6.9221,6.9528,6.9645,7.0504,7.0816,7.0933,7.1753,7.1987,7.1987,7.1987,7.1987,7.1987,7.1987,7.1987,7.1987,7.1987,7.1987,7.1987,7.1987,7.1987,7.1987,7.1987,7.2065,7.2339,7.3158,7.3432,7.3744,7.4486,7.5345,7.593,7.593,7.6594,7.7101,7.7101,7.7101,7.7101,7.7101,7.7101,7.7101,7.7101,7.7178,7.7144,7.7028,7.7026,7.6962,7.6832,7.5915,7.5028,7.4208,7.4077,7.3574,7.2723,7.2723,7.2258,7.1407,7.1407,7.1369,6.0408,6.0981,6.1975,6.3541,6.4535,6.5184,6.5375,6.5413,6.5413,6.5413,6.5413,6.5413,6.5413,6.5413,6.5605,6.633,6.5834,6.5643,6.633,6.5834,6.5413,6.5413,6.5413,6.5444,6.5435,6.5465,6.5465,6.5523,6.569,6.5756,6.5807,6.6046,6.6205,6.6281,6.6422,6.6508,6.6508,6.6524,6.6538,6.6538,6.6569,6.6606,6.6645,6.6759,6.6811,6.6795,6.6795,6.6795,6.6834,6.7537,6.781,6.7927,6.8786,6.9137,6.9215,7.0113,7.0426,7.0543,7.1402,7.1714,7.1753,7.1948,7.1987,7.1987,7.1987,7.1987,7.1987,7.1987,7.1987,7.1987,7.1987,7.1987,7.1987,7.1987,7.1987,7.1987,7.1987,7.2534,7.308,7.3275,7.4369,7.5305,7.5501,7.6242,7.6828,7.6828,7.6984,7.7101,7.7101,7.7101,7.7101,7.7101,7.7101,7.7101,7.7101,7.7112,7.7137,7.7145,7.7169,7.716,7.7116,7.6591,7.5935,7.5082,7.4928,7.4425,7.3612,7.3612,7.3187,7.2336,7.2336,7.1949,6.0867,6.1593,6.2624,6.4344,6.507,6.5413,6.5413,6.5413,6.5413,6.5413,6.5413,6.5413,6.5413,6.5757,6.6178,6.6636,6.633,6.6178,6.6636,6.5948,6.5413,6.5413,6.5413,6.5413,6.5413,6.5413,6.5413,6.5413,6.5494,6.5608,6.5717,6.5881,6.6024,6.6187,6.6299,6.6406,6.6508,6.6508,6.6508,6.6508,6.6553,6.6594,6.6581,6.6712,6.6767,6.6783,6.7195,6.7358,6.7442,6.8351,6.8708,6.8825,6.9684,7.0035,7.0113,7.1011,7.1324,7.1402,7.1831,7.1987,7.1987,7.1987,7.1987,7.1987,7.1987,7.1987,7.1987,7.1987,7.1987,7.1987,7.1987,7.23,7.2612,7.2612,7.2612,7.2612,7.2612,7.3275,7.3978,7.4408,7.5188,7.593,7.636,7.6789,7.7101,7.7101,7.7101,7.7101,7.7101,7.7101,7.7101,7.7101,7.7101,7.7101,7.7101,7.7101,7.7112,7.7137,7.7144,7.7187,7.7218,7.6926,7.6537,7.6011,7.5895,7.5353,7.4463,7.4463,7.4038,7.3226,7.3226,7.2993,6.1363,6.2357,6.3503,6.5031,6.5413,6.5413,6.5413,6.5413,6.5452,6.5605,6.5605,6.5605,6.5605,6.633,6.698,6.7095,6.6904,6.6751,6.6904,6.6025,6.5413,6.5413,6.5413,6.5413,6.5413,6.5413,6.5413,6.5413,6.5413,6.5465,6.5635,6.569,6.5856,6.6187,6.6167,6.6299,6.6508,6.6508,6.6508,6.6508,6.6664,6.6733,6.6802,6.7008,6.7042,6.6985,6.7851,6.8219,6.8297,6.9237,6.96,6.9678,7.0582,7.0933,7.1011,7.1714,7.1987,7.1987,7.1987,7.1987,7.1987,7.1987,7.1987,7.1987,7.1987,7.1987,7.1987,7.1987,7.2104,7.2221,7.2221,7.2846,7.351,7.351,7.3627,7.3705,7.3549,7.4134,7.4954,7.5657,7.593,7.6242,7.6984,7.7101,7.7101,7.7101,7.7101,7.7101,7.7101,7.7101,7.7101,7.7101,7.7101,7.7101,7.7101,7.7101,7.7101,7.7101,7.7083,7.7139,7.7186,7.7087,7.6983,7.6845,7.6698,7.6165,7.5314,7.5314,7.4889,7.4115,7.4138,7.406,6.1363,6.2777,6.4229,6.5184,6.5413,6.5413,6.5413,6.5413,6.5605,6.6369,6.6522,6.6522,6.6522,6.7171,6.7973,6.8738,6.7668,6.6942,6.763,6.6369,6.5413,6.5413,6.5413,6.5413,6.5413,6.5413,6.5413,6.5413,6.5413,6.5413,6.5435,6.5608,6.5782,6.6019,6.6167,6.6299,6.6508,6.6508,6.6508,6.6508,6.7285,6.765,6.765,6.8443,6.8436,6.7881,6.8699,6.906,6.9099,7.0052,7.0458,7.0544,7.1468,7.1831,7.1831,7.1948,7.1987,7.1987,7.1987,7.1987,7.1987,7.1987,7.1987,7.1987,7.1987,7.1987,7.1987,7.1987,7.2534,7.3119,7.3119,7.3744,7.433,7.433,7.4915,7.5266,7.4486,7.5032,7.5657,7.5774,7.6399,7.6945,7.7062,7.7101,7.7101,7.7101,7.7101,7.7101,7.7101,7.7101,7.7101,7.7101,7.7101,7.7101,7.7101,7.7101,7.7101,7.7101,7.7107,7.7107,7.7112,7.71,7.7061,7.6955,7.673,7.6475,7.6243,7.6243,7.5779,7.4928,7.5077,7.4689,6.1975,6.3236,6.4382,6.5184,6.5413,6.5413,6.5413,6.5796,6.6254,6.6636,6.7439,6.7935,6.7477,6.805,6.8738,6.912,6.8585,6.805,6.7897,6.6865,6.5948,6.5452,6.5413,6.5413,6.5413,6.5413,6.5413,6.5413,6.5413,6.5413,6.5413,6.5465,6.5635,6.5846,6.5905,6.6046,6.6316,6.6316,6.6639,6.7247,6.8101,6.8529,6.8567,6.9383,6.9337,6.867,6.9526,6.9862,6.994,7.0892,7.1273,7.1312,7.172,7.1916,7.1948,7.1948,7.1987,7.1987,7.1987,7.1987,7.1987,7.1987,7.1987,7.1987,7.1987,7.1987,7.2104,7.2573,7.3002,7.3393,7.3861,7.4603,7.5227,7.5227,7.5891,7.6438,7.6047,7.6242,7.6516,7.6516,7.6828,7.7101,7.7101,7.7101,7.7101,7.7101,7.7101,7.7101,7.7101,7.7101,7.7101,7.7101,7.7101,7.7101,7.7101,7.7101,7.7101,7.7101,7.7101,7.7101,7.7101,7.7112,7.7068,7.6984,7.687,7.6747,7.663,7.6552,7.632,7.5933,7.5924,7.5708,6.2433,6.3388,6.4076,6.4879,6.5261,6.5452,6.5681,6.6216,6.6827,6.7247,6.8317,6.9043,6.8623,6.9082,6.9502,6.9502,6.9311,6.889,6.8012,6.7209,6.6369,6.549,6.5413,6.5413,6.5413,6.5413,6.5413,6.5413,6.5413,6.5413,6.5413,6.5413,6.5494,6.5717,6.5717,6.5856,6.6167,6.636,6.698,6.8053,6.8946,6.9373,6.9373,7.0222,7.0299,6.9683,7.0401,7.0679,7.077,7.1497,7.1767,7.1778,7.1838,7.1854,7.1948,7.1948,7.1948,7.1987,7.1987,7.1987,7.1987,7.1987,7.1987,7.2026,7.226,7.2339,7.2495,7.3354,7.3744,7.4056,7.4681,7.5501,7.6125,7.6125,7.6633,7.7101,7.7101,7.7101,7.7101,7.7101,7.7101,7.7101,7.7101,7.7101,7.7101,7.7101,7.7101,7.7101,7.7101,7.7101,7.7101,7.7101,7.7101,7.7101,7.7101,7.7101,7.7101,7.7101,7.7101,7.7101,7.7101,7.7101,7.7091,7.7028,7.7013,7.6936,7.6827,7.6691,7.6632,7.663,7.6594,7.6496,6.2433,6.293,6.3197,6.4038,6.484,6.5605,6.6445,6.6674,6.7171,6.8738,6.912,6.9425,7.0151,7.0304,7.0342,7.0342,6.9693,6.889,6.8012,6.7209,6.6369,6.549,6.5413,6.5413,6.5413,6.5413,6.5413,6.5413,6.5413,6.5413,6.5413,6.5413,6.5494,6.5717,6.5717,6.5782,6.5997,6.6769,6.7686,6.8743,6.9633,7.0059,7.0059,7.1081,7.1413,7.1203,7.143,7.1536,7.1536,7.1651,7.1719,7.1827,7.1867,7.1955,7.1987,7.1987,7.1987,7.1987,7.1987,7.1987,7.1987,7.1987,7.1987,7.2143,7.2963,7.3236,7.3393,7.4218,7.5032,7.5696,7.5735,7.6399,7.7023,7.7023,7.7062,7.7101,7.7101,7.7101,7.7101,7.7101,7.7101,7.7101,7.7101,7.7101,7.7101,7.7101,7.7101,7.7101,7.7101,7.7101,7.7101,7.7101,7.7101,7.7101,7.7101,7.7101,7.7101,7.7101,7.7101,7.7101,7.7101,7.7101,7.7101,7.7107,7.7073,7.6992,7.679,7.679,7.6788,7.6791,7.6839,7.6768,6.1745,6.2089,6.2395,6.3847,6.4802,6.5643,6.6522,6.7515,6.847,6.9082,6.9616,7.0075,7.0342,7.0419,7.0419,7.0419,7.0151,6.9502,6.8088,6.763,6.6942,6.5566,6.5413,6.5413,6.5413,6.5413,6.5413,6.5413,6.5413,6.5413,6.5413,6.5413,6.5405,6.5494,6.5494,6.5838,6.6551,6.8101,6.9046,6.9463,7.0274,7.0699,7.0699,7.1037,7.1192,7.1085,7.1192,7.1278,7.1436,7.1559,7.1486,7.132,7.1448,7.1513,7.1466,7.1511,7.156,7.1682,7.1665,7.1693,7.1768,7.244,7.2628,7.2842,7.3765,7.4056,7.4257,7.5116,7.554,7.593,7.6477,7.6867,7.7101,7.7101,7.7101,7.7101,7.7101,7.7101,7.7101,7.7101,7.7101,7.7101,7.7101,7.7101,7.7101,7.7101,7.7101,7.7101,7.7101,7.7101,7.7101,7.7101,7.7101,7.7101,7.7101,7.7101,7.7101,7.7101,7.7101,7.7101,7.7101,7.7101,7.7101,7.7101,7.7101,7.7048,7.6991,7.6935,7.6939,7.6919,7.6872,7.6819,6.1363,6.1822,6.2319,6.3465,6.4573,6.5681,6.6827,6.7973,6.8929,6.9502,7.0037,7.0419,7.0419,7.0419,7.0419,7.0419,7.0419,6.9922,6.8508,6.8088,6.74,6.5987,6.5566,6.5413,6.5413,6.5413,6.5413,6.5413,6.5413,6.5413,6.5413,6.5413,6.5528,6.5834,6.5834,6.646,6.7678,6.8932,6.9771,7.0119,7.0658,7.0889,7.0889,7.094,7.094,7.0889,7.094,7.1101,7.1214,7.1339,7.1239,7.1062,7.1175,7.1221,7.1184,7.1201,7.1287,7.1388,7.1442,7.1628,7.1979,7.2672,7.3094,7.3508,7.4499,7.4837,7.5038,7.5897,7.6164,7.636,7.6945,7.7101,7.7101,7.7101,7.7101,7.7101,7.7101,7.7101,7.7101,7.7101,7.7101,7.7101,7.7101,7.7101,7.7101,7.7101,7.7101,7.7101,7.7101,7.7101,7.7101,7.7101,7.7101,7.7101,7.7101,7.7101,7.7101,7.7101,7.7101,7.7101,7.7101,7.7101,7.7101,7.7101,7.7101,7.7101,7.7101,7.7067,7.703,7.703,7.6941,7.6883,0.0,0.0,0.0,6.293,6.4191,6.5834,6.7477,6.7897,6.8394,7.0037,7.0381,7.0419,7.0419,7.0419,7.0419,7.0419,7.0419,7.0113,6.9311,6.8432,6.7591,6.6789,6.5948,6.5413,6.5413,6.5413,6.5413,6.5413,6.5413,6.5413,6.5413,6.5413,6.5834,6.6713,6.6751,6.7553,6.9196,6.9234,6.9743,7.071,7.071,7.071,7.071,7.0889,7.0902,7.071,7.0928,7.0965,7.0965,7.1004,7.1023,7.1076,7.1076,7.1123,7.1165,7.1165,7.1204,7.1223,7.1299,7.1899,7.2637,7.2729,7.3333,7.4184,7.5077,7.5495,7.5807,7.6594,7.6945,7.7101,7.7101,7.7101,7.7101,7.7101,7.7101,7.7101,7.7101,7.7101,7.7101,7.7101,7.7101,7.7101,7.7101,7.7101,7.7101,7.7101,7.7101,7.7101,7.7101,7.7101,7.7101,7.7101,7.7101,7.714,7.714,7.714,7.714,7.714,7.7101,7.7101,7.7101,7.7101,7.7101,7.7101,7.7101,7.7101,7.7101,7.7101,7.7101,7.7101,7.7101,7.7016,6.1554,0.0,0.0,0.0,0.0,0.0,6.6789,6.7973,6.8967,6.9425,6.9999,7.0419,7.0419,7.0419,7.0419,7.0419,7.0419,7.0113,6.9311,6.8432,6.7591,6.6789,6.5948,6.5413,6.5413,6.5413,6.5413,6.5413,6.5413,6.5413,6.5413,6.5987,6.6713,6.7553,6.8165,6.8738,6.9196,6.9769,7.0222,7.0477,7.0477,7.0477,7.0477,7.054,7.054,7.0477,7.054,7.057,7.0601,7.0902,7.0837,7.0622,7.0755,7.0783,7.0766,7.0766,7.1178,7.1734,7.1734,7.23,7.3174,7.3983,7.4417,7.485,7.596,7.6379,7.6555,7.6917,7.7062,7.7101,7.7101,7.7101,7.7101,7.7101,7.7101,7.7101,7.7101,7.7101,7.7101,7.7101,7.7101,7.7101,7.7101,7.7101,7.7101,7.7101,7.7101,7.7101,7.7101,7.7101,7.7101,7.7101,7.7648,7.8038,7.8038,7.8038,7.8038,7.8038,7.7453,7.7101,7.7101,7.7101,7.7101,7.7101,7.7101,7.7101,7.7101,7.7101,7.7101,7.7101,7.7101,7.7073,0.0,0.0,0.0,6.4076,0.0,0.0,6.6942,6.7973,6.8852,6.9578,7.0075,7.0419,7.0419,7.0419,7.0419,7.0419,7.0419,7.0228,6.9769,6.8661,6.7706,6.7247,6.6139,6.5413,6.5413,6.5413,6.5413,6.5413,6.5413,6.5566,6.591,6.6751,6.7591,6.8432,6.8929,6.9349,6.9693,7.019,7.0419,7.0419,7.0419,7.0419,7.0419,7.0419,7.0419,7.0419,7.0419,7.0419,7.0419,7.0652,7.0593,7.0419,7.054,7.054,7.056,7.0904,7.1357,7.188,7.2256,7.2984,7.3814,7.4476,7.4938,7.5399,7.6219,7.6514,7.6648,7.6856,7.7023,7.7101,7.7101,7.7101,7.7101,7.7101,7.7101,7.7101,7.7101,7.7101,7.7101,7.7101,7.7101,7.7101,7.7101,7.7101,7.7101,7.7101,7.7101,7.7218,7.7609,7.7648,7.7765,7.8155,7.8624,7.8936,7.8936,7.8936,7.8936,7.8936,7.8468,7.8194,7.8194,7.7843,7.7648,7.7648,7.7296,7.7101,7.7101,7.7101,7.7101,7.7101,7.7101,7.7101,0.0,0.0,0.0,0.0,6.4879,0.0,6.7286,6.7706,6.8203,6.9693,7.0075,7.0113,7.0113,7.0113,7.0113,7.0113,7.019,7.0304,7.0381,6.8967,6.7897,6.7897,6.6407,6.5413,6.5413,6.5413,6.5452,6.5528,6.5643,6.6063,6.6942,6.7668,6.8432,6.9311,6.9311,6.9693,7.0381,7.0419,7.0419,7.0419,7.0419,7.0419,7.0419,7.0419,7.0419,7.0419,7.0419,7.0419,7.0419,7.0495,7.0495,7.0419,7.0533,7.0533,7.0648,7.1527,7.1909,7.2133,7.2926,7.38,7.4528,7.458,7.5111,7.5731,7.6002,7.6167,7.634,7.6627,7.6867,7.7101,7.7101,7.7101,7.7101,7.7101,7.7101,7.7101,7.7101,7.7101,7.7101,7.7101,7.7101,7.7101,7.7101,7.7101,7.7101,7.7101,7.7179,7.7531,7.8311,7.8468,7.8858,7.9639,7.9795,7.9834,7.9834,7.9834,7.9834,7.9834,7.9756,7.9717,7.9717,7.8975,7.8546,7.8546,7.7687,7.7257,7.7257,7.714,7.7101,7.7101,7.7101,7.7101,0.0,0.0,0.0,0.0,6.5261,0.0,6.5796,6.6445,6.7018,6.7362,6.7935,6.8394,6.8394,6.8394,6.8394,6.8394,6.8967,6.9655,7.0304,6.8967,6.7897,6.7897,6.6407,6.5413,6.5413,6.5413,6.5681,6.6407,6.7056,6.7782,6.8661,6.8852,6.9311,7.0151,7.019,7.0228,7.0419,7.0419,7.0419,7.0419,7.0419,7.0419,7.0419,7.0419,7.0419,7.0419,7.0419,7.0419,7.0457,7.1145,7.103,7.0495,7.1183,7.145,7.1527,7.2406,7.317,7.3743,7.3896,7.458,7.5268,7.5302,7.5455,7.5646,7.5872,7.6005,7.613,7.6521,7.6828,7.7023,7.7023,7.7062,7.7101,7.7101,7.7101,7.7101,7.7101,7.7101,7.7101,7.7101,7.7101,7.7101,7.7101,7.7101,7.7101,7.7101,7.7687,7.8194,7.839,7.9014,7.9522,7.9678,8.0341,8.0732,8.0732,8.0732,8.0732,8.0732,8.0107,7.9717,7.9717,7.9522,7.9444,7.9444,7.8585,7.8155,7.8155,7.7453,7.7101,7.7101,7.7101,7.7101,0.0,0.0,0.0,6.5085,0.0,0.0,0.0,6.6407,6.6827,6.7209,6.763,6.7897,6.7897,6.7897,6.7897,6.7897,6.8623,6.9349,6.9731,6.9082,6.8394,6.7935,6.7171,6.6483,6.6101,6.6407,6.6827,6.7286,6.805,6.8738,6.9158,6.9578,6.9999,7.0381,7.0419,7.0419,7.0419,7.0419,7.0419,7.0419,7.0419,7.0419,7.0419,7.0419,7.0419,7.0419,7.0419,7.0648,7.1068,7.1527,7.168,7.1756,7.2176,7.2329,7.2444,7.3284,7.3858,7.4278,7.4698,7.5119,7.5501,7.5501,7.5501,7.5577,7.5803,7.5972,7.6157,7.6349,7.661,7.6788,7.6848,7.6945,7.7062,7.7101,7.7101,7.7101,7.7101,7.7101,7.7101,7.7101,7.7101,7.7101,7.7101,7.7453,7.7765,7.7765,7.8507,7.9209,7.9639,8.0068,8.0498,8.0966,8.1396,8.1669,8.1669,8.1669,8.1669,8.1669,8.1239,8.1005,8.1005,8.0576,8.0146,7.9717,7.9287,7.9053,7.9053,7.8624,7.796,7.7101,7.7101,7.7101,0.0,0.0,0.0,0.0,0.0,6.5566,0.0,0.0,0.0,6.7286,6.74,6.74,6.74,6.74,6.74,6.74,6.8279,6.8929,6.8929,6.9082,6.8929,6.8241,6.8012,6.763,6.698,6.7668,6.8126,6.8126,6.8929,6.9425,6.9425,7.0037,7.0419,7.0419,7.0419,7.0419,7.0419,7.0419,7.0419,7.0419,7.0572,7.0648,7.0648,7.0839,7.0916,7.0916,7.0916,7.1298,7.1947,7.21,7.2597,7.3246,7.3246,7.3246,7.3323,7.4163,7.4469,7.4545,7.5271,7.5501,7.5501,7.5501,7.5501,7.5501,7.5688,7.5918,7.6126,7.6142,7.6359,7.6575,7.6653,7.6809,7.6984,7.7023,7.7062,7.7101,7.7101,7.7101,7.7101,7.7101,7.7257,7.7335,7.7335,7.7921,7.8468,7.8624,7.9405,8.0185,8.0927,8.1161,8.1513,8.2215,8.2293,8.2293,8.2293,8.2293,8.2293,8.2293,8.2293,8.2293,8.2293,8.163,8.0927,8.0224,8.0029,7.9951,7.9951,7.9795,7.8897,7.7335,7.7335,7.7257,0.0,0.0,0.0,0.0,6.5085,0.0,6.5528,0.0,6.5566,6.5681,0.0,6.5681,6.5681,0.0,0.0,6.5681,6.7018,6.805,6.805,6.8699,6.9158,6.9043,6.8356,6.7859,6.7782,6.8547,6.9043,6.9043,6.9807,7.0266,7.0266,7.0342,7.0419,7.0419,7.0419,7.0419,7.0419,7.0419,7.0419,7.0419,7.1183,7.1527,7.1565,7.2329,7.2711,7.2711,7.2711,7.275,7.2902,7.3628,7.3972,7.4049,7.4049,7.4049,7.4163,7.5042,7.5348,7.5348,7.5462,7.5501,7.5501,7.5501,7.5501,7.5501,7.5501,7.5688,7.5841,7.5901,7.6126,7.6348,7.6478,7.6671,7.6828,7.6828,7.6984,7.7101,7.7101,7.7101,7.7101,7.7101,7.7726,7.8233,7.8233,7.8311,7.8663,7.9444,8.0302,8.0888,8.1005,8.1669,8.2176,8.2293,8.2293,8.2293,8.2293,8.2293,8.2293,8.2293,8.2293,8.2293,8.2293,8.2215,8.2098,8.202,8.1239,8.0849,8.0849,8.0068,7.9209,7.8233,7.8233,7.7843,0.0,0.0,0.0,0.0,0.0,0.0,6.5429,6.5413,6.5413,6.5413,0.0,0.0,0.0,0.0,0.0,0.0,6.6407,6.7362,6.7821,6.8661,6.9196,6.9196,6.8432,6.8088,6.8623,6.9425,6.9884,6.9884,7.0228,7.0419,7.0419,7.0419,7.0419,7.0419,7.0419,7.0648,7.1145,7.1145,7.1412,7.1909,7.2291,7.2444,7.2482,7.2826,7.2979,7.2979,7.2979,7.3246,7.3705,7.4049,7.4507,7.4966,7.4966,7.4966,7.5004,7.5348,7.5501,7.5501,7.5501,7.5501,7.5501,7.5501,7.5501,7.5501,7.5501,7.5539,7.5615,7.5653,7.5863,7.6117,7.6212,7.6411,7.6665,7.6786,7.6867,7.6945,7.7062,7.7492,7.7843,7.7843,7.8546,7.9326,7.9834,7.9912,8.0029,8.0381,8.12,8.1747,8.1747,8.2059,8.2293,8.2293,8.2293,8.2293,8.2293,8.2293,8.2293,8.2293,8.2293,8.2293,8.2293,8.2293,8.2293,8.2293,8.1942,8.1747,8.1747,8.1396,8.0771,7.9912,7.9405,7.8975,6.3377,6.402,6.4735,6.4369,6.5003,6.5577,6.5308,6.5404,6.5595,6.5727,6.591,0.0,0.0,0.0,6.6025,6.5796,0.0,6.7171,6.7515,6.8317,6.8929,6.9158,6.8623,6.8585,6.9464,7.0075,7.0419,7.0419,7.0419,7.0419,7.0419,7.0419,7.0533,7.0763,7.0763,7.1183,7.2062,7.2062,7.2367,7.2979,7.3208,7.3323,7.3323,7.359,7.3667,7.3667,7.3667,7.401,7.4545,7.4545,7.4927,7.5501,7.5501,7.5501,7.5501,7.5501,7.5501,7.5501,7.5501,7.5501,7.5501,7.5501,7.5501,7.5501,7.5501,7.5501,7.5501,7.5501,7.5666,7.5818,7.5947,7.6169,7.6469,7.6879,7.7073,7.7257,7.7648,7.8272,7.8741,7.8741,7.9444,8.0263,8.0888,8.1005,8.1083,8.1317,8.1903,8.2293,8.2293,8.2293,8.2293,8.2293,8.2293,8.2293,8.2293,8.2293,8.2293,8.2293,8.2293,8.2293,8.2293,8.2293,8.2293,8.2293,8.2293,8.2293,8.2293,8.2293,8.1981,8.1356,8.0459,7.9912,6.4895,6.5169,6.5493,6.4856,6.4999,6.5231,6.4893,6.5417,6.6129,6.6574,6.7286,6.7821,6.7821,6.7821,0.0,0.0,6.7324,0.0,0.0,6.7439,6.8241,6.9082,6.9158,6.9464,7.0304,7.0381,7.0419,7.0419,7.0419,7.0419,7.0419,7.0419,7.0801,7.1642,7.1642,7.2062,7.2941,7.2941,7.2979,7.3017,7.3781,7.4163,7.4201,7.5042,7.5424,7.5424,7.5424,7.5424,7.5462,7.5462,7.5462,7.5501,7.5501,7.5501,7.5501,7.5501,7.5501,7.5501,7.5501,7.5501,7.5501,7.5501,7.5501,7.5501,7.5501,7.5501,7.5501,7.5577,7.5612,7.5642,7.5848,7.6015,7.6352,7.7256,7.7771,7.8272,7.9131,7.9483,7.9678,7.9678,8.0374,8.0966,8.1005,8.1005,8.1278,8.2137,8.2293,8.2293,8.2293,8.2293,8.2293,8.2293,8.2293,8.2293,8.2293,8.2293,8.2293,8.2293,8.2293,8.2293,8.2293,8.2293,8.2293,8.2293,8.2293,8.2293,8.2293,8.2293,8.2293,8.2254,8.1356,8.0498,6.4748,6.5205,6.5673,6.5434,6.5403,6.5374,6.5191,6.5577,6.6023,6.6201,6.7126,6.7897,6.7897,6.7897,0.0,0.0,0.0,6.74,0.0,6.8585,6.8852,6.9158,6.9655,6.9464,6.8088,6.9464,7.019,6.9655,7.0113,7.0648,7.1221,7.1259,7.1642,7.252,7.2559,7.2941,7.3781,7.3781,7.4087,7.466,7.4927,7.5042,7.508,7.5348,7.5501,7.5501,7.5501,7.5501,7.5501,7.5501,7.5501,7.5501,7.5501,7.5501,7.5501,7.5501,7.5501,7.5501,7.5501,7.5501,7.5501,7.5501,7.5501,7.5501,7.5501,7.5501,7.5501,7.5501,7.5539,7.5727,7.6394,7.6625,7.6967,7.8036,7.84,7.8671,7.9275,7.9912,8.042,8.0537,8.1278,8.1864,8.1864,8.1864,8.1942,8.2254,8.2293,8.2293,8.2293,8.2293,8.2293,8.2293,8.2293,8.2293,8.2293,8.2293,8.2293,8.2293,8.2293,8.2293,8.2293,8.2293,8.2293,8.2293,8.2293,8.2293,8.2293,8.2293,8.2293,8.2293,8.1981,8.1708,6.54,6.5856,6.6151,6.5867,6.575,6.563,6.5501,6.5891,6.6362,6.6597,6.7688,6.8507,6.8367,6.8574,6.8553,0.0,0.0,6.7515,0.0,6.8738,6.8738,6.8738,6.9196,6.9005,6.7706,6.8738,6.9655,7.0037,7.0266,7.0916,7.21,7.2138,7.2559,7.3399,7.3437,7.3819,7.466,7.466,7.4927,7.5501,7.5501,7.5501,7.5501,7.5501,7.5501,7.5501,7.5501,7.5501,7.5501,7.5501,7.5501,7.5501,7.5501,7.5501,7.5501,7.5501,7.5501,7.5501,7.5501,7.5501,7.5501,7.5501,7.5501,7.5501,7.5501,7.5727,7.5918,7.5918,7.6185,7.6602,7.7176,7.7352,7.7675,7.8782,7.9114,7.9345,7.9947,8.0602,8.1122,8.1317,8.1825,8.2215,8.2293,8.2293,8.2293,8.2293,8.2293,8.2293,8.2293,8.2293,8.2293,8.2293,8.2293,8.2293,8.2293,8.2293,8.2293,8.2293,8.2293,8.2293,8.2293,8.2293,8.2137,8.1825,8.2137,8.2137,8.1825,8.2137,8.2293,8.2293,8.2293,8.2293]},{"header":{"parameterUnit":"m.s-1","parameterCategory":1,"la1":30.6,"la2":29.2853,"lo1":-89.7004,"lo2":-87.6739,"dy":0.0162,"dx":0.0183,"nx":112,"ny":82,"refTime":"2024-03-13T18:00:00:Z","depth":0,"parameterNumber":3,"parameterNumberName":"V-component_of_WINDS"},"data":[0.0,0.0,0.0,0.0,0.0,0.0,0.0,0.0,0.0,0.0,0.0,0.0,0.0,0.0,0.0,0.0,0.0,0.0,0.0,0.0,0.0,0.0,0.0,0.0,0.0,0.0,0.0,0.0,0.0,0.0,0.0,0.0,0.0,0.0,0.0,0.0,0.0,0.0,0.0,0.0,0.0,0.0,0.0,0.0,0.0,0.0,0.0,0.0,0.0,0.0,0.0,0.0,0.0,0.0,0.0,0.0,0.0,0.0,0.0,0.0,0.0,0.0,0.0,0.0,0.0,0.0,0.0,0.0,0.0,0.0,0.0,0.0,0.0,0.0,0.0,0.0,0.0,0.0,0.0,0.0,0.0,0.0,0.0,0.0,0.0,0.0,0.0,0.0,0.0,0.0,-1.1179,-1.1226,-1.1463,-1.1619,-1.1619,-1.1619,-1.1491,-1.1185,0.0,0.0,0.0,0.0,0.0,0.0,0.0,0.0,0.0,0.0,0.0,0.0,0.0,0.0,0.0,0.0,0.0,0.0,0.0,0.0,0.0,0.0,0.0,0.0,0.0,0.0,0.0,0.0,0.0,0.0,0.0,0.0,0.0,0.0,0.0,0.0,0.0,0.0,0.0,0.0,0.0,0.0,0.0,0.0,0.0,0.0,0.0,0.0,0.0,0.0,0.0,0.0,0.0,0.0,0.0,0.0,0.0,0.0,0.0,0.0,0.0,0.0,0.0,0.0,0.0,0.0,0.0,0.0,0.0,0.0,0.0,0.0,0.0,0.0,0.0,0.0,0.0,0.0,0.0,0.0,0.0,0.0,0.0,0.0,0.0,0.0,0.0,0.0,0.0,0.0,0.0,0.0,0.0,0.0,0.0,0.0,0.0,0.0,0.0,0.0,0.0,0.0,0.0,0.0,-1.126,-1.1525,-1.1592,-1.1619,-1.1619,-1.1619,-1.1491,-1.1185,0.0,0.0,0.0,0.0,0.0,0.0,0.0,0.0,0.0,0.0,0.0,0.0,0.0,0.0,0.0,0.0,0.0,0.0,0.0,0.0,0.0,0.0,0.0,0.0,0.0,0.0,0.0,0.0,0.0,0.0,0.0,0.0,0.0,0.0,0.0,0.0,0.0,0.0,0.0,0.0,0.0,0.0,0.0,0.0,0.0,0.0,0.0,0.0,0.0,0.0,0.0,0.0,0.0,0.0,0.0,0.0,0.0,0.0,0.0,0.0,0.0,0.0,0.0,0.0,0.0,0.0,0.0,0.0,0.0,0.0,0.0,0.0,0.0,0.0,0.0,0.0,0.0,0.0,0.0,0.0,0.0,0.0,0.0,0.0,0.0,0.0,0.0,0.0,0.0,0.0,0.0,0.0,0.0,0.0,0.0,0.0,0.0,0.0,0.0,0.0,0.0,0.0,0.0,-1.0842,-1.128,-1.1586,-1.1619,-1.1619,-1.1619,-1.1619,-1.1491,-1.1185,-1.1165,0.0,0.0,0.0,0.0,0.0,0.0,0.0,0.0,0.0,0.0,0.0,0.0,0.0,0.0,0.0,0.0,0.0,0.0,0.0,0.0,0.0,0.0,0.0,0.0,0.0,0.0,0.0,0.0,0.0,0.0,0.0,0.0,0.0,0.0,0.0,0.0,0.0,0.0,0.0,0.0,0.0,0.0,0.0,0.0,0.0,0.0,0.0,0.0,0.0,0.0,0.0,0.0,0.0,0.0,0.0,0.0,0.0,0.0,0.0,0.0,0.0,0.0,0.0,0.0,0.0,0.0,0.0,0.0,0.0,0.0,0.0,0.0,0.0,0.0,0.0,0.0,0.0,0.0,0.0,0.0,0.0,0.0,0.0,0.0,0.0,0.0,0.0,0.0,0.0,0.0,0.0,0.0,0.0,0.0,0.0,0.0,0.0,0.0,0.0,0.0,0.0,0.0,-1.0809,-1.1074,-1.1449,-1.1476,-1.1476,-1.1619,-1.1619,-1.1491,-1.1185,-1.1165,0.0,0.0,0.0,0.0,0.0,0.0,0.0,0.0,0.0,0.0,0.0,0.0,0.0,0.0,0.0,0.0,0.0,0.0,0.0,0.0,0.0,0.0,0.0,0.0,0.0,0.0,0.0,0.0,0.0,0.0,0.0,0.0,0.0,0.0,0.0,0.0,0.0,0.0,0.0,0.0,0.0,0.0,0.0,0.0,0.0,0.0,0.0,0.0,0.0,0.0,0.0,0.0,0.0,0.0,0.0,0.0,0.0,0.0,0.0,0.0,0.0,0.0,0.0,0.0,0.0,0.0,0.0,0.0,0.0,0.0,0.0,0.0,0.0,0.0,0.0,0.0,0.0,0.0,0.0,0.0,0.0,0.0,0.0,0.0,0.0,0.0,0.0,0.0,0.0,0.0,0.0,0.0,0.0,0.0,0.0,0.0,0.0,0.0,0.0,0.0,0.0,0.0,-1.0414,-1.0725,-1.1038,-1.1044,-1.1188,-1.1619,-1.1619,-1.1491,-1.1185,-1.1165,0.0,0.0,0.0,0.0,0.0,0.0,0.0,0.0,0.0,0.0,0.0,0.0,0.0,0.0,0.0,0.0,0.0,0.0,0.0,0.0,0.0,0.0,0.0,0.0,0.0,0.0,0.0,0.0,0.0,0.0,0.0,0.0,0.0,0.0,0.0,0.0,0.0,0.0,0.0,0.0,0.0,0.0,0.0,0.0,0.0,0.0,0.0,0.0,0.0,0.0,0.0,0.0,0.0,0.0,0.0,0.0,0.0,0.0,0.0,0.0,0.0,0.0,0.0,0.0,0.0,0.0,0.0,0.0,0.0,0.0,0.0,0.0,0.0,0.0,0.0,0.0,0.0,0.0,0.0,0.0,0.0,0.0,0.0,0.0,0.0,0.0,0.0,0.0,0.0,0.0,0.0,0.0,0.0,0.0,0.0,0.0,0.0,0.0,0.0,0.0,0.0,0.0,-1.0076,-1.0364,-1.0593,-1.0894,-1.1044,-1.1188,-1.1476,-1.1491,-1.1185,0.0,0.0,0.0,0.0,0.0,0.0,0.0,0.0,0.0,0.0,0.0,0.0,0.0,0.0,0.0,0.0,0.0,0.0,0.0,0.0,0.0,0.0,0.0,0.0,0.0,0.0,0.0,0.0,0.0,0.0,0.0,0.0,0.0,0.0,0.0,0.0,0.0,0.0,0.0,0.0,0.0,0.0,0.0,0.0,0.0,0.0,0.0,0.0,0.0,0.0,0.0,0.0,0.0,0.0,0.0,0.0,0.0,0.0,0.0,0.0,0.0,0.0,0.0,0.0,0.0,0.0,0.0,0.0,0.0,0.0,0.0,0.0,0.0,0.0,0.0,0.0,0.0,0.0,0.0,0.0,0.0,0.0,0.0,0.0,0.0,0.0,0.0,0.0,0.0,0.0,0.0,0.0,0.0,0.0,0.0,0.0,0.0,0.0,0.0,0.0,0.0,0.0,-0.9354,-0.9654,-1.0072,-1.0299,-1.0462,-1.075,-1.0894,-1.1188,-1.1348,-1.104,0.0,0.0,0.0,0.0,0.0,0.0,0.0,0.0,0.0,0.0,0.0,0.0,0.0,0.0,0.0,0.0,0.0,0.0,0.0,0.0,0.0,0.0,0.0,0.0,0.0,0.0,0.0,0.0,0.0,0.0,0.0,0.0,0.0,0.0,0.0,0.0,0.0,0.0,0.0,0.0,0.0,0.0,0.0,0.0,0.0,0.0,0.0,0.0,0.0,0.0,0.0,0.0,0.0,0.0,0.0,0.0,0.0,0.0,0.0,0.0,0.0,0.0,0.0,0.0,0.0,0.0,0.0,0.0,0.0,0.0,0.0,0.0,0.0,0.0,0.0,0.0,0.0,0.0,0.0,0.0,0.0,0.0,0.0,0.0,0.0,0.0,0.0,0.0,0.0,0.0,0.0,0.0,0.0,0.0,0.0,0.0,0.0,0.0,0.0,0.0,0.0,0.0,-0.8954,-0.9155,-0.9446,-0.9879,-0.9879,-1.0023,-1.0455,-1.075,-1.0921,0.0,0.0,0.0,0.0,0.0,0.0,0.0,0.0,0.0,0.0,0.0,0.0,0.0,0.0,0.0,0.0,0.0,0.0,0.0,0.0,0.0,0.0,0.0,0.0,0.0,0.0,0.0,0.0,0.0,0.0,0.0,0.0,0.0,0.0,0.0,0.0,0.0,0.0,0.0,0.0,0.0,0.0,0.0,0.0,0.0,0.0,0.0,0.0,0.0,0.0,0.0,0.0,0.0,0.0,0.0,0.0,0.0,0.0,0.0,0.0,0.0,0.0,0.0,0.0,0.0,0.0,0.0,0.0,0.0,0.0,0.0,0.0,0.0,0.0,0.0,0.0,0.0,0.0,0.0,0.0,0.0,0.0,0.0,0.0,0.0,0.0,0.0,0.0,0.0,0.0,0.0,0.0,0.0,0.0,0.0,0.0,0.0,0.0,0.0,0.0,0.0,0.0,0.0,-0.8954,-0.9155,-0.9302,-0.9446,-0.9735,-0.9879,-1.0023,-1.0606,-1.0921,-1.0625,0.0,0.0,0.0,0.0,0.0,0.0,0.0,0.0,0.0,0.0,0.0,0.0,0.0,0.0,0.0,0.0,0.0,0.0,0.0,0.0,0.0,0.0,0.0,0.0,0.0,0.0,0.0,0.0,0.0,0.0,0.0,0.0,0.0,0.0,0.0,0.0,0.0,0.0,0.0,0.0,0.0,0.0,0.0,0.0,0.0,0.0,0.0,0.0,0.0,0.0,0.0,0.0,0.0,0.0,0.0,0.0,0.0,0.0,0.0,0.0,0.0,0.0,0.0,0.0,0.0,0.0,0.0,0.0,0.0,0.0,0.0,0.0,0.0,0.0,0.0,0.0,0.0,0.0,0.0,0.0,0.0,0.0,0.0,0.0,0.0,0.0,0.0,0.0,0.0,0.0,0.0,0.0,0.0,0.0,0.0,0.0,0.0,0.0,0.0,0.0,0.0,0.0,-0.8954,-0.9155,-0.9302,-0.9302,-0.9446,-0.959,-0.959,-1.0173,-1.0513,-1.0429,0.0,0.0,0.0,0.0,0.0,0.0,0.0,0.0,0.0,0.0,0.0,0.0,0.0,0.0,0.0,0.0,0.0,0.0,0.0,0.0,0.0,0.0,0.0,0.0,0.0,0.0,0.0,0.0,0.0,0.0,0.0,0.0,0.0,0.0,0.0,0.0,0.0,0.0,0.0,0.0,0.0,0.0,0.0,0.0,0.0,0.0,0.0,0.0,0.0,0.0,0.0,0.0,0.0,0.0,0.0,0.0,0.0,0.0,0.0,0.0,0.0,0.0,0.0,0.0,0.0,0.0,0.0,0.0,0.0,0.0,0.0,0.0,0.0,0.0,0.0,0.0,0.0,0.0,0.0,0.0,0.0,0.0,0.0,0.0,0.0,0.0,0.0,0.0,0.0,0.0,0.0,0.0,0.0,0.0,0.0,0.0,0.0,0.0,0.0,0.0,0.0,0.0,-0.8954,-0.9155,-0.9302,-0.9302,-0.9302,-0.9302,-0.9302,-0.9735,-0.997,-1.0131,0.0,0.0,0.0,0.0,0.0,0.0,0.0,0.0,0.0,0.0,0.0,0.0,0.0,0.0,0.0,0.0,0.0,0.0,0.0,0.0,0.0,0.0,0.0,0.0,0.0,0.0,0.0,0.0,0.0,0.0,0.0,0.0,0.0,0.0,0.0,0.0,0.0,0.0,0.0,0.0,0.0,0.0,0.0,0.0,0.0,0.0,0.0,0.0,0.0,0.0,0.0,0.0,0.0,0.0,0.0,0.0,0.0,0.0,0.0,0.0,-0.8751,-0.8747,0.0,0.0,0.0,0.0,0.0,0.0,0.0,0.0,0.0,0.0,0.0,0.0,0.0,0.0,0.0,0.0,0.0,0.0,0.0,0.0,0.0,0.0,0.0,0.0,0.0,0.0,0.0,0.0,0.0,0.0,0.0,0.0,0.0,0.0,0.0,0.0,0.0,0.0,0.0,0.0,-0.8954,-0.9155,-0.9302,-0.9302,-0.9302,-0.9302,-0.9302,-0.9735,-0.9827,-0.9847,-1.0094,0.0,0.0,0.0,0.0,0.0,0.0,0.0,0.0,0.0,0.0,0.0,0.0,0.0,0.0,0.0,0.0,0.0,0.0,0.0,0.0,0.0,0.0,0.0,0.0,0.0,0.0,0.0,0.0,0.0,0.0,0.0,0.0,0.0,0.0,0.0,0.0,0.0,0.0,0.0,0.0,0.0,0.0,0.0,0.0,0.0,0.0,0.0,0.0,0.0,0.0,0.0,0.0,0.0,0.0,0.0,0.0,0.0,0.0,0.0,-0.8273,-0.9038,0.0,0.0,0.0,0.0,0.0,0.0,0.0,0.0,0.0,0.0,0.0,0.0,0.0,0.0,0.0,0.0,0.0,0.0,0.0,0.0,0.0,0.0,0.0,0.0,0.0,0.0,0.0,0.0,0.0,0.0,0.0,0.0,0.0,0.0,0.0,0.0,0.0,0.0,0.0,0.0,-0.8954,-0.9155,-0.9302,-0.9302,-0.9302,-0.9302,-0.9302,-0.9446,-0.9712,-0.9792,-0.9871,0.0,0.0,0.0,0.0,0.0,0.0,0.0,0.0,0.0,0.0,0.0,0.0,0.0,0.0,0.0,0.0,0.0,0.0,0.0,0.0,0.0,0.0,0.0,0.0,0.0,0.0,0.0,0.0,0.0,0.0,0.0,0.0,0.0,0.0,0.0,0.0,0.0,0.0,0.0,0.0,0.0,0.0,0.0,0.0,0.0,0.0,0.0,0.0,0.0,0.0,0.0,0.0,0.0,-0.6332,-0.4569,-0.3497,-0.4068,-0.4238,-0.4424,-0.7217,-0.8651,-0.9275,-0.8921,0.0,0.0,0.0,0.0,0.0,0.0,0.0,0.0,0.0,0.0,0.0,0.0,0.0,0.0,0.0,0.0,0.0,0.0,0.0,0.0,0.0,0.0,-0.8704,-0.8905,-0.903,-0.9079,-0.9003,0.0,0.0,0.0,0.0,0.0,0.0,0.0,0.0,0.0,0.0,0.0,-0.8981,-0.9171,-0.9302,-0.9302,-0.9302,-0.9302,-0.9302,-0.9302,-0.9446,-0.9735,-0.9644,-0.9671,0.0,0.0,0.0,0.0,0.0,0.0,0.0,0.0,0.0,0.0,0.0,0.0,0.0,0.0,0.0,0.0,0.0,0.0,0.0,0.0,0.0,0.0,0.0,0.0,0.0,0.0,0.0,0.0,0.0,0.0,0.0,0.0,-0.8264,-0.8024,0.0,0.0,0.0,0.0,0.0,0.0,0.0,0.0,0.0,0.0,0.0,0.0,0.0,-0.8432,-0.8432,-0.6076,-0.6168,-0.8697,-0.8655,-0.5744,-0.0701,-0.3124,-0.429,-0.43,-0.5051,0.0,-0.9292,-0.9106,0.0,0.0,0.0,0.0,0.0,0.0,0.0,0.0,0.0,0.0,0.0,0.0,0.0,0.0,0.0,0.0,0.0,0.0,0.0,0.0,0.0,0.0,-0.891,-0.8943,-0.8965,-0.9003,-0.909,-0.9024,-0.8948,-0.8932,-0.8927,-0.8889,0.0,0.0,0.0,0.0,0.0,0.0,-0.9095,-0.9226,-0.9302,-0.9302,-0.9302,-0.9302,-0.9302,-0.9302,-0.9302,-0.9302,-0.9435,-0.9518,-0.9677,-0.955,0.0,0.0,0.0,0.0,0.0,0.0,0.0,0.0,0.0,0.0,0.0,0.0,0.0,0.0,0.0,0.0,0.0,0.0,0.0,0.0,0.0,0.0,0.0,0.0,0.0,0.0,0.0,0.0,0.0,-0.8071,-0.813,-0.8065,-0.7098,-0.6892,0.0,0.0,0.0,0.0,0.0,0.0,0.0,0.0,0.0,-0.8339,-0.8154,-0.8223,-0.8557,-0.4047,-0.2452,-0.3714,-0.4011,-0.2645,-0.0,-0.1271,-0.184,-0.1983,-0.3694,-0.6249,-0.9068,-0.9117,-0.9073,-0.897,0.0,0.0,0.0,0.0,-0.8725,-0.8671,-0.8682,-0.8687,-0.8655,-0.8563,0.0,0.0,0.0,0.0,0.0,0.0,0.0,-0.8372,-0.8467,-0.8569,-0.878,-0.8777,-0.8809,-0.8826,-0.9019,-0.9041,-0.9052,-0.9052,-0.8997,-0.891,-0.8791,-0.8829,0.0,0.0,0.0,-0.9073,-0.9128,-0.9231,-0.9302,-0.9302,-0.9302,-0.9302,-0.9302,-0.9302,-0.9302,-0.9302,-0.9302,-0.928,-0.9518,-0.9608,-0.9871,0.0,0.0,0.0,0.0,0.0,0.0,0.0,0.0,0.0,0.0,0.0,0.0,0.0,0.0,0.0,0.0,0.0,0.0,0.0,0.0,0.0,0.0,0.0,0.0,0.0,0.0,0.0,0.0,-0.8055,-0.7801,-0.7198,-0.6519,-0.658,0.0,0.0,0.0,0.0,0.0,0.0,-0.8038,-0.8173,-0.7832,-0.7407,-0.7837,-0.8291,-0.8655,-0.2827,0.0,0.0,0.0,0.0,0.0,0.0,0.0,-0.014,-0.3074,-0.6023,-0.8858,-0.8922,-0.9068,-0.903,-0.8943,-0.8829,-0.8725,-0.8758,-0.8715,-0.8649,-0.8742,-0.8769,-0.8883,-0.8862,-0.8657,-0.847,-0.8329,0.0,0.0,0.0,0.0,-0.8329,-0.8265,-0.8451,-0.8633,-0.8676,-0.8718,-0.8729,-0.8761,-0.8954,-0.9024,-0.9117,-0.9084,-0.9003,-0.8883,-0.8938,0.0,-0.8878,-0.9019,-0.9144,-0.9171,-0.9253,-0.9302,-0.9302,-0.9302,-0.9302,-0.9302,-0.9302,-0.9302,-0.9302,-0.9302,-0.9302,-0.9302,-0.97,-1.0034,-1.0211,0.0,0.0,0.0,0.0,0.0,0.0,0.0,0.0,0.0,0.0,0.0,0.0,0.0,0.0,0.0,0.0,0.0,0.0,0.0,0.0,0.0,0.0,0.0,0.0,0.0,0.0,0.0,0.0,0.0,-0.4511,-0.6515,0.0,0.0,0.0,0.0,-0.4243,-0.4117,-0.5314,-0.8044,-0.8181,-0.7026,-0.4557,-0.7139,-0.8515,-0.8655,-0.2827,0.0,0.0,0.0,0.0,0.0,0.0,0.0,-0.0138,-0.306,-0.588,-0.8568,-0.8831,-0.8894,-0.8791,-0.878,-0.8704,-0.8611,-0.8725,-0.8764,-0.8764,-0.8905,-0.8911,-0.8872,-0.8635,-0.848,-0.8274,-0.8508,-0.8458,0.0,0.0,-0.8144,-0.8301,-0.8557,-0.859,-0.859,-0.86,-0.8606,-0.8638,-0.8617,-0.8558,-0.872,-0.9068,-0.9215,-0.9253,-0.9139,0.0,-0.9122,-0.9117,-0.9128,-0.9171,-0.928,-0.9302,-0.9302,-0.9302,-0.9302,-0.9302,-0.9302,-0.9302,-0.9302,-0.9302,-0.9302,-0.9302,-0.9302,-0.9723,-0.9894,-1.007,-1.0461,0.0,0.0,0.0,0.0,0.0,0.0,0.0,0.0,0.0,0.0,0.0,0.0,0.0,0.0,0.0,0.0,0.0,0.0,0.0,0.0,0.0,0.0,0.0,0.0,0.0,0.0,0.0,0.0,-0.7075,-0.7636,0.0,-0.8028,-0.8081,-0.7601,-0.6549,-0.3294,-0.1856,-0.2933,-0.6423,-0.8061,-0.7143,-0.4445,-0.3096,-0.3096,-0.1076,0.0,0.0,0.0,0.0,0.0,0.0,0.0,-0.0136,-0.2991,-0.6002,-0.8617,-0.8725,-0.8785,-0.9027,-0.8889,-0.8812,-0.8844,-0.8753,-0.872,-0.8655,-0.8655,-0.8655,-0.8638,-0.869,-0.8497,-0.847,-0.8513,-0.8497,-0.847,-0.8513,-0.8392,-0.8535,-0.8579,-0.859,-0.859,-0.859,-0.859,-0.86,-0.8644,-0.8542,-0.8627,-0.8836,-0.9046,-0.909,-0.9128,-0.9193,-0.922,-0.9144,-0.9198,-0.9258,-0.9296,-0.9302,-0.9302,-0.9302,-0.9302,-0.9302,-0.9302,-0.9302,-0.9302,-0.9302,-0.9302,-0.9302,-0.9302,-0.9879,-1.0263,-1.0315,-1.0934,-1.1127,0.0,0.0,0.0,0.0,0.0,0.0,0.0,0.0,0.0,0.0,0.0,0.0,0.0,0.0,0.0,0.0,0.0,0.0,0.0,0.0,0.0,0.0,0.0,0.0,0.0,-0.6662,-0.6718,-0.6945,-0.6872,-0.7008,-0.7961,-0.806,-0.7322,-0.5318,-0.2007,0.0,0.0,-0.3633,-0.5662,-0.5662,-0.2019,0.0,0.0,0.0,0.0,0.0,0.0,0.0,0.0,0.0,0.0,-0.0135,-0.2013,-0.5101,-0.8628,-0.86,-0.8682,-0.8966,-0.8829,-0.878,-0.8844,-0.8709,-0.866,-0.859,-0.859,-0.859,-0.859,-0.859,-0.859,-0.859,-0.859,-0.859,-0.859,-0.859,-0.859,-0.859,-0.859,-0.859,-0.859,-0.859,-0.859,-0.859,-0.859,-0.8649,-0.8606,-0.8724,-0.8959,-0.9052,-0.9171,-0.9253,-0.9264,-0.915,-0.9231,-0.9291,-0.9253,-0.928,-0.9302,-0.9302,-0.9302,-0.9302,-0.9302,-0.9269,-0.9264,-0.9302,-0.9269,-0.9264,-0.9302,-0.9982,-1.0388,-1.0388,-1.111,-1.1321,-1.0867,0.0,0.0,0.0,0.0,0.0,0.0,0.0,0.0,0.0,0.0,0.0,0.0,0.0,0.0,0.0,0.0,0.0,0.0,0.0,0.0,0.0,0.0,0.0,-0.4389,-0.3914,-0.3796,-0.3744,-0.396,-0.5078,-0.7417,-0.8046,-0.6069,-0.0404,0.0,0.0,0.0,0.0,0.0,0.0,0.0,0.0,0.0,0.0,0.0,0.0,0.0,0.0,0.0,0.0,0.0,0.0,0.0,-0.3218,-0.8628,-0.86,-0.859,-0.859,-0.859,-0.859,-0.859,-0.859,-0.859,-0.859,-0.859,-0.859,-0.859,-0.859,-0.859,-0.859,-0.859,-0.859,-0.859,-0.859,-0.859,-0.859,-0.859,-0.859,-0.859,-0.859,-0.859,-0.859,-0.859,-0.859,-0.8622,-0.8606,-0.8965,-0.9308,-0.928,-0.9302,-0.9269,-0.9155,-0.9231,0.0,-0.9155,-0.9237,-0.9302,-0.9302,-0.9302,-0.9302,-0.9302,-0.9204,-0.9188,-0.9296,-0.9198,-0.9188,-0.9302,-0.9906,-1.0266,-1.0266,-1.0966,-1.1307,-1.1165,0.0,0.0,0.0,0.0,0.0,0.0,0.0,0.0,0.0,0.0,0.0,0.0,0.0,0.0,0.0,0.0,0.0,0.0,0.0,0.0,0.0,-0.3904,-0.4341,-0.6435,-0.3448,-0.1068,-0.1064,-0.1071,-0.1477,-0.2142,-0.2283,-0.175,-0.0135,0.0,0.0,0.0,0.0,0.0,0.0,0.0,0.0,0.0,0.0,0.0,0.0,0.0,0.0,0.0,0.0,0.0,0.0,0.0,-0.3218,-0.8628,-0.86,-0.859,-0.859,-0.859,-0.859,-0.859,-0.859,-0.859,-0.859,-0.859,-0.859,-0.859,-0.859,-0.859,-0.859,-0.859,-0.859,-0.859,-0.859,-0.859,-0.859,-0.859,-0.859,-0.859,-0.859,-0.859,-0.859,-0.859,-0.859,-0.8622,-0.8606,-0.8756,-0.89,-0.9303,-0.9247,-0.9296,-0.928,-0.9291,-0.9296,-0.928,-0.9291,-0.9302,-0.9302,-0.9302,-0.9302,-0.9302,-0.9275,-0.9269,-0.9302,-0.9275,-0.9269,-0.9302,-0.9988,-1.0693,-1.1272,-1.1201,-1.1206,0.0,0.0,0.0,0.0,0.0,0.0,0.0,0.0,0.0,0.0,0.0,0.0,0.0,0.0,0.0,0.0,0.0,0.0,0.0,0.0,0.0,0.0,-0.0395,-0.1063,-0.3324,-0.1339,0.0404,0.0404,0.0135,0.0,0.0,0.0,0.0,0.0,0.0,0.0,0.0,0.0,0.0,0.0,0.0,0.0,0.0,0.0,0.0,0.0,0.0,0.0,0.0,0.0,0.0,-0.0136,-0.2559,-0.5524,-0.8563,-0.8617,-0.8617,-0.866,0.0,0.0,0.0,0.0,-0.859,-0.859,-0.859,-0.859,-0.859,-0.859,-0.859,-0.859,-0.859,-0.859,-0.859,-0.859,-0.859,-0.859,-0.859,-0.859,-0.859,-0.859,-0.859,-0.859,-0.859,-0.859,-0.8622,-0.8617,-0.8597,0.0,-0.9275,-0.9237,-0.9291,-0.9264,-0.8261,-0.7833,-0.9115,-0.9291,-0.9313,-0.9307,-0.9302,-0.9302,-0.9302,-0.9258,0.0,0.0,0.0,-0.9374,-0.9661,-1.009,0.0,0.0,0.0,-1.1287,-1.1355,-1.1862,0.0,0.0,-1.4638,-1.4882,0.0,0.0,0.0,0.0,0.0,0.0,0.0,0.0,0.0,0.0,0.0,0.0,0.0,0.0,0.0,0.0,0.2135,0.2155,0.2155,0.1616,0.1212,0.1212,0.0673,0.0135,0.0,0.0,0.0,0.0,0.0,0.0,0.0,0.0,0.0,0.0,0.0,0.0,0.0,0.014,0.0139,0.0,0.0,0.0,0.0,0.0,0.0,-0.027,-0.6061,-0.8553,-0.8644,-0.866,-0.8671,-0.8617,-0.8633,-0.859,-0.859,-0.859,-0.859,-0.859,-0.859,0.0,0.0,-0.859,-0.859,-0.859,-0.859,-0.859,-0.859,-0.859,-0.859,-0.859,-0.859,-0.859,-0.859,-0.859,-0.859,-0.859,-0.859,-0.859,-0.8633,-0.8633,-0.8613,-0.8728,-0.9155,-0.9247,-0.928,-0.9336,-0.6637,-0.5496,-0.7736,-0.8827,-0.9323,-0.9307,-0.9302,0.0,-0.9302,-0.9209,-0.9198,-0.9296,-0.9209,-0.9439,-1.0143,-1.0284,-1.0568,-1.1416,-1.1416,-1.1484,-1.1619,-1.1619,-1.233,-1.3587,-1.4216,-1.4156,0.0,0.0,0.0,0.0,0.0,0.0,0.0,0.0,0.0,0.0,0.0,0.0,0.0,0.0,0.0,0.1976,0.2135,0.2155,0.2155,0.2019,0.2019,0.2019,0.1885,0.1346,0.0135,0.0,0.0,0.0,0.0,0.0,0.0,0.0,0.0,0.0,0.0,0.0,0.0,0.1236,0.124,0.0,0.0,0.0,0.0,0.0,0.0,-0.0274,-0.6088,-0.8644,-0.8666,-0.8991,-0.8889,-0.8617,-0.8633,-0.859,-0.859,-0.859,-0.859,-0.859,-0.859,-0.859,-0.859,-0.859,-0.859,-0.859,-0.859,-0.859,0.0,-0.859,-0.859,-0.859,-0.859,-0.859,-0.859,-0.859,-0.859,-0.859,-0.8606,-0.8611,-0.8649,-0.8644,-0.8623,-0.8744,-0.9155,-0.9264,-0.9329,-0.9329,-0.6684,-0.4059,-0.2027,-0.6242,-0.9323,-0.9307,-0.9302,-0.9302,-0.9302,-0.9285,-0.928,-0.9302,-0.928,-0.9557,-1.0419,-1.0419,-1.0849,-1.1572,-1.1572,-1.1592,-1.1619,-1.1619,-1.1763,-1.2043,-1.2237,-1.2783,0.0,0.0,0.0,0.0,0.0,0.0,0.0,0.0,0.0,0.0,0.0,0.181,0.1172,0.0,0.2247,0.2262,0.2144,0.2155,0.2155,0.2155,0.2155,0.2155,0.2155,0.1885,0.1212,0.1084,0.1088,0.1088,0.1096,0.11,0.11,0.11,0.11,0.11,0.11,0.11,0.11,0.18,0.18,0.11,0.1107,0.1107,0.11,0.1092,0.068,-0.0272,-0.6126,-0.8627,-0.8681,-0.9054,-0.9198,-0.8993,-0.8654,-0.8558,-0.859,-0.859,-0.859,-0.859,-0.859,-0.859,-0.859,-0.859,-0.859,-0.859,-0.859,-0.859,-0.859,-0.859,-0.859,-0.859,-0.859,-0.859,-0.859,-0.86,-0.86,-0.8606,-0.8617,-0.6313,-0.4319,-0.4279,-0.4321,-0.4372,-0.4605,-0.464,-0.568,-0.878,-0.5386,-0.1742,-0.0145,-0.538,-0.9323,-0.9307,-0.9302,-0.9302,-0.9302,-0.9302,-0.9302,-0.9302,-0.9302,-0.959,-1.0455,-1.0455,-1.0894,-1.1619,-1.1619,-1.1619,-1.1619,-1.1619,-1.2043,-1.2753,-1.19,-1.2043,0.0,0.0,0.0,0.0,0.0,0.0,0.0,0.2041,0.2173,0.2075,0.2082,0.2089,0.2245,0.2251,0.226,0.2151,0.2155,0.2155,0.2155,0.2155,0.2155,0.2155,0.2155,0.2157,0.2163,0.218,0.2193,0.22,0.22,0.22,0.2338,0.2338,0.22,0.22,0.2218,0.223,0.2237,0.2237,0.2228,0.2208,0.2208,0.2196,0.2173,0.2173,0.1493,0.0136,-0.4809,-0.7659,-0.8744,-0.9106,-0.9366,-0.9271,-0.8847,-0.8713,-0.8789,-0.8633,-0.8606,-0.859,-0.859,-0.859,-0.859,-0.859,-0.859,-0.859,-0.859,-0.859,-0.859,-0.859,-0.859,-0.859,-0.859,-0.8595,-0.8595,-0.8611,-0.7684,-0.6883,-0.6892,-0.324,0.0,0.0,0.0,0.0,0.0,0.0,-0.1748,-0.672,-0.3203,-0.0436,-0.1598,-0.6257,-0.9329,-0.9307,-0.9302,-0.9302,-0.9302,-0.9302,-0.9302,-0.9302,-0.9302,-0.959,-1.0455,-1.0455,-1.0894,-1.1619,-1.1619,-1.1619,-1.1619,-1.1619,-1.2187,-1.346,-1.2187,-1.1763,-0.8117,-0.5788,-0.2783,0.0256,0.1029,0.1036,0.0,0.2119,0.2239,0.2138,0.2144,0.2146,0.2148,0.215,0.2151,0.2154,0.2155,0.2155,0.2155,0.2155,0.2155,0.2155,0.2155,0.2165,0.2192,0.2173,0.2172,0.2335,0.2338,0.22,0.22,0.22,0.22,0.22,0.2177,0.2177,0.2204,0.2206,0.2217,0.224,0.224,0.2238,0.2236,0.2236,0.2096,0.1816,-0.0139,-0.4073,-0.9275,-0.928,-0.9269,-0.9258,-0.9258,-0.9176,-0.9181,-0.8791,-0.8542,-0.859,-0.859,-0.859,-0.859,-0.859,-0.859,-0.859,-0.859,-0.859,-0.859,-0.859,-0.859,-0.859,-0.8606,-0.8611,-0.8617,-0.8622,-0.4741,-0.0956,-0.0957,-0.0415,0.0,0.0,0.0,0.0,0.0,0.0,-0.0292,-0.0875,-0.0437,-0.2037,-0.7588,-0.8915,-0.934,-0.9307,-0.9302,-0.9302,-0.9302,-0.9302,-0.9302,-0.9302,-0.9302,-0.959,-1.0455,-1.0455,-1.0894,-1.1619,-1.1619,-1.1619,-1.1619,-1.1619,-1.1619,-1.19,-1.1619,-1.233,-0.8054,-0.4112,0.0256,0.1822,0.222,0.2097,0.2123,0.2119,0.2251,0.2148,0.2155,0.2155,0.2155,0.2155,0.2155,0.2155,0.2155,0.2155,0.2155,0.2155,0.2161,0.2178,0.2165,0.2159,0.2173,0.2193,0.2206,0.22,0.22,0.22,0.22,0.22,0.22,0.22,0.2204,0.2214,0.2226,0.2226,0.2233,0.2245,0.2245,0.2245,0.2245,0.2245,0.2255,0.2271,0.1558,-0.2705,-0.9264,-0.9253,-0.9242,-0.9237,-0.9237,-0.9308,-0.9187,-0.8783,-0.8565,-0.8649,-0.8579,-0.8558,-0.8547,-0.8611,-0.859,-0.859,-0.859,-0.859,-0.859,-0.86,-0.8606,-0.8622,-0.8569,-0.6118,-0.3537,-0.357,-0.1796,0.0,0.0,0.0,0.0,0.0,0.0,0.0,0.0,0.0,0.0,0.0,0.0,-0.2183,-0.8474,-0.9351,-0.9334,-0.9307,-0.9302,-0.9302,-0.9302,-0.9302,-0.9302,-0.9302,-0.9302,-0.959,-1.0167,-1.0311,-1.075,-1.1188,-1.1476,-1.1619,-1.1619,-1.1619,-1.1619,-1.1619,-1.1619,-1.19,-0.628,-0.1949,0.2071,0.2233,0.2248,0.2254,0.2254,0.2254,0.2261,0.215,0.2155,0.2155,0.2155,0.2155,0.2155,0.2155,0.2155,0.2155,0.2155,0.2162,0.2172,0.2185,0.2183,0.2173,0.2157,0.2195,0.2218,0.2213,0.2204,0.2203,0.2213,0.2213,0.2213,0.2213,0.2234,0.2249,0.2258,0.2258,0.2262,0.227,0.227,0.227,0.227,0.227,0.2281,0.2303,0.2298,-0.0865,-0.6261,-0.8454,-0.9329,-0.9313,-0.9307,-0.9258,-0.9319,-0.8938,-0.8723,-0.8799,-0.8851,-0.8681,-0.8665,-0.8579,-0.8553,-0.8553,-0.8553,-0.8553,-0.8558,-0.8569,-0.7477,-0.6266,-0.6199,-0.317,0.0,0.0,0.0,0.0,0.0,0.0,0.0,0.0,0.0,0.0,0.0,0.0,0.0,0.0,0.0,-0.2184,-0.8474,-0.934,-0.9318,-0.9307,-0.9302,-0.9302,-0.9302,-0.9302,-0.9302,-0.9302,-0.9302,-0.9446,-0.9879,-1.0311,-1.0599,-1.1044,-1.1332,-1.1619,-1.1619,-1.1619,-1.1619,-1.1619,-1.1619,-1.1619,-0.1795,0.0901,0.2197,0.2232,0.2265,0.2154,0.2154,0.2154,0.2154,0.2154,0.2155,0.2155,0.2155,0.2155,0.2155,0.2155,0.2155,0.2155,0.2155,0.218,0.2188,0.2159,0.2207,0.2219,0.2161,0.2157,0.2181,0.224,0.2217,0.2213,0.2243,0.2244,0.2244,0.2244,0.2245,0.226,0.2289,0.2289,0.2303,0.233,0.233,0.233,0.233,0.233,0.2331,0.2331,0.2328,0.2183,0.1309,-0.6261,-0.9345,-0.934,-0.9323,-0.9313,-0.9313,-0.9296,-0.9292,-0.9237,-0.9243,-0.8954,-0.8665,-0.867,-0.8665,-0.8655,-0.8655,-0.8665,-0.8531,-0.8531,-0.4603,-0.0279,-0.028,-0.014,0.0,0.0,0.0,0.0,0.0,0.0,0.0,0.0,0.0,0.0,0.0,0.0,0.0,0.0,0.0,-0.2188,-0.8479,-0.9329,-0.9302,-0.9302,-0.9302,-0.9302,-0.9302,-0.9302,-0.9302,-0.9302,-0.9302,-0.9446,-0.9879,-1.0311,-1.0599,-1.1044,-1.1332,-1.1619,-1.1619,-1.1619,-1.1619,-1.1619,-1.1619,-1.1619,-0.0386,0.1818,0.2232,0.2265,0.2147,0.2155,0.2155,0.2155,0.2155,0.2155,0.2155,0.2155,0.2155,0.2155,0.2155,0.2155,0.2155,0.2155,0.2155,0.2163,0.2173,0.232,0.2185,0.2193,0.2213,0.2215,0.2215,0.2215,0.2225,0.2234,0.2245,0.2264,0.2275,0.2275,0.2293,0.2308,0.2319,0.2319,0.2323,0.2333,0.2333,0.2333,0.2333,0.2333,0.2333,0.2333,0.2333,0.2328,0.1889,-0.3928,-0.6257,-0.6239,-0.6242,-0.7553,-0.9307,-0.9307,-0.9253,-0.9319,-0.9247,-0.7785,-0.6348,-0.8413,-0.9098,-0.9093,-0.9098,-0.9104,-0.8263,-0.4055,-0.1538,0.0,0.0,0.0,0.0,0.0,0.0,0.0,0.0,0.0,0.0,0.0,0.0,0.0,0.0,0.0,0.0,0.0,0.0,-0.2183,-0.8474,-0.9329,-0.9302,-0.9302,-0.9302,-0.9302,-0.9302,-0.9302,-0.9302,-0.9302,-0.9302,-0.9302,-0.9446,-1.0167,-1.0599,-1.0606,-1.1325,-1.1619,-1.1619,-1.1619,-1.1619,-1.1619,-1.1332,-1.1332,0.0906,0.2094,0.2249,0.2147,0.2155,0.2155,0.2155,0.2155,0.2155,0.2155,0.2146,0.2142,0.2153,0.2146,0.2142,0.2153,0.2155,0.2155,0.2155,0.2163,0.2174,0.2319,0.2185,0.2199,0.2226,0.2249,0.2253,0.2234,0.2251,0.2266,0.2277,0.2294,0.2305,0.2305,0.2323,0.2333,0.2333,0.2333,0.2333,0.2333,0.2333,0.2333,0.2333,0.2333,0.2333,0.2333,0.2333,0.233,0.189,-0.3935,-0.5096,-0.319,-0.5522,-0.7566,-0.9318,-0.9313,-0.9307,-0.9296,-0.9369,-0.8036,-0.6721,-0.8677,-0.9231,-0.9236,-0.9242,-0.7809,-0.5106,-0.1135,0.0,0.0142,0.0719,0.0432,0.0,0.0,0.0,0.0,0.0,0.0438,0.0876,0.0876,0.0438,0.0,0.0,0.0,0.0,0.0,0.0,-0.218,-0.8474,-0.9329,-0.9302,-0.9302,-0.9302,-0.9302,-0.9302,-0.9302,-0.9302,-0.9302,-0.9302,-0.9302,-0.9302,-0.9879,-1.0311,-1.0455,-1.1038,-1.1476,-1.1619,-1.1476,-1.1332,-1.1332,-1.1038,-1.0894,0.222,0.2241,0.2251,0.2147,0.2155,0.2155,0.2155,0.2155,0.2154,0.2153,0.2129,0.2249,0.2144,0.2261,0.2251,0.2147,0.2154,0.2155,0.2155,0.218,0.2188,0.2161,0.0,0.0,0.0,0.2258,0.2292,0.2293,0.2293,0.2304,0.2331,0.2333,0.2333,0.2333,0.2333,0.2333,0.2333,0.2333,0.2333,0.2333,0.2333,0.2333,0.2333,0.2333,0.2333,0.2333,0.2333,0.2333,0.175,-0.5696,-0.5256,-0.0583,-0.6563,-0.891,-0.905,-0.9179,-0.9313,-0.9307,-0.9318,-0.9313,-0.9307,-0.9313,-0.9323,-0.9184,-0.8889,-0.4654,0.0,0.0146,0.0146,0.0438,0.1898,0.1168,0.0146,0.0146,0.0146,0.0146,0.0146,0.1314,0.2337,0.2337,0.1022,0.0,0.0,0.0,0.0,0.0,0.0,-0.218,-0.8474,-0.9329,-0.9302,-0.9302,-0.9302,-0.9302,-0.9302,-0.9302,-0.9302,-0.9302,-0.9302,-0.9302,-0.9302,-0.9735,-1.0023,-1.0455,-1.075,-1.1188,-1.1476,-1.1188,-1.09,-1.09,-1.0599,-1.0455,0.2235,0.2258,0.2144,0.2153,0.2155,0.2155,0.2155,0.2155,0.2148,0.2258,0.2114,0.2105,0.209,0.2099,0.2244,0.212,0.214,0.2155,0.2155,0.2161,0.2172,0.2187,0.0,0.2226,0.2264,0.2282,0.23,0.232,0.2322,0.2324,0.2333,0.2333,0.2333,0.2333,0.2333,0.2333,0.2333,0.2333,0.2333,0.2333,0.2333,0.2333,0.2333,0.2333,0.2333,0.2333,0.2333,0.2331,0.2184,0.0146,-0.0437,-0.0145,-0.1745,-0.3782,-0.6112,-0.8454,-0.9334,-0.9334,-0.9334,-0.9334,-0.9323,-0.9329,-0.9334,-0.8459,-0.378,-0.1309,0.0291,0.1458,0.1751,0.1751,0.2189,0.2042,0.1751,0.1752,0.1752,0.1752,0.1752,0.2042,0.2334,0.2335,0.1022,0.0,0.0,0.0,0.0,0.0,0.0,-0.218,-0.8474,-0.9329,-0.9302,-0.9302,-0.9302,-0.9302,-0.9302,-0.9302,-0.9302,-0.9302,-0.9302,-0.9302,-0.9302,-0.9735,-0.9879,-1.0023,-1.0455,-1.0743,-1.0743,-1.0743,-1.0599,-1.0599,-1.0167,-1.0167,0.2258,0.2142,0.2155,0.2155,0.2155,0.2151,0.2138,0.2135,0.2125,0.2095,0.2079,0.1939,0.2064,0.2078,0.2094,0.2108,0.2135,0.2155,0.2155,0.2166,0.2181,0.0,0.2223,0.0,0.2288,0.2303,0.2316,0.2331,0.2333,0.2333,0.2333,0.2333,0.2333,0.2333,0.2333,0.2333,0.2333,0.2333,0.2333,0.2333,0.2333,0.2333,0.2333,0.2333,0.2333,0.2333,0.2333,0.2333,0.2331,0.2333,0.1748,0.1018,0.1019,-0.0,-0.2034,-0.5822,-0.7285,-0.7285,-0.7285,-0.7285,-0.699,-0.567,-0.4796,-0.349,-0.0,0.1019,0.1165,0.2042,0.2334,0.2333,0.2334,0.2334,0.2333,0.2334,0.2335,0.2335,0.2335,0.2334,0.2333,0.2334,0.1606,0.073,0.0146,0.0,0.0,0.0,0.0,-0.2182,-0.8474,-0.9329,-0.9302,-0.9302,-0.9302,-0.9302,-0.9302,-0.9302,-0.9302,-0.9302,-0.9302,-0.9302,-0.9302,-0.9446,-0.9735,-0.9879,-1.0167,-1.0311,-1.0455,-1.0311,-1.0311,-1.0167,-0.9879,-0.9735,0.2147,0.2155,0.2155,0.2155,0.2155,0.2147,0.1984,0.1977,0.1968,0.2065,0.2037,0.2026,0.2048,0.2059,0.2072,0.2098,0.2132,0.2157,0.2161,0.2184,0.2203,0.2211,0.2259,0.2292,0.2296,0.2319,0.2333,0.2333,0.2333,0.2333,0.2333,0.2333,0.2333,0.2333,0.2333,0.2333,0.2333,0.2333,0.2333,0.2333,0.2333,0.2333,0.2333,0.2333,0.2333,0.2333,0.2333,0.2333,0.2333,0.2333,0.2333,0.2333,0.2333,0.2331,0.1746,-0.291,-0.4657,-0.4651,-0.4654,-0.4221,-0.3348,-0.0581,0.1162,0.233,0.233,0.2331,0.2333,0.2333,0.2333,0.2333,0.2333,0.2333,0.2333,0.2333,0.2333,0.2333,0.2333,0.2333,0.2333,0.2333,0.2334,0.1898,0.0584,0.0146,0.0,0.0,0.0,-0.2183,-0.8474,-0.9329,-0.9307,-0.9302,-0.9302,-0.9302,-0.9302,-0.9302,-0.9302,-0.9302,-0.9302,-0.9302,-0.9302,-0.9302,-0.9446,-0.9879,-0.9879,-1.0023,-1.0311,-1.0023,-0.9879,-0.9879,-0.9446,-0.9302,0.2154,0.2155,0.2155,0.2155,0.2155,0.2147,0.2116,0.1977,0.1963,0.2038,0.2022,0.2012,0.1994,0.2031,0.2065,0.2071,0.2119,0.2163,0.2188,0.2196,0.2218,0.0,0.2285,0.23,0.2323,0.233,0.2333,0.2333,0.2333,0.2333,0.2333,0.2333,0.2333,0.2333,0.2333,0.2333,0.2333,0.2333,0.2333,0.2333,0.2333,0.2333,0.2333,0.2333,0.2333,0.2333,0.2333,0.2333,0.2333,0.2333,0.2333,0.2333,0.2333,0.2333,0.1749,-0.2915,-0.4665,-0.4662,-0.4668,-0.2186,0.1166,0.1746,0.2039,0.2333,0.2333,0.2333,0.2333,0.2333,0.2333,0.2333,0.2333,0.2333,0.2333,0.2333,0.2333,0.2333,0.2333,0.2333,0.2333,0.2333,0.2333,0.2188,0.1895,0.0875,0.0,0.0,0.0,-0.2183,-0.8474,-0.934,-0.9318,-0.9307,-0.9302,-0.9302,-0.9302,-0.9302,-0.9302,-0.9302,-0.9302,-0.9302,-0.9302,-0.9302,-0.9302,-0.9446,-0.9446,-0.9446,-0.9446,-0.9446,-0.9446,-0.9446,-0.9302,-0.9302,0.2155,0.2155,0.2155,0.2155,0.2155,0.2143,0.2097,0.2086,0.1939,0.2009,0.1997,0.1993,0.1979,0.2011,0.2045,0.2061,0.2102,0.2147,0.2193,0.2214,0.224,0.2286,0.2304,0.2318,0.2331,0.2333,0.2333,0.2333,0.2333,0.2333,0.2333,0.2333,0.2333,0.2333,0.2333,0.2333,0.2333,0.2333,0.2333,0.2333,0.2333,0.2333,0.2333,0.2333,0.2333,0.2333,0.2333,0.2333,0.2333,0.2333,0.2333,0.2333,0.2333,0.2333,0.2041,-0.0291,-0.102,-0.1456,-0.3794,-0.1604,0.2333,0.2331,0.2331,0.2333,0.2333,0.2333,0.2333,0.2333,0.2333,0.2333,0.2333,0.2333,0.2333,0.2333,0.2333,0.2333,0.2333,0.2333,0.2333,0.2333,0.2333,0.2333,0.2333,0.175,0.1167,0.1168,0.0583,-0.1022,-0.4109,-0.7357,-0.9254,-0.9313,-0.9362,-0.9545,-0.94,-0.9459,-0.9492,-0.9492,-0.9432,-0.94,-0.94,-0.934,-0.9302,-0.9302,-0.9302,-0.9302,-0.9302,-0.9302,-0.9302,-0.9302,-0.9302,-0.9302,0.2155,0.2155,0.2155,0.2155,0.2155,0.2139,0.2078,0.2064,0.2048,0.1989,0.1977,0.1977,0.1977,0.2005,0.2035,0.206,0.2095,0.214,0.2202,0.223,0.2259,0.2296,0.2319,0.2333,0.2333,0.2333,0.2333,0.2333,0.2333,0.2333,0.2333,0.2333,0.2333,0.2333,0.2333,0.2333,0.2333,0.2333,0.2333,0.2333,0.2333,0.2333,0.2333,0.2333,0.2333,0.2333,0.2333,0.2333,0.2333,0.2333,0.2333,0.2333,0.2333,0.2333,0.2333,0.2333,0.2333,0.175,-0.1895,-0.0729,0.2333,0.2333,0.2333,0.2333,0.2333,0.2333,0.2333,0.2333,0.2333,0.2333,0.2333,0.2333,0.2333,0.2333,0.2333,0.2333,0.2333,0.2333,0.2333,0.2333,0.2333,0.2333,0.2333,0.2333,0.2335,0.2343,0.1025,0.0,0.0,-0.5509,-0.9519,-0.9394,-0.9617,-0.9678,-0.9678,-0.9617,-0.9671,-0.9671,-0.9579,-0.9525,-0.9525,-0.9432,-0.9372,-0.9345,-0.9345,-0.9329,-0.9302,-0.9302,-0.9302,-0.9302,-0.9302,-0.9302,0.2155,0.2155,0.2155,0.2155,0.2155,0.2139,0.2078,0.2064,0.2048,0.1989,0.1977,0.1977,0.1977,0.2022,0.2061,0.2064,0.2113,0.2172,0.2233,0.2244,0.2266,0.2322,0.2331,0.2333,0.2333,0.2333,0.2333,0.2333,0.2333,0.2333,0.2333,0.2333,0.2333,0.2333,0.2333,0.2333,0.2333,0.2333,0.2333,0.2333,0.2333,0.2333,0.2333,0.2333,0.2333,0.2333,0.2333,0.2333,0.2333,0.2333,0.2333,0.2333,0.2333,0.2333,0.2333,0.2333,0.2333,0.2187,0.175,0.1895,0.2333,0.2333,0.2333,0.2333,0.2333,0.2333,0.2333,0.2333,0.2333,0.2333,0.2333,0.2333,0.2333,0.2333,0.2333,0.2333,0.2333,0.2333,0.2333,0.2333,0.2333,0.2333,0.2333,0.2333,0.2342,0.2369,0.1039,0.0,0.0,-0.5882,-0.9983,-0.9944,-0.9644,-0.95,-0.9955,-0.9816,-0.9822,-0.9671,-0.9661,-0.9655,-0.9655,-0.9644,-0.9584,-0.947,-0.947,-0.9416,-0.9302,-0.9302,-0.9302,-0.9302,-0.9302,-0.9302,0.215,0.2155,0.2155,0.2155,0.2155,0.2139,0.2078,0.2064,0.2048,0.1989,0.199,0.2001,0.2001,0.2035,0.2069,0.2089,0.2112,0.2148,0.221,0.2234,0.226,0.2303,0.2323,0.2333,0.2333,0.2333,0.2333,0.2333,0.2333,0.2333,0.2333,0.2333,0.2333,0.2333,0.2333,0.2333,0.2333,0.2333,0.2333,0.2333,0.2333,0.2333,0.2333,0.2333,0.2333,0.2333,0.2333,0.2333,0.2333,0.2333,0.2333,0.2333,0.2333,0.2333,0.2333,0.2333,0.2333,0.2333,0.2333,0.2333,0.2333,0.2333,0.2333,0.2333,0.2333,0.2333,0.2333,0.2333,0.2333,0.2333,0.2333,0.2333,0.2333,0.2333,0.2333,0.2333,0.2333,0.2333,0.2333,0.2333,0.2333,0.2333,0.2333,0.2348,0.2364,0.2228,0.1047,0.0,0.0,-0.5809,-0.9998,-1.0048,-0.9824,-0.9769,-0.9926,-0.9993,-0.9878,-0.9878,-0.9813,-0.9769,-0.9769,-0.9704,-0.965,-0.9595,-0.9595,-0.9536,-0.9416,-0.9416,-0.9378,-0.9302,-0.9302,-0.9302,0.2135,0.2147,0.2155,0.2155,0.2148,0.2128,0.2076,0.2064,0.2049,0.2,0.2012,0.2031,0.2031,0.2057,0.2084,0.2106,0.2117,0.2144,0.2204,0.2223,0.2247,0.2286,0.23,0.2311,0.2319,0.2328,0.2333,0.2333,0.2333,0.2333,0.2333,0.2333,0.2333,0.2333,0.2333,0.2333,0.2333,0.2333,0.2333,0.2333,0.2333,0.2333,0.2333,0.2333,0.2333,0.2333,0.2333,0.2333,0.2333,0.2333,0.2333,0.2333,0.2333,0.2333,0.2333,0.2333,0.2333,0.2333,0.2333,0.2333,0.2333,0.2333,0.2333,0.2333,0.2333,0.2333,0.2333,0.2333,0.2333,0.2333,0.2333,0.2333,0.2333,0.2333,0.2333,0.2333,0.2333,0.2333,0.2333,0.2333,0.2339,0.2346,0.2346,0.2371,0.2244,0.2403,0.106,0.0,0.0,-0.5887,-0.9976,-1.0041,-0.9954,-1.0048,-1.0048,-0.997,-1.0019,-1.0019,-0.9938,-0.9889,-0.9889,-0.9813,-0.9758,-0.972,-0.972,-0.9661,-0.9541,-0.9503,-0.9443,-0.9356,-0.9318,-0.9302,0.2109,0.2132,0.2155,0.2155,0.2132,0.2102,0.2071,0.2064,0.2056,0.2024,0.2042,0.2064,0.2064,0.2089,0.2109,0.2109,0.2135,0.2176,0.2236,0.2219,0.2223,0.2283,0.2264,0.2258,0.2289,0.2316,0.2333,0.2333,0.2333,0.2333,0.2333,0.2333,0.2333,0.2333,0.2333,0.2333,0.2333,0.2333,0.2333,0.2333,0.2333,0.2333,0.2333,0.2333,0.2333,0.2333,0.2333,0.2333,0.2333,0.2333,0.2333,0.2333,0.2333,0.2333,0.2333,0.2333,0.2333,0.2333,0.2333,0.2333,0.2333,0.2333,0.2333,0.2333,0.2333,0.2333,0.2333,0.2333,0.2333,0.2333,0.2333,0.2333,0.2333,0.2333,0.2333,0.2333,0.2333,0.2333,0.2333,0.2333,0.2357,0.2229,0.2229,0.2253,0.2281,0.2463,0.108,0.0,0.0,-0.5802,-1.0068,-1.0047,-1.003,-1.0019,-1.0019,-1.0019,-1.0019,-1.0019,-1.0019,-1.0019,-1.0019,-1.0019,-0.996,-0.9835,-0.9835,-0.978,-0.9666,-0.9546,-0.9487,-0.9481,-0.9362,-0.9302,0.2072,0.2086,0.2093,0.2093,0.2086,0.2076,0.2065,0.2064,0.2061,0.2052,0.2074,0.2095,0.2095,0.212,0.214,0.214,0.2166,0.2192,0.2211,0.2243,0.227,0.2289,0.23,0.2309,0.2319,0.2327,0.2333,0.2333,0.2333,0.2333,0.2333,0.2333,0.2333,0.2333,0.2333,0.2333,0.2333,0.2333,0.2333,0.2333,0.2333,0.2333,0.2333,0.2333,0.2333,0.2333,0.2333,0.2333,0.2333,0.2333,0.2333,0.2333,0.2333,0.2333,0.2333,0.2333,0.2333,0.2333,0.2333,0.2333,0.2333,0.2333,0.2333,0.2333,0.2333,0.2333,0.2333,0.2333,0.2333,0.2333,0.2333,0.2333,0.2333,0.2333,0.2333,0.2333,0.2333,0.2333,0.2339,0.236,0.2371,0.2384,0.2406,0.2435,0.2458,0.2467,0.1087,0.0,0.0,-0.188,-0.4855,-0.9433,-1.0036,-1.0019,-1.0019,-1.0019,-1.0019,-1.0019,-1.0019,-1.0019,-1.0019,-1.0019,-1.0003,-0.9965,-0.9965,-0.9905,-0.9786,-0.9742,-0.9644,-0.9487,-0.9449,-0.9383,0.2038,0.2056,0.2064,0.2064,0.2064,0.2064,0.2064,0.2072,0.208,0.208,0.2105,0.2127,0.2127,0.2142,0.2155,0.2155,0.217,0.2191,0.2214,0.224,0.226,0.2273,0.23,0.2318,0.2318,0.2326,0.2333,0.2333,0.2333,0.2333,0.2333,0.2333,0.2333,0.2333,0.2333,0.2333,0.2333,0.2333,0.2333,0.2333,0.2333,0.2333,0.2333,0.2333,0.2333,0.2333,0.2333,0.2333,0.0,0.2333,0.2333,0.2333,0.2333,0.2333,0.2333,0.2333,0.2333,0.2333,0.2333,0.2333,0.2333,0.2333,0.2333,0.2333,0.2333,0.2333,0.2333,0.2333,0.2333,0.2333,0.2333,0.2333,0.2333,0.2333,0.2333,0.2333,0.2333,0.2342,0.2356,0.2226,0.2397,0.2418,0.2438,0.2466,0.2487,0.2487,0.1564,0.0785,0.0157,0.0,-0.2504,-0.9281,-1.0041,-1.0019,-1.0019,-1.0019,-1.0019,-1.0019,-1.0019,-1.0019,-1.0019,-1.0019,-1.0019,-1.0019,-1.0019,-0.9981,-0.9905,-0.9862,-0.9742,-0.9557,-0.9557,-0.9492,0.0,0.2037,0.2059,0.206,0.2061,0.2061,0.2065,0.2089,0.0,0.2112,0.2135,0.2155,0.2155,0.2155,0.2155,0.2155,0.2293,0.2317,0.2237,0.2225,0.2219,0.2248,0.2277,0.2294,0.2294,0.2318,0.2333,0.2333,0.2333,0.2333,0.2333,0.2333,0.2333,0.2333,0.2333,0.2333,0.2333,0.2333,0.2333,0.2333,0.2333,0.2333,0.2333,0.2333,0.2333,0.2333,0.2333,0.2333,0.2333,0.2333,0.2333,0.2333,0.2333,0.2333,0.2333,0.2333,0.2333,0.2333,0.2333,0.2333,0.2333,0.2333,0.2333,0.2333,0.2333,0.2333,0.2333,0.2333,0.2333,0.2333,0.2333,0.2333,0.2333,0.2333,0.2334,0.2335,0.2335,0.236,0.2233,0.2384,0.2431,0.247,0.2472,0.2495,0.2514,0.2514,0.2514,0.1886,0.0157,0.0,-0.2504,-0.9281,-1.0041,-1.0019,-1.0019,-1.0019,-1.0019,-1.0019,-1.0019,-1.0019,-1.0019,-1.0019,-1.0019,-1.0019,-1.0019,-1.0019,-1.0019,-0.9905,-0.9791,-0.9682,-0.9682,-0.9617,0.1985,0.0,0.2003,0.2023,0.203,0.2041,0.0,0.2104,0.0,0.0,0.0,0.2155,0.2155,0.2155,0.2155,0.2155,0.2742,0.2923,0.2244,0.2278,0.2304,0.2311,0.2319,0.2323,0.2323,0.2328,0.2333,0.2333,0.2333,0.2333,0.2333,0.2333,0.2333,0.2333,0.2333,0.2333,0.2333,0.2333,0.2333,0.2333,0.2333,0.2333,0.2333,0.2333,0.2333,0.2333,0.2333,0.2333,0.2333,0.2333,0.2333,0.2333,0.2333,0.2333,0.2333,0.2333,0.2333,0.2333,0.2333,0.2333,0.2333,0.2333,0.2333,0.2333,0.2333,0.2333,0.2333,0.2333,0.2333,0.2333,0.2333,0.2333,0.2333,0.2333,0.235,0.2367,0.2367,0.2242,0.2269,0.2443,0.2459,0.2476,0.25,0.251,0.2514,0.2514,0.2514,0.1886,0.0157,0.0,-0.2507,-0.9291,-1.0057,-1.0041,-1.0041,-1.003,-1.0019,-1.0019,-1.0019,-1.0019,-1.0019,-1.0019,-1.0019,-1.0019,-1.0019,-1.0019,-1.0019,-0.9992,-0.9916,-0.9796,-0.9796,-0.9737,0.1977,0.1986,0.2,0.2015,0.2039,0.2068,0.2102,0.0,0.0,0.0,0.0,0.2289,0.2558,0.2706,0.2718,0.2718,0.3456,0.3792,0.3394,0.3311,0.3207,0.2917,0.2917,0.277,0.2333,0.2333,0.2333,0.2333,0.2333,0.2333,0.2333,0.2333,0.2333,0.2333,0.2333,0.2333,0.2333,0.2333,0.2333,0.2333,0.2333,0.2333,0.2333,0.2333,0.2333,0.2333,0.2333,0.2333,0.2333,0.2333,0.2333,0.2333,0.2333,0.2333,0.2333,0.2333,0.2333,0.2333,0.2333,0.2333,0.2333,0.2333,0.2333,0.2333,0.2333,0.2333,0.2333,0.2333,0.2333,0.2333,0.2333,0.2333,0.2337,0.235,0.2367,0.2382,0.2395,0.2423,0.245,0.2466,0.248,0.2495,0.2511,0.2514,0.2514,0.2514,0.2514,0.22,0.1256,0.047,-0.141,-0.5022,-0.8167,-1.0057,-1.0047,-1.0036,-1.003,-1.0019,-1.0019,-1.0019,-1.0019,-1.0019,-1.0019,-1.0019,-1.0019,-1.0019,-1.0019,-1.0019,-0.9987,-0.9921,-0.9921,-0.9856,0.2228,0.2378,0.253,0.2152,0.2068,0.211,0.2247,0.0,0.0,0.0,0.0,0.0,0.3506,0.3541,0.0,0.3716,0.418,0.4659,0.4721,0.4777,0.4519,0.3791,0.3646,0.3354,0.277,0.2624,0.2624,0.2624,0.2624,0.2478,0.2478,0.2333,0.2333,0.2333,0.2333,0.2333,0.2333,0.2333,0.2333,0.2333,0.2333,0.2333,0.2333,0.2333,0.2333,0.2333,0.2333,0.2333,0.2333,0.2333,0.2333,0.2333,0.2333,0.2333,0.2333,0.2333,0.2333,0.2333,0.2333,0.2333,0.2333,0.2333,0.2333,0.2333,0.2333,0.2333,0.2333,0.2333,0.2333,0.2333,0.2333,0.2337,0.2346,0.2372,0.2384,0.2399,0.2425,0.2454,0.2476,0.2476,0.2496,0.2514,0.2514,0.2514,0.2514,0.2514,0.2514,0.2514,0.2514,0.1255,0.0313,0.0,-0.5492,-0.9276,-0.9261,-0.9729,-1.0041,-1.0019,-1.0019,-1.0019,-1.0019,-1.0019,-1.0019,-1.0019,-1.0019,-1.0019,-1.0019,-1.0019,-1.0019,-1.0019,-1.0019,-0.9965,0.3633,0.444,0.4613,0.2569,0.2083,0.2248,0.2942,0.0,0.0,0.0,0.0,0.0,0.0,0.4931,0.4544,0.5702,0.5078,0.4866,0.5509,0.5093,0.4665,0.4519,0.4519,0.4519,0.4374,0.4374,0.4374,0.4374,0.3646,0.3354,0.3354,0.2624,0.2333,0.2333,0.2333,0.2333,0.2333,0.2333,0.2333,0.2333,0.2333,0.2333,0.2333,0.2333,0.2333,0.2333,0.2333,0.2333,0.2333,0.2333,0.2333,0.2333,0.2333,0.2333,0.2333,0.2333,0.2333,0.2333,0.2333,0.2333,0.2333,0.2333,0.2333,0.2333,0.2333,0.2333,0.2333,0.2333,0.2333,0.2333,0.2333,0.2352,0.2372,0.2229,0.2417,0.2457,0.2461,0.2487,0.2507,0.2507,0.2511,0.2514,0.2514,0.2514,0.2514,0.2514,0.2514,0.2514,0.2514,0.22,0.157,0.0157,-0.3452,-0.5805,-0.5799,-0.8315,-1.0041,-1.0019,-1.0019,-1.0019,-1.0019,-1.0019,-1.0019,-1.0019,-1.0019,-1.0019,-1.0019,-1.0019,-1.0019,-1.0019,-1.0019,-1.0008,0.4027,0.4993,0.5591,0.4426,0.4604,0.5053,0.5489,0.0,0.0,0.0,0.0,0.0,0.0,0.634,0.6553,0.8247,0.7741,0.7356,0.8131,0.7417,0.6692,0.6257,0.568,0.5101,0.481,0.4374,0.4083,0.4083,0.3354,0.2917,0.2917,0.2478,0.2333,0.2333,0.2333,0.2333,0.2333,0.2333,0.2333,0.2333,0.2333,0.2333,0.2333,0.2333,0.2333,0.2333,0.2333,0.2333,0.2333,0.2333,0.2333,0.2333,0.2333,0.2333,0.2333,0.2333,0.2333,0.2333,0.2333,0.2333,0.2333,0.2333,0.2333,0.2333,0.2333,0.2333,0.2337,0.2353,0.2345,0.2337,0.2353,0.2368,0.2387,0.242,0.2448,0.2473,0.2489,0.2504,0.2514,0.2514,0.2514,0.2514,0.2514,0.2514,0.2514,0.2514,0.2514,0.2514,0.2514,0.2514,0.189,0.0159,-0.1427,-0.3813,-0.7365,-0.9292,-1.0188,-1.003,-1.0019,-1.0019,-1.0019,-1.0019,-1.0019,-1.0019,-1.0019,-1.0019,-1.0019,-1.0019,-1.0019,-1.0019,-1.0019,-1.0019,0.5206,0.6198,0.7089,0.7112,0.7304,0.7493,0.7759,0.0,0.0,0.0,0.0,0.0,0.8123,0.8382,0.8938,1.0132,0.9867,0.9718,1.0305,0.9585,0.8858,0.828,0.7417,0.6547,0.5677,0.5098,0.4662,0.4374,0.3644,0.3061,0.3061,0.2915,0.277,0.2624,0.2624,0.2478,0.2333,0.2333,0.2333,0.2333,0.2333,0.2333,0.2333,0.2333,0.2333,0.2333,0.2333,0.2333,0.2333,0.2333,0.2333,0.2333,0.2333,0.2333,0.2333,0.2333,0.2333,0.2333,0.2333,0.2333,0.2333,0.2333,0.2333,0.2334,0.2341,0.2343,0.235,0.2232,0.2372,0.236,0.2234,0.2394,0.2412,0.2458,0.2474,0.2487,0.251,0.2514,0.2514,0.2514,0.2514,0.2514,0.2514,0.2514,0.2514,0.2514,0.2514,0.2517,0.2523,0.2525,0.206,0.0802,0.0161,-0.2739,-0.946,-1.0271,-1.0335,-1.0123,-1.0052,-1.0019,-1.0019,-1.0019,-1.0019,-1.0019,-1.0019,-1.0019,-1.0019,-1.0019,-1.0019,-1.0019,-1.0019,-1.0019,0.8699,0.9948,1.0781,1.0781,0.9082,0.0,0.8302,0.8573,0.0,0.9526,0.0,0.0,0.0,1.1754,1.1579,1.0593,1.0305,1.0305,1.0449,1.0305,1.0305,1.0161,1.0161,0.9585,0.8569,0.8425,0.7851,0.6845,0.597,0.5535,0.5535,0.4953,0.4228,0.35,0.3354,0.3063,0.2333,0.2333,0.2333,0.2333,0.2333,0.2333,0.2333,0.2333,0.2333,0.2333,0.2333,0.2333,0.2333,0.2333,0.2333,0.2333,0.2333,0.2333,0.2333,0.2333,0.2333,0.2333,0.2333,0.2333,0.2333,0.2333,0.2333,0.2338,0.2367,0.2226,0.2233,0.2261,0.2418,0.2417,0.2269,0.2442,0.2463,0.2467,0.2491,0.2511,0.2514,0.2514,0.2514,0.2514,0.2514,0.2514,0.2514,0.2514,0.2514,0.2514,0.2514,0.2525,0.2552,0.2556,0.2408,0.2274,0.0976,-0.2764,-0.9795,-1.0433,-1.0405,-1.0222,-1.0155,-1.0019,-1.0019,-1.0019,-1.0019,-1.0019,-1.0019,-1.0019,-1.0019,-1.0019,-1.0019,-1.0019,-1.0019,-1.0019,0.9263,1.0287,1.1162,1.1219,0.0,0.0,0.0,0.0,1.1284,1.1173,1.107,0.0,0.0,1.2641,1.3039,1.261,1.261,1.261,1.261,1.2029,1.1456,1.1456,1.0881,1.0017,0.8858,0.828,0.7557,0.6406,0.5535,0.5101,0.5101,0.481,0.4519,0.4228,0.4228,0.4083,0.3789,0.3354,0.3063,0.3063,0.2478,0.2333,0.2333,0.2333,0.2333,0.2333,0.2333,0.2333,0.2333,0.2333,0.2333,0.2333,0.2333,0.2333,0.2333,0.2333,0.2333,0.2333,0.2333,0.2333,0.2333,0.2333,0.2346,0.2363,0.2226,0.2391,0.2413,0.2443,0.2451,0.2453,0.2451,0.2461,0.2474,0.2492,0.2506,0.2514,0.2514,0.2514,0.2514,0.2514,0.2514,0.2514,0.2514,0.2514,0.2521,0.254,0.2542,0.2553,0.2421,0.2586,0.2597,0.2628,0.0993,-0.0997,-0.3653,-0.7929,-1.0541,-1.052,-1.0275,-1.0134,-1.0134,-1.0063,-1.0019,-1.0019,-1.0019,-1.0019,-1.0019,-1.0019,-1.0019,-1.0019,-1.0019,-1.0019,1.0384,1.1155,1.1776,0.0,0.0,0.0,1.3214,1.3181,1.303,1.2436,1.2388,1.2455,1.2559,1.3247,1.3904,1.3904,1.3904,1.3904,1.3904,1.3182,1.2753,1.2753,1.2036,1.0881,0.9441,0.8714,0.7847,0.6261,0.568,0.5392,0.5392,0.5392,0.5247,0.5101,0.5101,0.4956,0.4665,0.3937,0.35,0.35,0.2624,0.2333,0.2333,0.2333,0.2333,0.2333,0.2333,0.2333,0.2333,0.2333,0.2333,0.2333,0.2333,0.2333,0.2333,0.2333,0.2333,0.2334,0.2343,0.2348,0.2349,0.2358,0.2226,0.2244,0.2403,0.2421,0.2444,0.2474,0.2484,0.2484,0.2484,0.2484,0.2488,0.251,0.2514,0.2514,0.2514,0.2514,0.2514,0.2514,0.2514,0.2514,0.2514,0.2522,0.2536,0.2556,0.2567,0.2583,0.2612,0.2616,0.2627,0.2658,0.1005,0.0,0.0,-0.4343,-0.7655,-0.8971,-0.9784,-1.0286,-1.0204,-1.0123,-1.0057,-1.0019,-1.0019,-1.0019,-1.0019,-1.0019,-1.0019,-1.0019,-1.0019,-1.0019,1.2521,1.2832,1.2881,0.0,0.0,0.0,1.3563,1.336,1.3206,1.3571,1.3782,1.3904,1.3904,1.3904,1.3904,1.3904,1.3904,1.3904,1.3904,1.3904,1.3904,1.3904,1.3904,1.3039,1.0593,1.0455,0.9441,0.7135,0.699,0.699,0.699,0.699,0.67,0.5825,0.5825,0.5389,0.4665,0.3937,0.35,0.35,0.277,0.2333,0.2333,0.2333,0.2333,0.2333,0.2333,0.2333,0.2333,0.2333,0.2333,0.2333,0.2333,0.2333,0.2333,0.2333,0.2333,0.2338,0.2368,0.223,0.2234,0.2262,0.2272,0.2278,0.2459,0.2469,0.2476,0.2506,0.2514,0.2514,0.2514,0.2514,0.2514,0.2514,0.2514,0.2514,0.2514,0.2514,0.2514,0.2514,0.2515,0.2515,0.2515,0.254,0.256,0.256,0.2585,0.2777,0.2643,0.2647,0.2658,0.269,0.1178,0.0,0.0,0.0,-0.1511,-0.5203,-0.8811,-1.0471,-1.0215,-1.0204,-1.0144,-1.0025,-1.0019,-1.0019,-1.0019,-1.0019,-1.0019,-1.0019,-1.0019,-1.0019,1.2629,1.2735,0.0,1.3051,0.0,0.0,0.0,1.3563,0.0,0.0,1.3863,1.3904,1.3904,1.3904,1.3904,1.3904,1.3904,1.3904,1.3904,1.3904,1.3904,1.3904,1.3904,1.3325,1.1743,1.1606,1.1025,0.9441,0.8719,0.814,0.814,0.7421,0.6845,0.67,0.67,0.6555,0.6264,0.5538,0.5101,0.5098,0.3791,0.2917,0.2333,0.2333,0.2333,0.2333,0.2333,0.2333,0.2333,0.2333,0.2333,0.2333,0.2333,0.2333,0.2335,0.2357,0.2364,0.2369,0.2249,0.241,0.2412,0.2421,0.2438,0.2457,0.2466,0.2484,0.2503,0.2512,0.2514,0.2514,0.2514,0.2514,0.2514,0.2514,0.2514,0.2514,0.2514,0.2514,0.2514,0.2514,0.2532,0.2547,0.2547,0.257,0.2596,0.2617,0.2628,0.2645,0.2675,0.2679,0.2683,0.2691,0.2188,0.1346,0.0168,0.0,-0.1514,-0.5211,-0.8733,-1.0661,-1.046,-1.0373,-1.0275,-1.015,-1.015,-1.0106,-1.0019,-1.0019,-1.0019,-1.0019,-1.0019,-1.0019,1.267,1.28,0.0,1.3157,1.3262,1.3384,1.3677,0.0,0.0,0.0,1.3904,1.3904,1.3904,1.3904,1.3904,1.3904,1.3904,1.3904,1.3904,1.3904,1.3904,1.3904,1.3904,1.3468,1.2323,1.218,1.1743,1.0449,0.9729,0.9147,0.8714,0.7996,0.7421,0.699,0.699,0.699,0.699,0.6264,0.5825,0.5825,0.4519,0.3791,0.3207,0.2624,0.2333,0.2333,0.2333,0.2333,0.2333,0.2333,0.2333,0.2334,0.2346,0.235,0.2354,0.2235,0.2397,0.2401,0.2431,0.2442,0.2443,0.2455,0.2472,0.2487,0.2487,0.25,0.2514,0.2514,0.2514,0.2514,0.2514,0.2514,0.2514,0.2514,0.2514,0.2514,0.2514,0.2514,0.2518,0.253,0.2547,0.2563,0.2574,0.2601,0.2626,0.2645,0.2657,0.2672,0.269,0.2692,0.2692,0.2692,0.2692,0.2188,0.1179,0.0337,-0.1346,-0.471,-0.8601,-1.009,-0.8636,-0.9866,-1.0411,-1.0291,-1.028,-1.0215,-1.0095,-1.0095,-1.0068,-1.0019,-1.0019,-1.0019,1.284,1.2962,1.3141,1.3344,1.353,1.3709,1.3863,1.3904,1.3904,1.3904,1.3904,1.3904,1.3904,1.3904,1.3904,1.392,1.3912,1.3904,1.392,1.3912,1.3904,1.3904,1.3904,1.3468,1.2466,1.2323,1.1893,1.0737,1.0593,1.0161,0.9002,0.8858,0.8285,0.7135,0.699,0.699,0.699,0.6261,0.597,0.597,0.5101,0.481,0.481,0.3207,0.2333,0.2333,0.2333,0.2333,0.2333,0.2335,0.2337,0.2339,0.2371,0.2382,0.2386,0.2266,0.2428,0.2432,0.2462,0.2473,0.2477,0.2506,0.2514,0.2514,0.2514,0.2514,0.2514,0.2514,0.2514,0.2514,0.2514,0.2514,0.2514,0.2514,0.2514,0.2514,0.2514,0.2517,0.2526,0.2555,0.2564,0.2575,0.2601,0.2631,0.2652,0.2652,0.2675,0.2692,0.2692,0.2692,0.2692,0.2692,0.2692,0.2692,0.2692,0.1179,-0.0842,-0.3532,-0.7417,-0.8429,-0.5541,-0.8649,-1.0378,-1.0594,-1.0411,-1.034,-1.0221,-1.0221,-1.0155,-1.0036,-1.0036,-1.003,1.284,1.2962,1.3173,1.3506,1.3717,1.3855,1.3896,1.3904,1.3904,1.3904,1.3904,1.3904,1.3904,1.3904,1.3945,1.4099,1.3993,1.3953,1.4099,1.3993,1.3904,1.3904,1.3904,1.3761,1.3611,1.3468,1.3468,1.3182,1.2323,1.1743,1.1456,0.9723,0.8569,0.8285,0.7421,0.699,0.699,0.6845,0.67,0.67,0.597,0.5535,0.5538,0.3937,0.2917,0.2333,0.2333,0.2333,0.2334,0.2358,0.2368,0.2372,0.2402,0.2414,0.2417,0.2448,0.2459,0.2463,0.2493,0.2504,0.2506,0.2512,0.2514,0.2514,0.2514,0.2514,0.2514,0.2514,0.2514,0.2514,0.2514,0.2514,0.2514,0.2514,0.2514,0.2514,0.2514,0.2533,0.2552,0.2559,0.2597,0.263,0.2637,0.2662,0.2683,0.2683,0.2688,0.2692,0.2692,0.2692,0.2692,0.2692,0.2692,0.2692,0.2692,0.2356,0.1346,-0.0673,-0.1684,-0.32,-0.5392,-0.7038,-0.882,-1.0552,-1.053,-1.046,-1.0346,-1.0346,-1.0286,-1.0166,-1.0166,-1.0112,1.2938,1.3092,1.3311,1.3677,1.3831,1.3904,1.3904,1.3904,1.3904,1.3904,1.3904,1.3904,1.3904,1.3977,1.4066,1.4164,1.4099,1.4066,1.4164,1.4018,1.3904,1.3904,1.3904,1.3904,1.3904,1.3904,1.3904,1.3904,1.3325,1.2753,1.218,1.1025,0.9867,0.8714,0.814,0.7566,0.699,0.699,0.699,0.699,0.6555,0.6119,0.5825,0.4665,0.3791,0.35,0.3081,0.2941,0.2797,0.2536,0.2399,0.2403,0.2433,0.2446,0.2448,0.248,0.2491,0.2493,0.2508,0.2514,0.2514,0.2514,0.2514,0.2514,0.2514,0.2514,0.2514,0.2514,0.2514,0.2514,0.2514,0.2525,0.2536,0.2536,0.2536,0.2536,0.2536,0.2559,0.2583,0.2598,0.2626,0.2652,0.2667,0.2682,0.2692,0.2692,0.2692,0.2692,0.2692,0.2692,0.2692,0.2692,0.2692,0.2692,0.2692,0.2692,0.2356,0.1346,0.0842,-0.0337,-0.2697,-0.4705,-0.7201,-1.0683,-1.0666,-1.059,-1.0465,-1.0465,-1.0405,-1.0291,-1.0291,-1.0259,1.3043,1.3254,1.3498,1.3823,1.3904,1.3904,1.3904,1.3904,1.3912,1.3945,1.3945,1.3945,1.3945,1.4099,1.4237,1.4261,1.4221,1.4188,1.4221,1.4034,1.3904,1.3904,1.3904,1.3904,1.3904,1.3904,1.3904,1.3904,1.3904,1.3468,1.261,1.2323,1.1168,0.9008,0.8858,0.814,0.699,0.699,0.699,0.699,0.7007,0.672,0.5991,0.5421,0.4982,0.4684,0.4001,0.3724,0.3729,0.2872,0.2583,0.2585,0.2465,0.2477,0.248,0.2504,0.2514,0.2514,0.2514,0.2514,0.2514,0.2514,0.2514,0.2514,0.2514,0.2514,0.2514,0.2514,0.2518,0.2522,0.2522,0.2544,0.2567,0.2567,0.2571,0.2574,0.2568,0.2589,0.2617,0.2642,0.2652,0.2662,0.2688,0.2692,0.2692,0.2692,0.2692,0.2692,0.2692,0.2692,0.2692,0.2692,0.2692,0.2692,0.2692,0.2692,0.2692,0.2692,0.2018,0.1178,0.0505,-0.185,-0.5046,-0.9435,-1.0268,-1.0704,-1.0585,-1.0585,-1.0525,-1.0416,-1.0254,-1.0244,1.3043,1.3344,1.3652,1.3855,1.3904,1.3904,1.3904,1.3904,1.3945,1.4107,1.414,1.414,1.414,1.4278,1.4448,1.4611,1.4383,1.4229,1.4375,1.4107,1.3904,1.3904,1.3904,1.3904,1.3904,1.3904,1.3904,1.3904,1.3904,1.3904,1.3611,1.2753,1.1599,1.0161,0.9152,0.814,0.699,0.699,0.699,0.699,0.7072,0.6961,0.6961,0.6892,0.6138,0.4747,0.4804,0.4678,0.468,0.3825,0.3538,0.3388,0.2808,0.2508,0.2508,0.2512,0.2514,0.2514,0.2514,0.2514,0.2514,0.2514,0.2514,0.2514,0.2514,0.2514,0.2514,0.2514,0.2533,0.2553,0.2553,0.2575,0.2596,0.2596,0.2616,0.2628,0.2601,0.262,0.2642,0.2646,0.2668,0.2687,0.2691,0.2692,0.2692,0.2692,0.2692,0.2692,0.2692,0.2692,0.2692,0.2692,0.2692,0.2692,0.2692,0.2692,0.2692,0.2692,0.2524,0.2524,0.2356,0.1178,-0.1177,-0.4875,-0.8742,-1.0748,-1.0715,-1.0715,-1.065,-1.053,-0.9717,-0.9667,1.3173,1.3441,1.3685,1.3855,1.3904,1.3904,1.3904,1.3985,1.4083,1.4164,1.4335,1.444,1.4343,1.4464,1.4611,1.4692,1.4578,1.4464,1.4432,1.4213,1.4018,1.3912,1.3904,1.3904,1.3904,1.3904,1.3904,1.3904,1.3904,1.3904,1.3904,1.3468,1.261,1.1462,1.0881,0.9723,0.7996,0.7996,0.7593,0.7068,0.7158,0.7203,0.7207,0.7292,0.6982,0.6159,0.5777,0.5498,0.5504,0.4802,0.4359,0.4362,0.4073,0.3297,0.2512,0.2512,0.2514,0.2514,0.2514,0.2514,0.2514,0.2514,0.2514,0.2514,0.2514,0.2514,0.2518,0.2534,0.2549,0.2563,0.2579,0.2605,0.2627,0.2627,0.265,0.2669,0.2656,0.2662,0.2672,0.2672,0.2683,0.2692,0.2692,0.2692,0.2692,0.2692,0.2692,0.2692,0.2692,0.2692,0.2692,0.2692,0.2692,0.2692,0.2692,0.2692,0.2692,0.2692,0.2692,0.2692,0.2692,0.2356,0.0504,-0.2688,-0.5544,-0.8236,-1.077,-1.0759,-1.0726,-1.0672,-1.0164,-1.0303,1.3271,1.3474,1.362,1.379,1.3872,1.3912,1.3961,1.4075,1.4205,1.4294,1.4521,1.4676,1.4586,1.4684,1.4773,1.4773,1.4732,1.4643,1.4456,1.4286,1.4107,1.392,1.3904,1.3904,1.3904,1.3904,1.3904,1.3904,1.3904,1.3904,1.3904,1.3904,1.3325,1.218,1.218,1.1168,0.9152,0.9179,0.8669,0.7603,0.7703,0.7751,0.7751,0.7536,0.7544,0.7785,0.6934,0.6494,0.6347,0.5627,0.5176,0.5019,0.4709,0.3766,0.2512,0.2512,0.2512,0.2514,0.2514,0.2514,0.2514,0.2514,0.2514,0.2515,0.2523,0.2526,0.2532,0.2562,0.2575,0.2586,0.2608,0.2637,0.2658,0.2658,0.2676,0.2692,0.2692,0.2692,0.2692,0.2692,0.2692,0.2692,0.2692,0.2692,0.2692,0.2692,0.2692,0.2692,0.2692,0.2692,0.2692,0.2692,0.2692,0.2692,0.2692,0.2692,0.2692,0.2692,0.2692,0.2692,0.2692,0.2692,0.1682,-0.0672,-0.168,-0.4537,-0.8923,-0.9077,-0.924,-0.9579,-0.8896,-0.9392,1.3271,1.3376,1.3433,1.3612,1.3782,1.3945,1.4123,1.4172,1.4278,1.4611,1.4692,1.4757,1.4911,1.4944,1.4952,1.4952,1.4814,1.4643,1.4456,1.4286,1.4107,1.392,1.3904,1.3904,1.3904,1.3904,1.3904,1.3904,1.3904,1.3904,1.3904,1.3904,1.3325,1.218,1.218,1.1599,1.0305,1.0426,1.0116,0.905,0.9167,0.9223,0.9223,0.7942,0.8136,0.9216,0.7981,0.7361,0.7361,0.6584,0.5802,0.4865,0.4238,0.3299,0.2514,0.2514,0.2514,0.2514,0.2514,0.2514,0.2514,0.2514,0.2514,0.2519,0.2548,0.2557,0.2563,0.243,0.262,0.2643,0.2645,0.2668,0.269,0.269,0.2691,0.2692,0.2692,0.2692,0.2692,0.2692,0.2692,0.2692,0.2692,0.2692,0.2692,0.2692,0.2692,0.2692,0.2692,0.2692,0.2692,0.2692,0.2692,0.2692,0.2692,0.2692,0.2692,0.2692,0.2692,0.2692,0.2692,0.2692,0.2692,0.2524,0.2355,0.0168,-0.436,-0.436,-0.5033,-0.655,-0.4195,-0.5873,1.3124,1.3197,1.3262,1.3571,1.3774,1.3953,1.414,1.4351,1.4554,1.4684,1.4797,1.4895,1.4952,1.4968,1.4968,1.4968,1.4911,1.4773,1.4473,1.4375,1.4229,1.3937,1.3904,1.3904,1.3904,1.3904,1.3904,1.3904,1.3904,1.3904,1.3904,1.3904,1.3753,1.3325,1.3325,1.2798,1.1735,1.1244,1.0781,1.0381,1.0503,1.0566,1.0566,1.0142,1.0164,1.0624,1.0164,0.9542,0.8613,0.7521,0.7829,0.8915,0.7825,0.7201,0.6881,0.5942,0.5318,0.4698,0.5483,0.6115,0.6595,0.5066,0.4601,0.4296,0.3059,0.2586,0.2431,0.2459,0.2638,0.2652,0.2671,0.2684,0.2692,0.2692,0.2692,0.2692,0.2692,0.2692,0.2692,0.2692,0.2692,0.2692,0.2692,0.2692,0.2692,0.2692,0.2692,0.2692,0.2692,0.2692,0.2692,0.2692,0.2692,0.2692,0.2692,0.2692,0.2692,0.2692,0.2692,0.2692,0.2692,0.2692,0.2692,0.2692,0.2692,0.1849,0.0336,-0.1679,-0.2855,-0.3358,-0.3524,-0.453,1.3043,1.3141,1.3246,1.349,1.3725,1.3961,1.4205,1.4448,1.4651,1.4773,1.4887,1.4968,1.4968,1.4968,1.4968,1.4968,1.4968,1.4862,1.4562,1.4473,1.4326,1.4026,1.3937,1.3904,1.3904,1.3904,1.3904,1.3904,1.3904,1.3904,1.3904,1.3904,1.3928,1.3993,1.3993,1.3672,1.3155,1.262,1.2146,1.1734,1.1824,1.1863,1.1863,1.1553,1.1553,1.1863,1.1553,1.0785,1.0008,0.9075,0.9537,1.0779,1.0003,0.9376,0.9056,0.827,0.7493,0.6874,0.7509,0.8319,0.8678,0.6997,0.6234,0.5463,0.3253,0.2613,0.2456,0.2485,0.266,0.2667,0.2687,0.2692,0.2692,0.2692,0.2692,0.2692,0.2692,0.2692,0.2692,0.2692,0.2692,0.2692,0.2692,0.2692,0.2692,0.2692,0.2692,0.2692,0.2692,0.2692,0.2692,0.2692,0.2692,0.2692,0.2692,0.2692,0.2692,0.2692,0.2692,0.2692,0.2692,0.2692,0.2692,0.2692,0.2692,0.2692,0.2692,0.0673,-0.0336,-0.0336,-0.1343,-0.2181,0.0,0.0,0.0,1.3376,1.3644,1.3993,1.4343,1.4432,1.4538,1.4887,1.496,1.4968,1.4968,1.4968,1.4968,1.4968,1.4968,1.4903,1.4732,1.4546,1.4367,1.4196,1.4018,1.3904,1.3904,1.3904,1.3904,1.3904,1.3904,1.3904,1.3904,1.3904,1.3993,1.418,1.4188,1.4359,1.4708,1.4716,1.4189,1.3105,1.3105,1.3105,1.3105,1.1863,1.2024,1.3105,1.1869,1.1399,1.1399,1.1405,1.0773,1.0147,1.0147,0.9521,0.8896,0.8896,0.89,0.8745,0.8439,0.8351,0.8436,0.7965,0.7061,0.5838,0.3442,0.2801,0.2813,0.2675,0.2687,0.2692,0.2692,0.2692,0.2692,0.2692,0.2692,0.2692,0.2692,0.2692,0.2692,0.2692,0.2692,0.2692,0.2692,0.2692,0.2692,0.2692,0.2692,0.2692,0.2692,0.2692,0.2692,0.2692,0.2692,0.2694,0.2694,0.2694,0.2694,0.2694,0.2692,0.2692,0.2692,0.2692,0.2692,0.2692,0.2692,0.2692,0.2692,0.2692,0.2692,0.2692,0.2692,0.1512,1.3084,0.0,0.0,0.0,0.0,0.0,1.4196,1.4448,1.4659,1.4757,1.4879,1.4968,1.4968,1.4968,1.4968,1.4968,1.4968,1.4903,1.4732,1.4546,1.4367,1.4196,1.4018,1.3904,1.3904,1.3904,1.3904,1.3904,1.3904,1.3904,1.3904,1.4026,1.418,1.4359,1.4489,1.4611,1.4708,1.483,1.4766,1.4499,1.4499,1.4499,1.4499,1.4191,1.4191,1.4499,1.4191,1.4037,1.3883,1.2024,1.2172,1.3568,1.2635,1.2481,1.2797,1.2797,1.2711,1.2487,1.2487,1.2423,1.2409,1.1057,1.079,1.052,0.7481,0.8365,0.923,0.4199,0.2691,0.2692,0.2692,0.2692,0.2692,0.2692,0.2692,0.2692,0.2692,0.2692,0.2692,0.2692,0.2692,0.2692,0.2692,0.2692,0.2692,0.2692,0.2692,0.2692,0.2692,0.2692,0.2692,0.2692,0.2712,0.2725,0.2725,0.2725,0.2725,0.2725,0.2705,0.2692,0.2692,0.2692,0.2692,0.2692,0.2692,0.2692,0.2692,0.2692,0.2692,0.2692,0.2692,0.2355,0.0,0.0,0.0,1.362,0.0,0.0,1.4229,1.4448,1.4635,1.4789,1.4895,1.4968,1.4968,1.4968,1.4968,1.4968,1.4968,1.4927,1.483,1.4594,1.4391,1.4294,1.4058,1.3904,1.3904,1.3904,1.3904,1.3904,1.3904,1.3937,1.401,1.4188,1.4367,1.4546,1.4651,1.4741,1.4814,1.4919,1.4968,1.4968,1.4968,1.4968,1.4968,1.4968,1.4968,1.4968,1.4968,1.4968,1.4968,1.3414,1.3722,1.4968,1.4191,1.4191,1.4676,1.4748,1.468,1.4461,1.4373,1.4517,1.4348,1.3132,1.3214,1.3295,1.0882,0.9564,0.8056,0.386,0.269,0.2692,0.2692,0.2692,0.2692,0.2692,0.2692,0.2692,0.2692,0.2692,0.2692,0.2692,0.2692,0.2692,0.2692,0.2692,0.2692,0.2692,0.2692,0.2697,0.271,0.2712,0.2716,0.2729,0.2746,0.2757,0.2757,0.2757,0.2757,0.2757,0.274,0.2731,0.2731,0.2718,0.2712,0.2712,0.2699,0.2692,0.2692,0.2692,0.2692,0.2692,0.2692,0.2692,0.0,0.0,0.0,0.0,1.379,0.0,1.4302,1.4391,1.4497,1.4814,1.4895,1.4903,1.4903,1.4903,1.4903,1.4903,1.4919,1.4944,1.496,1.4659,1.4432,1.4432,1.4115,1.3904,1.3904,1.3904,1.3912,1.3928,1.3953,1.4042,1.4229,1.4383,1.4546,1.4732,1.4732,1.4814,1.496,1.4968,1.4968,1.4968,1.4968,1.4968,1.4968,1.4968,1.4968,1.4968,1.4968,1.4968,1.4968,1.4984,1.4984,1.4968,1.4992,1.4992,1.5017,1.5204,1.5285,1.5168,1.5003,1.5015,1.5163,1.4497,1.443,1.4721,1.3915,0.8847,0.3166,0.2843,0.2684,0.2692,0.2692,0.2692,0.2692,0.2692,0.2692,0.2692,0.2692,0.2692,0.2692,0.2692,0.2692,0.2692,0.2692,0.2692,0.2692,0.2692,0.2695,0.2707,0.2735,0.274,0.2754,0.2781,0.2787,0.2788,0.2788,0.2788,0.2788,0.2788,0.2785,0.2784,0.2784,0.2758,0.2743,0.2743,0.2713,0.2698,0.2698,0.2694,0.2692,0.2692,0.2692,0.2692,0.0,0.0,0.0,0.0,1.3872,0.0,1.3985,1.4123,1.4245,1.4318,1.444,1.4538,1.4538,1.4538,1.4538,1.4538,1.4659,1.4806,1.4944,1.4659,1.4432,1.4432,1.4115,1.3904,1.3904,1.3904,1.3961,1.4115,1.4253,1.4408,1.4594,1.4635,1.4732,1.4911,1.4919,1.4927,1.4968,1.4968,1.4968,1.4968,1.4968,1.4968,1.4968,1.4968,1.4968,1.4968,1.4968,1.4968,1.4976,1.5122,1.5098,1.4984,1.513,1.5187,1.5204,1.539,1.5553,1.5675,1.5707,1.5682,1.5827,1.5663,1.5695,1.5734,1.5609,1.1529,0.6493,0.3508,0.2683,0.269,0.269,0.2691,0.2692,0.2692,0.2692,0.2692,0.2692,0.2692,0.2692,0.2692,0.2692,0.2692,0.2692,0.2692,0.2692,0.2692,0.2713,0.2731,0.2737,0.2759,0.2777,0.2782,0.2806,0.2819,0.2819,0.2819,0.2819,0.2819,0.2797,0.2784,0.2784,0.2777,0.2774,0.2774,0.2744,0.2729,0.2729,0.2705,0.2692,0.2692,0.2692,0.2692,0.0,0.0,0.0,1.5026,0.0,0.0,0.0,1.4115,1.4205,1.4286,1.4375,1.4432,1.4432,1.4432,1.4432,1.4432,1.4586,1.4741,1.4822,1.4684,1.4538,1.444,1.4278,1.4131,1.405,1.4115,1.4205,1.4302,1.4464,1.4611,1.47,1.4789,1.4879,1.496,1.4968,1.4968,1.4968,1.4968,1.4968,1.4968,1.4968,1.4968,1.4968,1.4968,1.4968,1.4968,1.4968,1.5017,1.5106,1.5204,1.5236,1.5252,1.5342,1.5374,1.5398,1.5577,1.5699,1.5788,1.5878,1.5967,1.6048,1.6048,1.6048,1.6064,1.594,1.4081,1.1042,0.668,0.5357,0.5033,0.3187,0.2687,0.2691,0.2692,0.2692,0.2692,0.2692,0.2692,0.2692,0.2692,0.2692,0.2692,0.2692,0.2705,0.2716,0.2716,0.2742,0.2766,0.2781,0.2796,0.2811,0.2827,0.2842,0.2852,0.2852,0.2852,0.2852,0.2852,0.2837,0.2829,0.2829,0.2814,0.2799,0.2784,0.2769,0.2761,0.2761,0.2746,0.2722,0.2692,0.2692,0.2692,0.0,0.0,0.0,0.0,0.0,1.3937,0.0,0.0,0.0,1.4302,1.4326,1.4326,1.4326,1.4326,1.4326,1.4326,1.4513,1.4651,1.4651,1.4684,1.4651,1.4505,1.4456,1.4375,1.4237,1.4383,1.4481,1.4481,1.4651,1.4757,1.4757,1.4887,1.4968,1.4968,1.4968,1.4968,1.4968,1.4968,1.4968,1.4968,1.5,1.5017,1.5017,1.5057,1.5074,1.5074,1.5074,1.5155,1.5293,1.5325,1.5431,1.5569,1.5569,1.5569,1.5585,1.5764,1.5829,1.5845,1.5999,1.6048,1.6048,1.6048,1.6048,1.6048,1.5916,1.5964,1.5142,1.087,0.9545,0.8725,0.4688,0.3186,0.2688,0.269,0.2691,0.2692,0.2692,0.2692,0.2692,0.2692,0.2698,0.2701,0.2701,0.2721,0.274,0.2746,0.2773,0.28,0.2826,0.2834,0.2846,0.2871,0.2874,0.2874,0.2874,0.2874,0.2874,0.2874,0.2874,0.2874,0.2874,0.2851,0.2826,0.2801,0.2795,0.2792,0.2792,0.2787,0.2755,0.2701,0.2701,0.2698,0.0,0.0,0.0,0.0,1.5026,0.0,1.3928,0.0,1.3937,1.3961,0.0,1.3961,1.3961,0.0,0.0,1.3961,1.4245,1.4464,1.4464,1.4603,1.47,1.4676,1.4529,1.4424,1.4408,1.457,1.4676,1.4676,1.4838,1.4935,1.4935,1.4952,1.4968,1.4968,1.4968,1.4968,1.4968,1.4968,1.4968,1.4968,1.513,1.5204,1.5212,1.5374,1.5455,1.5455,1.5455,1.5463,1.5496,1.565,1.5723,1.574,1.574,1.574,1.5764,1.5951,1.6016,1.6016,1.604,1.6048,1.6048,1.6048,1.6048,1.6048,1.6048,1.5916,1.5948,1.527,1.5142,1.3978,0.8883,0.5025,0.2683,0.2683,0.2688,0.2692,0.2692,0.2692,0.2692,0.2692,0.2714,0.2732,0.2732,0.2735,0.2747,0.2774,0.2804,0.2825,0.2829,0.2852,0.287,0.2874,0.2874,0.2874,0.2874,0.2874,0.2874,0.2874,0.2874,0.2874,0.2874,0.2871,0.2867,0.2864,0.2837,0.2823,0.2823,0.2796,0.2766,0.2732,0.2732,0.2718,0.0,0.0,0.0,0.0,0.0,0.0,1.4206,1.3904,1.3904,1.3904,0.0,0.0,0.0,0.0,0.0,0.0,1.4115,1.4318,1.4416,1.4594,1.4708,1.4708,1.4546,1.4473,1.4586,1.4757,1.4854,1.4854,1.4927,1.4968,1.4968,1.4968,1.4968,1.4968,1.4968,1.5017,1.5122,1.5122,1.5179,1.5285,1.5366,1.5398,1.5407,1.548,1.5512,1.5512,1.5512,1.5569,1.5666,1.574,1.5837,1.5934,1.5934,1.5934,1.5943,1.6016,1.6048,1.6048,1.6048,1.6048,1.6048,1.6048,1.6048,1.6048,1.6048,1.6056,1.6073,1.6081,1.5262,1.3936,1.173,1.006,0.7889,0.3688,0.2684,0.2687,0.2691,0.2706,0.2718,0.2718,0.2743,0.277,0.2788,0.2791,0.2795,0.2807,0.2836,0.2855,0.2855,0.2866,0.2874,0.2874,0.2874,0.2874,0.2874,0.2874,0.2874,0.2874,0.2874,0.2874,0.2874,0.2874,0.2874,0.2874,0.2861,0.2855,0.2855,0.2842,0.2821,0.2791,0.2773,0.2758,2.4011,2.2828,2.1346,1.9526,1.8333,1.7112,1.4927,1.45,1.4542,1.4121,1.401,0.0,0.0,0.0,1.4034,1.3985,0.0,1.4278,1.4351,1.4521,1.4651,1.47,1.4586,1.4578,1.4765,1.4895,1.4968,1.4968,1.4968,1.4968,1.4968,1.4968,1.4992,1.5041,1.5041,1.513,1.5317,1.5317,1.5382,1.5512,1.5561,1.5585,1.5585,1.5642,1.5658,1.5658,1.5658,1.5731,1.5845,1.5845,1.5926,1.6048,1.6048,1.6048,1.6048,1.6048,1.6048,1.6048,1.6048,1.6048,1.6048,1.6048,1.6048,1.6048,1.6048,1.6048,1.6048,1.6048,1.5051,1.4052,1.3562,1.3431,1.2111,0.6895,0.4208,0.2698,0.2712,0.2733,0.275,0.275,0.2774,0.2803,0.2825,0.2829,0.2831,0.284,0.286,0.2874,0.2874,0.2874,0.2874,0.2874,0.2874,0.2874,0.2874,0.2874,0.2874,0.2874,0.2874,0.2874,0.2874,0.2874,0.2874,0.2874,0.2874,0.2874,0.2874,0.2874,0.2863,0.2841,0.281,0.2791,2.5073,2.3559,2.1914,2.1229,1.9872,1.8244,1.6481,1.6159,1.5876,1.4455,1.4302,1.4416,1.4416,1.4416,0.0,0.0,1.431,0.0,0.0,1.4335,1.4505,1.4684,1.47,1.4765,1.4944,1.496,1.4968,1.4968,1.4968,1.4968,1.4968,1.4968,1.5049,1.5228,1.5228,1.5317,1.5504,1.5504,1.5512,1.552,1.5683,1.5764,1.5772,1.5951,1.6032,1.6032,1.6032,1.6032,1.604,1.604,1.604,1.6048,1.6048,1.6048,1.6048,1.6048,1.6048,1.6048,1.6048,1.6048,1.6048,1.6048,1.6048,1.6048,1.6048,1.6048,1.6048,1.6064,1.5899,1.5562,1.3887,1.3403,1.3291,1.3102,0.7831,0.2733,0.2763,0.2776,0.2782,0.2782,0.2982,0.2827,0.2829,0.2829,0.2838,0.2868,0.2874,0.2874,0.2874,0.2874,0.2874,0.2874,0.2874,0.2874,0.2874,0.2874,0.2874,0.2874,0.2874,0.2874,0.2874,0.2874,0.2874,0.2874,0.2874,0.2874,0.2874,0.2874,0.2874,0.2872,0.2841,0.2811,2.5342,2.503,2.4228,2.2212,2.1567,2.0769,1.8386,1.7112,1.6309,1.5741,1.5035,1.4432,1.4432,1.4432,0.0,0.0,0.0,1.4326,0.0,1.4578,1.4635,1.47,1.4806,1.4765,1.4473,1.4765,1.4919,1.4806,1.4903,1.5017,1.5139,1.5147,1.5228,1.5415,1.5423,1.5504,1.5683,1.5683,1.5748,1.5869,1.5926,1.5951,1.5959,1.6016,1.6048,1.6048,1.6048,1.6048,1.6048,1.6048,1.6048,1.6048,1.6048,1.6048,1.6048,1.6048,1.6048,1.6048,1.6048,1.6048,1.6048,1.6048,1.6048,1.6048,1.6048,1.6048,1.6048,1.6048,1.6056,1.5924,1.5196,1.4202,1.3398,1.3409,1.1892,0.8963,0.3981,0.2791,0.2808,0.2812,0.2838,0.2859,0.2859,0.2859,0.2861,0.2872,0.2874,0.2874,0.2874,0.2874,0.2874,0.2874,0.2874,0.2874,0.2874,0.2874,0.2874,0.2874,0.2874,0.2874,0.2874,0.2874,0.2874,0.2874,0.2874,0.2874,0.2874,0.2874,0.2874,0.2874,0.2863,0.2853,2.5927,2.5941,2.5725,2.3811,2.3445,2.308,2.0495,1.9205,1.8404,1.7689,1.6407,1.5659,1.6256,1.536,1.4728,0.0,0.0,1.4351,0.0,1.4611,1.4611,1.4611,1.4708,1.4667,1.4391,1.4611,1.4806,1.4887,1.4935,1.5074,1.5325,1.5333,1.5423,1.5601,1.561,1.5691,1.5869,1.5869,1.5926,1.6048,1.6048,1.6048,1.6048,1.6048,1.6048,1.6048,1.6048,1.6048,1.6048,1.6048,1.6048,1.6048,1.6048,1.6048,1.6048,1.6048,1.6048,1.6048,1.6048,1.6048,1.6048,1.6048,1.6048,1.6048,1.6048,1.5924,1.5964,1.5964,1.602,1.5933,1.6053,1.5386,1.4747,1.4779,1.4485,1.2922,0.805,0.4753,0.2833,0.284,0.2857,0.2871,0.2874,0.2874,0.2874,0.2874,0.2874,0.2874,0.2874,0.2874,0.2874,0.2874,0.2874,0.2874,0.2874,0.2874,0.2874,0.2874,0.2874,0.2874,0.2874,0.2874,0.2868,0.2857,0.2868,0.2868,0.2857,0.2868,0.2874,0.2874,0.2874,0.2874]}]]